[[{"header":{"parameterUnit":"m.s-1","parameterCategory":1,"la1":30.6,"la2":29.2853,"lo1":-89.7004,"lo2":-87.6739,"dy":0.0162,"dx":0.0183,"nx":112,"ny":82,"refTime":"2024-08-18T06:00:00:Z","depth":0,"parameterNumber":2,"parameterNumberName":"U-component_of_WINDS"},"data":[0.0,0.0,0.0,0.0,0.0,0.0,0.0,0.0,0.0,0.0,0.0,0.0,0.0,0.0,0.0,0.0,0.0,0.0,0.0,0.0,0.0,0.0,0.0,0.0,0.0,0.0,0.0,0.0,0.0,0.0,0.0,0.0,0.0,0.0,0.0,0.0,0.0,0.0,0.0,0.0,0.0,0.0,0.0,0.0,0.0,0.0,0.0,0.0,0.0,0.0,0.0,0.0,0.0,0.0,0.0,0.0,0.0,0.0,0.0,0.0,0.0,0.0,0.0,0.0,0.0,0.0,0.0,0.0,0.0,0.0,0.0,0.0,0.0,0.0,0.0,0.0,0.0,0.0,0.0,0.0,0.0,0.0,0.0,0.0,0.0,0.0,0.0,0.0,0.0,0.0,-0.6025,-0.5949,-0.6007,-0.6051,-0.6032,-0.5937,-0.5754,-0.5494,0.0,0.0,0.0,0.0,0.0,0.0,0.0,0.0,0.0,0.0,0.0,0.0,0.0,0.0,0.0,0.0,0.0,0.0,0.0,0.0,0.0,0.0,0.0,0.0,0.0,0.0,0.0,0.0,0.0,0.0,0.0,0.0,0.0,0.0,0.0,0.0,0.0,0.0,0.0,0.0,0.0,0.0,0.0,0.0,0.0,0.0,0.0,0.0,0.0,0.0,0.0,0.0,0.0,0.0,0.0,0.0,0.0,0.0,0.0,0.0,0.0,0.0,0.0,0.0,0.0,0.0,0.0,0.0,0.0,0.0,0.0,0.0,0.0,0.0,0.0,0.0,0.0,0.0,0.0,0.0,0.0,0.0,0.0,0.0,0.0,0.0,0.0,0.0,0.0,0.0,0.0,0.0,0.0,0.0,0.0,0.0,0.0,0.0,0.0,0.0,0.0,0.0,0.0,0.0,-0.6641,-0.6128,-0.5983,-0.589,-0.5773,-0.5748,-0.5632,-0.5433,0.0,0.0,0.0,0.0,0.0,0.0,0.0,0.0,0.0,0.0,0.0,0.0,0.0,0.0,0.0,0.0,0.0,0.0,0.0,0.0,0.0,0.0,0.0,0.0,0.0,0.0,0.0,0.0,0.0,0.0,0.0,0.0,0.0,0.0,0.0,0.0,0.0,0.0,0.0,0.0,0.0,0.0,0.0,0.0,0.0,0.0,0.0,0.0,0.0,0.0,0.0,0.0,0.0,0.0,0.0,0.0,0.0,0.0,0.0,0.0,0.0,0.0,0.0,0.0,0.0,0.0,0.0,0.0,0.0,0.0,0.0,0.0,0.0,0.0,0.0,0.0,0.0,0.0,0.0,0.0,0.0,0.0,0.0,0.0,0.0,0.0,0.0,0.0,0.0,0.0,0.0,0.0,0.0,0.0,0.0,0.0,0.0,0.0,0.0,0.0,0.0,0.0,0.0,-0.7216,-0.7341,-0.6223,-0.6435,-0.6397,-0.5766,-0.5688,-0.5608,-0.5406,-0.5269,0.0,0.0,0.0,0.0,0.0,0.0,0.0,0.0,0.0,0.0,0.0,0.0,0.0,0.0,0.0,0.0,0.0,0.0,0.0,0.0,0.0,0.0,0.0,0.0,0.0,0.0,0.0,0.0,0.0,0.0,0.0,0.0,0.0,0.0,0.0,0.0,0.0,0.0,0.0,0.0,0.0,0.0,0.0,0.0,0.0,0.0,0.0,0.0,0.0,0.0,0.0,0.0,0.0,0.0,0.0,0.0,0.0,0.0,0.0,0.0,0.0,0.0,0.0,0.0,0.0,0.0,0.0,0.0,0.0,0.0,0.0,0.0,0.0,0.0,0.0,0.0,0.0,0.0,0.0,0.0,0.0,0.0,0.0,0.0,0.0,0.0,0.0,0.0,0.0,0.0,0.0,0.0,0.0,0.0,0.0,0.0,0.0,0.0,0.0,0.0,0.0,0.0,-0.8283,-0.8117,-0.6931,-0.7276,-0.7168,-0.6114,-0.5987,-0.579,-0.538,-0.5078,0.0,0.0,0.0,0.0,0.0,0.0,0.0,0.0,0.0,0.0,0.0,0.0,0.0,0.0,0.0,0.0,0.0,0.0,0.0,0.0,0.0,0.0,0.0,0.0,0.0,0.0,0.0,0.0,0.0,0.0,0.0,0.0,0.0,0.0,0.0,0.0,0.0,0.0,0.0,0.0,0.0,0.0,0.0,0.0,0.0,0.0,0.0,0.0,0.0,0.0,0.0,0.0,0.0,0.0,0.0,0.0,0.0,0.0,0.0,0.0,0.0,0.0,0.0,0.0,0.0,0.0,0.0,0.0,0.0,0.0,0.0,0.0,0.0,0.0,0.0,0.0,0.0,0.0,0.0,0.0,0.0,0.0,0.0,0.0,0.0,0.0,0.0,0.0,0.0,0.0,0.0,0.0,0.0,0.0,0.0,0.0,0.0,0.0,0.0,0.0,0.0,0.0,-0.9279,-0.9001,-0.8913,-0.861,-0.8028,-0.7076,-0.6839,-0.628,-0.5289,-0.4909,0.0,0.0,0.0,0.0,0.0,0.0,0.0,0.0,0.0,0.0,0.0,0.0,0.0,0.0,0.0,0.0,0.0,0.0,0.0,0.0,0.0,0.0,0.0,0.0,0.0,0.0,0.0,0.0,0.0,0.0,0.0,0.0,0.0,0.0,0.0,0.0,0.0,0.0,0.0,0.0,0.0,0.0,0.0,0.0,0.0,0.0,0.0,0.0,0.0,0.0,0.0,0.0,0.0,0.0,0.0,0.0,0.0,0.0,0.0,0.0,0.0,0.0,0.0,0.0,0.0,0.0,0.0,0.0,0.0,0.0,0.0,0.0,0.0,0.0,0.0,0.0,0.0,0.0,0.0,0.0,0.0,0.0,0.0,0.0,0.0,0.0,0.0,0.0,0.0,0.0,0.0,0.0,0.0,0.0,0.0,0.0,0.0,0.0,0.0,0.0,0.0,0.0,-0.9637,-0.9416,0.0,-0.9275,-0.8763,-0.7228,-0.6992,-0.6434,-0.5281,0.0,0.0,0.0,0.0,0.0,0.0,0.0,0.0,0.0,0.0,0.0,0.0,0.0,0.0,0.0,0.0,0.0,0.0,0.0,0.0,0.0,0.0,0.0,0.0,0.0,0.0,0.0,0.0,0.0,0.0,0.0,0.0,0.0,0.0,0.0,0.0,0.0,0.0,0.0,0.0,0.0,0.0,0.0,0.0,0.0,0.0,0.0,0.0,0.0,0.0,0.0,0.0,0.0,0.0,0.0,0.0,0.0,0.0,0.0,0.0,0.0,0.0,0.0,0.0,0.0,0.0,0.0,0.0,0.0,0.0,0.0,0.0,0.0,0.0,0.0,0.0,0.0,0.0,0.0,0.0,0.0,0.0,0.0,0.0,0.0,0.0,0.0,0.0,0.0,0.0,0.0,0.0,0.0,0.0,0.0,0.0,0.0,0.0,0.0,0.0,0.0,0.0,-1.0214,-1.0411,-1.0405,0.0,-1.0236,-0.9702,-0.8127,-0.7804,-0.7196,-0.601,0.0,0.0,0.0,0.0,0.0,0.0,0.0,0.0,0.0,0.0,0.0,0.0,0.0,0.0,0.0,0.0,0.0,0.0,0.0,0.0,0.0,0.0,0.0,0.0,0.0,0.0,0.0,0.0,0.0,0.0,0.0,0.0,0.0,0.0,0.0,0.0,0.0,0.0,0.0,0.0,0.0,0.0,0.0,0.0,0.0,0.0,0.0,0.0,0.0,0.0,0.0,0.0,0.0,0.0,0.0,0.0,0.0,0.0,0.0,0.0,0.0,0.0,0.0,0.0,0.0,0.0,0.0,0.0,0.0,0.0,0.0,0.0,0.0,0.0,0.0,0.0,0.0,0.0,0.0,0.0,0.0,0.0,0.0,0.0,0.0,0.0,0.0,0.0,0.0,0.0,0.0,0.0,0.0,0.0,0.0,0.0,0.0,0.0,0.0,0.0,0.0,0.0,-1.1305,-1.1758,-1.2094,-1.2094,-1.1628,-1.0911,-0.999,-0.9477,-0.8721,0.0,0.0,0.0,0.0,0.0,0.0,0.0,0.0,0.0,0.0,0.0,0.0,0.0,0.0,0.0,0.0,0.0,0.0,0.0,0.0,0.0,0.0,0.0,0.0,0.0,0.0,0.0,0.0,0.0,0.0,0.0,0.0,0.0,0.0,0.0,0.0,0.0,0.0,0.0,0.0,0.0,0.0,0.0,0.0,0.0,0.0,0.0,0.0,0.0,0.0,0.0,0.0,0.0,0.0,0.0,0.0,0.0,0.0,0.0,0.0,0.0,0.0,0.0,0.0,0.0,0.0,0.0,0.0,0.0,0.0,0.0,0.0,0.0,0.0,0.0,0.0,0.0,0.0,0.0,0.0,0.0,0.0,0.0,0.0,0.0,0.0,0.0,0.0,0.0,0.0,0.0,0.0,0.0,0.0,0.0,0.0,0.0,0.0,0.0,0.0,0.0,0.0,0.0,-1.1219,-1.1103,-1.1262,-1.2025,-1.1628,-1.0911,-0.999,-0.956,-0.8809,-0.758,0.0,0.0,0.0,0.0,0.0,0.0,0.0,0.0,0.0,0.0,0.0,0.0,0.0,0.0,0.0,0.0,0.0,0.0,0.0,0.0,0.0,0.0,0.0,0.0,0.0,0.0,0.0,0.0,0.0,0.0,0.0,0.0,0.0,0.0,0.0,0.0,0.0,0.0,0.0,0.0,0.0,0.0,0.0,0.0,0.0,0.0,0.0,0.0,0.0,0.0,0.0,0.0,0.0,0.0,0.0,0.0,0.0,0.0,0.0,0.0,0.0,0.0,0.0,0.0,0.0,0.0,0.0,0.0,0.0,0.0,0.0,0.0,0.0,0.0,0.0,0.0,0.0,0.0,0.0,0.0,0.0,0.0,0.0,0.0,0.0,0.0,0.0,0.0,0.0,0.0,0.0,0.0,0.0,0.0,0.0,0.0,0.0,0.0,0.0,0.0,0.0,0.0,-1.1368,-1.1331,-1.1479,-1.2031,-1.1715,-1.1189,-1.0526,-1.0202,-0.9499,-0.8216,0.0,0.0,0.0,0.0,0.0,0.0,0.0,0.0,0.0,0.0,0.0,0.0,0.0,0.0,0.0,0.0,0.0,0.0,0.0,0.0,0.0,0.0,0.0,0.0,0.0,0.0,0.0,0.0,0.0,0.0,0.0,0.0,0.0,0.0,0.0,0.0,0.0,0.0,0.0,0.0,0.0,0.0,0.0,0.0,0.0,0.0,0.0,0.0,0.0,0.0,0.0,0.0,0.0,0.0,0.0,0.0,0.0,0.0,0.0,0.0,0.0,0.0,0.0,0.0,0.0,0.0,0.0,0.0,0.0,0.0,0.0,0.0,0.0,0.0,0.0,0.0,0.0,0.0,0.0,0.0,0.0,0.0,0.0,0.0,0.0,0.0,0.0,0.0,0.0,0.0,0.0,0.0,0.0,0.0,0.0,0.0,0.0,0.0,0.0,0.0,0.0,0.0,-1.1671,-1.2118,-1.2323,-1.2121,-1.1861,-1.1579,-1.1327,-1.1128,-1.0501,-0.932,0.0,0.0,0.0,0.0,0.0,0.0,0.0,0.0,0.0,0.0,0.0,0.0,0.0,0.0,0.0,0.0,0.0,0.0,0.0,0.0,0.0,0.0,0.0,0.0,0.0,0.0,0.0,0.0,0.0,0.0,0.0,0.0,0.0,0.0,0.0,0.0,0.0,0.0,0.0,0.0,0.0,0.0,0.0,0.0,0.0,0.0,0.0,0.0,0.0,0.0,0.0,0.0,0.0,0.0,0.0,0.0,0.0,0.0,0.0,0.0,-0.9404,0.0,0.0,0.0,0.0,0.0,0.0,0.0,0.0,0.0,0.0,0.0,0.0,0.0,0.0,0.0,0.0,0.0,0.0,0.0,0.0,0.0,0.0,0.0,0.0,0.0,0.0,0.0,0.0,0.0,0.0,0.0,0.0,0.0,0.0,0.0,0.0,0.0,0.0,0.0,0.0,0.0,-1.1693,-1.2118,-1.2323,-1.2121,-1.1861,-1.1579,-1.1327,-1.1128,-1.0802,-1.0312,-1.0037,0.0,0.0,0.0,0.0,0.0,0.0,0.0,0.0,0.0,0.0,0.0,0.0,0.0,0.0,0.0,0.0,0.0,0.0,0.0,0.0,0.0,0.0,0.0,0.0,0.0,0.0,0.0,0.0,0.0,0.0,0.0,0.0,0.0,0.0,0.0,0.0,0.0,0.0,0.0,0.0,0.0,0.0,0.0,0.0,0.0,0.0,0.0,0.0,0.0,0.0,0.0,0.0,0.0,0.0,0.0,0.0,0.0,0.0,0.0,-1.0117,-0.9566,0.0,0.0,0.0,0.0,0.0,0.0,0.0,0.0,0.0,0.0,0.0,0.0,0.0,0.0,0.0,0.0,0.0,0.0,0.0,0.0,0.0,0.0,0.0,0.0,0.0,0.0,0.0,0.0,0.0,0.0,0.0,0.0,0.0,0.0,0.0,0.0,0.0,0.0,0.0,0.0,-1.2016,-1.2361,-1.2465,-1.2132,-1.1986,-1.1725,-1.1337,-1.1187,-1.0695,-0.9608,-0.9552,0.0,0.0,0.0,0.0,0.0,0.0,0.0,0.0,0.0,0.0,0.0,0.0,0.0,0.0,0.0,0.0,0.0,0.0,0.0,0.0,0.0,0.0,0.0,0.0,0.0,0.0,0.0,0.0,0.0,0.0,0.0,0.0,0.0,0.0,0.0,0.0,0.0,0.0,0.0,0.0,0.0,0.0,0.0,0.0,0.0,0.0,0.0,0.0,0.0,0.0,0.0,0.0,0.0,-1.1729,-1.184,-1.2088,-1.1297,-1.1047,-1.1162,-1.0782,-1.019,-0.9473,-0.9129,0.0,0.0,0.0,0.0,0.0,0.0,0.0,0.0,0.0,0.0,0.0,0.0,0.0,0.0,0.0,0.0,0.0,0.0,0.0,0.0,0.0,0.0,-0.7698,-0.8675,-0.8361,-0.7929,-0.8206,0.0,0.0,0.0,0.0,0.0,0.0,0.0,0.0,0.0,0.0,0.0,-1.2073,-1.2368,-1.2408,-1.212,-1.2094,-1.1882,-1.1348,-1.1305,-1.0613,-0.9016,-0.9146,-0.867,0.0,0.0,0.0,0.0,0.0,0.0,0.0,0.0,0.0,0.0,0.0,0.0,0.0,0.0,0.0,0.0,0.0,0.0,0.0,0.0,0.0,0.0,0.0,0.0,0.0,0.0,0.0,0.0,0.0,0.0,0.0,0.0,-0.7746,-0.8007,0.0,0.0,0.0,0.0,0.0,0.0,0.0,0.0,0.0,0.0,0.0,0.0,0.0,-1.0132,-1.1051,-1.0588,-1.0766,-1.1552,-1.1076,-1.0872,-1.0924,-1.0793,-1.0752,-1.0772,-1.07,0.0,-0.9836,-0.9787,0.0,0.0,0.0,0.0,0.0,0.0,0.0,0.0,0.0,0.0,0.0,0.0,0.0,0.0,0.0,0.0,0.0,0.0,0.0,0.0,0.0,0.0,-0.7261,-0.7281,-0.7298,-0.7314,-0.7375,-0.8336,-0.9169,-0.906,-0.8906,-0.9144,0.0,0.0,0.0,0.0,0.0,0.0,-1.1005,-1.124,-1.1596,-1.2051,-1.2094,-1.1882,-1.1348,-1.1305,-1.1181,-1.0934,-1.0161,-0.9693,-0.9642,-0.8541,0.0,0.0,0.0,0.0,0.0,0.0,0.0,0.0,0.0,0.0,0.0,0.0,0.0,0.0,0.0,0.0,0.0,0.0,0.0,0.0,0.0,0.0,0.0,0.0,0.0,0.0,0.0,0.0,0.0,-0.769,-0.8106,-0.8162,-0.8716,-0.8942,0.0,0.0,0.0,0.0,0.0,0.0,0.0,0.0,0.0,-1.0372,-1.0033,-1.017,-1.0815,-1.0592,-1.0671,-1.1042,-1.0805,-1.0692,-1.0692,-1.0692,-1.0692,-1.0692,-1.0692,-1.0558,-1.0349,-1.0457,-1.0608,-1.078,0.0,0.0,0.0,0.0,-1.0847,-1.1134,-0.9342,-0.8689,-0.8614,-0.8407,0.0,0.0,0.0,0.0,0.0,0.0,0.0,-0.8516,-0.8279,-0.7645,-0.7089,-0.7103,-0.7147,-0.721,-0.721,-0.769,-0.8249,-0.8661,-0.8556,-0.8715,-0.9642,0.0,0.0,0.0,0.0,-0.9944,-1.0105,-1.024,-1.033,-1.0448,-1.0441,-1.0255,-0.9869,-0.9767,-0.9506,-0.8982,-0.8585,-0.8203,-0.7755,-0.7279,-0.7051,0.0,0.0,0.0,0.0,0.0,0.0,0.0,0.0,0.0,0.0,0.0,0.0,0.0,0.0,0.0,0.0,0.0,0.0,0.0,0.0,0.0,0.0,0.0,0.0,0.0,0.0,0.0,0.0,-0.8126,-0.8511,-0.8578,-0.8877,-0.9023,0.0,0.0,0.0,0.0,0.0,0.0,-0.9798,-0.981,-0.9977,-1.0312,-1.0325,-1.0451,-1.0688,-1.0692,-1.0692,-1.0692,-1.0692,-1.0692,-1.0692,-1.0692,-1.0692,-1.0692,-1.0468,-1.0359,-1.0366,-1.059,-1.0769,-1.0888,-1.0582,-1.1179,-1.1999,-1.0326,-1.0251,-1.0721,-0.8871,-0.8213,-0.8175,-0.7998,-0.7967,-0.8074,-0.8656,0.0,0.0,0.0,0.0,-0.8157,-0.8225,-0.7647,-0.7078,-0.7163,-0.721,-0.721,-0.721,-0.721,-0.7401,-0.8092,-0.8044,-0.8171,-0.9041,0.0,0.0,0.0,0.0,-0.9005,-0.921,-0.9212,-0.9192,-0.9204,-0.9167,-0.9021,-0.8767,-0.8661,-0.8299,-0.761,-0.7455,-0.7102,-0.6389,-0.6253,-0.6404,-0.6879,0.0,0.0,0.0,0.0,0.0,0.0,0.0,0.0,0.0,0.0,0.0,0.0,0.0,0.0,0.0,0.0,0.0,0.0,0.0,0.0,0.0,0.0,0.0,0.0,0.0,0.0,0.0,0.0,0.0,-0.9331,-0.9641,0.0,0.0,0.0,0.0,-0.9856,-0.9877,-1.0014,-1.0349,-1.0369,-1.045,-1.066,-1.0664,-1.0672,-1.0692,-1.0692,-1.0692,-1.0692,-1.0692,-1.0692,-1.0692,-1.0692,-1.0692,-1.0637,-0.9833,-0.9471,-0.9499,-0.9739,-1.0202,-1.0664,-1.0069,-1.0229,-1.0643,-0.9418,-0.8982,-0.8872,-0.7695,-0.7185,-0.7111,-0.7213,-0.7678,-0.8249,-0.8528,-0.9071,0.0,0.0,-0.8615,-0.8383,-0.7494,-0.7229,-0.7202,-0.721,-0.721,-0.721,-0.721,-0.721,-0.7207,-0.7257,-0.7163,-0.7399,-0.8444,0.0,-0.8445,-0.8445,-0.8319,-0.8257,-0.8264,-0.8163,-0.8382,-0.9128,-0.9196,-0.91,-0.8905,-0.8885,-0.8858,-0.8811,-0.8103,-0.7663,-0.7615,-0.6821,-0.6366,-0.6349,-0.623,0.0,0.0,0.0,0.0,0.0,0.0,0.0,0.0,0.0,0.0,0.0,0.0,0.0,0.0,0.0,0.0,0.0,0.0,0.0,0.0,0.0,0.0,0.0,0.0,0.0,0.0,0.0,0.0,-0.7845,-0.816,0.0,-0.8064,-0.867,-0.895,-0.8583,-0.9188,-0.9374,-0.889,-0.8866,-0.889,-0.8972,-0.8972,-0.8972,-0.8972,-0.8972,-0.8972,-0.8972,-0.8972,-0.8972,-0.8972,-0.8972,-0.8972,-0.8944,-0.864,-0.8502,-0.8499,-0.8423,-0.8978,-0.9805,-0.9189,-0.968,-1.0453,-0.8533,-0.826,-0.873,-0.7595,-0.7155,-0.7128,-0.7196,-0.737,-0.7577,-0.7676,-0.7868,-0.8002,-0.7774,-0.7691,-0.762,-0.7282,-0.721,-0.721,-0.721,-0.721,-0.721,-0.721,-0.721,-0.721,-0.721,-0.7149,-0.7235,-0.7533,-0.7535,-0.7478,-0.7393,-0.7266,-0.7181,-0.7181,-0.7063,-0.7086,-0.7356,-0.7347,-0.7302,-0.7233,-0.7144,-0.7052,-0.698,-0.6867,-0.6759,-0.6673,-0.6505,-0.6393,-0.6352,-0.6287,-0.6107,0.0,0.0,0.0,0.0,0.0,0.0,0.0,0.0,0.0,0.0,0.0,0.0,0.0,0.0,0.0,0.0,0.0,0.0,0.0,0.0,0.0,0.0,0.0,0.0,0.0,0.0,-0.7214,-0.7163,-0.7471,-0.7608,-0.743,-0.8087,-0.8344,-0.7895,-0.8533,-0.8668,-0.8029,-0.8002,-0.8002,-0.8002,-0.8002,-0.8002,-0.8002,-0.8002,-0.8002,-0.8002,-0.8002,-0.8002,-0.8002,-0.8002,-0.8002,-0.7974,-0.77,-0.7565,-0.7537,-0.7149,-0.7537,-0.8343,-0.8143,-0.8665,-0.9326,-0.7762,-0.7681,-0.8232,-0.7457,-0.721,-0.721,-0.721,-0.721,-0.721,-0.721,-0.721,-0.721,-0.721,-0.721,-0.721,-0.721,-0.721,-0.721,-0.721,-0.721,-0.721,-0.721,-0.721,-0.721,-0.721,-0.721,-0.7185,-0.7084,-0.707,-0.7043,-0.6961,-0.682,-0.6728,-0.6661,-0.655,-0.6458,-0.6414,-0.6369,-0.6325,-0.6325,-0.6252,-0.617,-0.6065,-0.6236,-0.629,-0.6208,-0.6328,-0.6412,-0.6412,-0.6363,-0.6265,-0.6143,0.0,0.0,0.0,0.0,0.0,0.0,0.0,0.0,0.0,0.0,0.0,0.0,0.0,0.0,0.0,0.0,0.0,0.0,0.0,0.0,0.0,0.0,0.0,-0.6645,-0.7187,-0.7375,-0.7405,-0.7681,-0.7843,-0.775,-0.7874,-0.7947,-0.7919,-0.7947,-0.7947,-0.7919,-0.7919,-0.7919,-0.7919,-0.7919,-0.7919,-0.7919,-0.7919,-0.7919,-0.7919,-0.7919,-0.7919,-0.7919,-0.7919,-0.7919,-0.7891,-0.7043,-0.6685,-0.6631,-0.6072,-0.6019,-0.6386,-0.6963,-0.7182,-0.721,-0.721,-0.721,-0.721,-0.721,-0.721,-0.721,-0.721,-0.721,-0.721,-0.721,-0.721,-0.721,-0.721,-0.721,-0.721,-0.721,-0.721,-0.721,-0.721,-0.721,-0.721,-0.721,-0.721,-0.721,-0.721,-0.721,-0.721,-0.721,-0.721,-0.721,-0.721,-0.7087,0.0,-0.6823,-0.67,-0.6555,-0.6436,-0.6423,-0.6423,-0.6423,-0.6423,-0.642,-0.6412,-0.6414,-0.6414,-0.6412,-0.6414,-0.6417,-0.6423,-0.6417,-0.6477,-0.6593,0.0,0.0,0.0,0.0,0.0,0.0,0.0,0.0,0.0,0.0,0.0,0.0,0.0,0.0,0.0,0.0,0.0,0.0,0.0,0.0,0.0,-0.3597,-0.3982,-0.4974,-0.4805,-0.4787,-0.526,-0.5394,-0.5611,-0.6035,-0.6664,-0.6793,-0.6156,-0.671,-0.6793,-0.6156,-0.6128,-0.6128,-0.6128,-0.6128,-0.6128,-0.6128,-0.6128,-0.6128,-0.6128,-0.6128,-0.6128,-0.6128,-0.6128,-0.6212,-0.6402,-0.6156,-0.6186,-0.6411,-0.6437,-0.652,-0.6604,-0.6771,-0.699,-0.721,-0.721,-0.721,-0.721,-0.721,-0.721,-0.721,-0.721,-0.721,-0.721,-0.721,-0.721,-0.721,-0.721,-0.721,-0.721,-0.721,-0.721,-0.721,-0.721,-0.721,-0.721,-0.721,-0.721,-0.721,-0.721,-0.721,-0.721,-0.721,-0.721,-0.721,-0.721,-0.7087,0.0,-0.694,-0.6828,-0.6738,-0.6706,-0.6703,-0.6703,-0.6703,-0.6703,-0.6601,-0.6423,-0.6493,-0.6504,-0.6414,-0.6496,-0.6585,-0.67,-0.6588,-0.6561,0.0,0.0,0.0,0.0,0.0,0.0,0.0,0.0,0.0,0.0,0.0,0.0,0.0,0.0,0.0,0.0,0.0,0.0,0.0,0.0,0.0,0.0,-0.266,-0.2992,-0.359,-0.4033,-0.4434,-0.484,-0.4873,-0.5015,-0.5354,-0.5854,-0.5938,-0.5437,-0.5882,-0.5938,-0.5437,-0.5409,-0.5409,-0.5409,-0.5409,-0.5409,-0.5409,-0.5409,-0.5409,-0.5409,-0.5409,-0.5409,-0.5409,-0.5409,-0.5547,-0.5794,-0.5794,-0.5991,-0.633,-0.6576,-0.6687,-0.6715,0.0,0.0,0.0,0.0,-0.721,-0.721,-0.721,-0.721,-0.721,-0.721,-0.721,-0.721,-0.721,-0.721,-0.721,-0.721,-0.721,-0.721,-0.721,-0.721,-0.721,-0.721,-0.721,-0.721,-0.721,-0.721,-0.721,-0.721,-0.721,0.0,-0.721,-0.721,-0.721,-0.721,-0.7125,-0.7065,-0.7018,-0.6923,-0.6858,-0.6806,-0.6801,-0.6801,-0.6801,-0.6801,0.0,0.0,0.0,-0.6639,-0.6566,-0.6634,0.0,0.0,0.0,0.0,0.0,0.0,0.0,0.0,-0.7122,-0.7247,0.0,0.0,0.0,0.0,0.0,0.0,0.0,0.0,0.0,0.0,0.0,0.0,0.0,0.0,0.0,0.0,-0.1813,-0.2076,-0.2637,-0.4204,-0.5296,-0.5296,-0.5296,-0.5326,-0.5382,-0.5409,-0.5409,-0.5409,-0.5409,-0.5409,-0.5409,0.0,0.0,0.0,0.0,-0.5409,-0.5409,-0.5409,-0.5409,-0.5409,-0.5409,-0.5409,-0.5409,-0.5437,-0.5603,-0.5849,-0.5877,-0.6102,-0.6411,-0.6659,-0.6771,-0.6796,-0.7071,-0.721,-0.721,-0.721,-0.721,-0.721,-0.721,0.0,0.0,-0.721,-0.721,-0.721,-0.721,-0.721,-0.721,-0.721,-0.721,-0.721,-0.721,-0.721,-0.721,-0.721,-0.721,-0.721,-0.721,-0.721,-0.721,-0.721,-0.721,-0.721,-0.721,-0.721,-0.721,-0.721,-0.721,-0.7147,-0.7046,-0.7032,-0.6988,-0.6853,0.0,0.0,-0.6842,-0.6842,-0.6836,-0.6823,-0.6823,-0.6823,-0.6823,-0.6834,-0.6899,-0.7021,-0.7152,-0.7236,-0.7327,-0.7449,-0.745,-0.7301,-0.734,-0.7554,0.0,0.0,0.0,0.0,0.0,0.0,0.0,0.0,0.0,0.0,0.0,0.0,0.0,0.0,0.0,-0.1843,-0.2187,-0.2553,-0.2693,-0.3839,-0.4676,-0.4676,-0.4676,-0.4873,-0.5354,-0.5409,-0.5409,-0.5409,-0.5409,-0.5409,-0.5409,-0.5409,-0.5409,-0.5409,-0.5409,-0.5409,-0.5409,-0.5409,-0.5409,-0.5409,-0.5409,0.0,-0.5409,-0.5629,-0.5907,-0.6219,-0.6437,-0.6712,-0.7018,-0.7071,-0.7099,-0.7099,-0.7182,-0.721,-0.721,-0.721,-0.721,-0.721,-0.721,-0.721,-0.721,-0.721,-0.721,-0.721,-0.721,-0.721,0.0,-0.721,-0.721,-0.721,-0.721,-0.721,-0.721,-0.721,-0.721,-0.721,-0.721,-0.721,-0.721,-0.721,-0.721,-0.721,-0.721,-0.721,-0.721,-0.721,-0.721,-0.7202,-0.7152,-0.7149,-0.7138,-0.7117,-0.7114,-0.7114,-0.7114,-0.7114,-0.7076,-0.6956,-0.695,-0.695,-0.695,-0.7065,-0.7171,-0.7238,-0.7262,-0.7332,-0.7454,-0.7606,-0.7095,-0.6073,-0.7131,-0.7717,0.0,0.0,0.0,0.0,0.0,0.0,0.0,0.0,0.0,0.0,0.0,-0.1935,-0.1727,0.0,-0.2036,-0.1823,-0.2316,-0.2806,-0.3113,-0.3921,-0.4508,-0.4508,-0.4761,-0.507,-0.5382,-0.5409,-0.5409,-0.5409,-0.542,-0.5445,-0.5445,-0.5488,-0.5512,-0.5512,-0.5512,-0.5512,-0.5512,-0.5512,-0.5512,-0.5512,-0.5512,-0.5488,-0.5473,-0.5756,-0.6039,-0.6302,-0.6576,-0.6879,-0.721,-0.721,-0.721,-0.721,-0.721,-0.721,-0.721,-0.721,-0.721,-0.721,-0.721,-0.721,-0.721,-0.721,-0.721,-0.721,-0.721,-0.6765,-0.629,-0.629,-0.5868,-0.5393,-0.5393,-0.5393,-0.5393,-0.5393,-0.5393,-0.5393,-0.5393,-0.5868,-0.6121,-0.5504,-0.6371,-0.7015,-0.6402,-0.6654,-0.7018,-0.7182,-0.721,-0.7127,-0.6963,-0.7099,-0.7127,-0.6963,-0.7099,-0.721,-0.721,-0.721,-0.7158,-0.71,-0.7098,-0.7098,-0.7098,-0.7152,-0.6929,-0.636,-0.6383,-0.6138,-0.5643,-0.5764,-0.5464,-0.4829,-0.5475,-0.5861,0.0,0.0,0.0,0.0,0.0,0.0,0.0,0.0,-0.1632,-0.1644,-0.1671,-0.1729,-0.1777,-0.1814,-0.1794,-0.1791,-0.2216,-0.2692,-0.3195,-0.3782,-0.4201,-0.4313,-0.4959,-0.5409,-0.5409,-0.5409,-0.5416,-0.5404,-0.5469,-0.5514,-0.5533,-0.5575,-0.5614,-0.5614,-0.5614,-0.5614,-0.5614,-0.5614,-0.5614,-0.5614,-0.5614,-0.5606,-0.5621,-0.5948,-0.6211,-0.6443,-0.6697,-0.6963,-0.721,-0.721,-0.721,-0.7182,-0.6932,-0.6849,-0.6877,-0.7127,-0.7043,-0.6877,-0.7127,-0.6902,-0.6541,-0.6763,-0.668,-0.651,-0.651,-0.5815,-0.5063,-0.5063,-0.4364,-0.3608,-0.3608,-0.3608,-0.3608,-0.3608,-0.3608,-0.3608,-0.3608,-0.4364,-0.4756,-0.3692,-0.5087,-0.6091,-0.5061,-0.5453,-0.6179,-0.6988,-0.7074,-0.6935,-0.6659,-0.6907,-0.699,-0.674,-0.699,-0.721,-0.721,-0.6988,-0.6849,-0.6849,-0.6624,-0.651,-0.651,-0.6502,-0.6059,-0.5098,-0.5148,-0.4723,-0.3834,-0.3864,-0.3762,-0.3525,-0.3546,-0.3738,-0.1396,-0.1487,-0.1589,-0.1648,-0.1622,-0.1608,0.0,0.0,-0.1705,-0.1763,-0.1778,-0.1782,-0.1789,-0.179,-0.1791,-0.1794,-0.1851,-0.1936,-0.1991,-0.2524,-0.3113,-0.3643,-0.4709,-0.5409,-0.5409,-0.5409,-0.5412,-0.5488,-0.5502,-0.5514,-0.5595,-0.561,-0.5614,-0.5614,-0.5614,-0.5614,-0.5614,-0.5614,-0.5614,-0.5614,-0.5614,-0.5758,-0.604,-0.6266,-0.6534,-0.6832,-0.7063,-0.7154,-0.721,-0.721,-0.721,-0.7099,-0.6012,-0.5594,-0.5734,-0.6791,-0.6513,-0.5761,-0.6818,-0.5785,-0.4167,-0.5258,-0.4866,-0.3999,-0.3999,-0.3916,-0.3804,-0.3804,-0.3692,-0.3608,-0.3608,-0.3608,-0.3608,-0.3608,-0.3608,-0.3608,-0.3608,-0.372,-0.3664,-0.3244,-0.3382,-0.3438,-0.3075,-0.3074,-0.3968,-0.6404,-0.655,-0.6386,-0.6358,-0.6576,-0.674,-0.6715,-0.699,-0.721,-0.721,-0.6207,-0.5594,-0.5594,-0.4585,-0.3999,-0.3999,-0.4,-0.4006,-0.3985,-0.3985,-0.3957,-0.3896,-0.3895,-0.333,-0.2205,-0.2199,-0.2883,-0.0711,-0.1234,0.0,0.0,-0.1704,-0.1729,-0.1789,-0.179,-0.1764,-0.179,-0.1795,-0.1795,-0.1795,-0.1809,-0.1793,0.0,-0.2122,-0.2501,-0.2791,-0.3355,-0.3966,-0.4573,-0.448,-0.4327,-0.4285,-0.4288,-0.4003,-0.3342,-0.3314,-0.337,-0.3393,-0.4175,-0.4619,-0.4619,-0.5377,-0.5772,-0.5772,-0.5772,-0.5772,-0.5772,-0.5772,-0.5925,-0.6227,-0.6479,-0.6393,-0.604,-0.5378,-0.5115,-0.5115,-0.5115,-0.5115,-0.5059,-0.4559,-0.4364,-0.4419,-0.492,-0.478,-0.4419,-0.492,-0.4446,-0.3692,-0.4196,-0.3999,-0.3608,-0.3608,-0.3106,-0.2547,-0.2547,-0.2043,-0.1512,-0.1512,-0.1512,-0.1456,-0.1316,-0.126,-0.126,-0.126,-0.1679,-0.1847,-0.1176,-0.2042,-0.2599,-0.179,-0.2236,-0.3074,-0.4191,-0.4418,-0.4392,-0.4222,-0.4613,-0.4894,-0.4894,-0.5031,-0.5115,-0.5115,-0.4643,-0.4364,-0.4364,-0.3867,-0.3605,-0.3605,-0.3604,-0.3284,-0.2653,-0.264,-0.2304,-0.1633,-0.1627,-0.1362,-0.0831,-0.0848,-0.1157,0.0099,0.0,0.0,-0.0989,-0.1207,-0.1425,-0.1408,-0.1418,-0.1486,-0.1739,-0.1598,-0.1486,-0.1739,-0.1792,-0.1812,-0.1812,-0.2069,-0.24,-0.2794,-0.3101,-0.3486,-0.4065,-0.3381,-0.2755,-0.2524,-0.2797,-0.2662,-0.1802,-0.1763,-0.1807,-0.1846,-0.2813,-0.3383,-0.3383,-0.431,-0.4836,-0.4836,-0.4836,-0.4836,-0.4836,-0.4836,-0.502,-0.5416,-0.5756,-0.5556,-0.4923,-0.3991,-0.3595,-0.3608,-0.3608,-0.3608,-0.358,-0.3245,-0.3106,-0.305,-0.2742,-0.2825,-0.316,-0.3497,-0.316,-0.2658,-0.2993,-0.2882,-0.2602,-0.2602,-0.1931,-0.1204,-0.1204,-0.0504,0.0252,0.0252,0.0252,0.0308,0.0505,0.0533,0.0533,0.0533,0.0028,-0.0196,0.0504,-0.056,-0.1315,-0.0448,-0.1007,-0.1622,-0.1706,-0.1958,-0.2266,-0.2656,-0.3132,-0.3497,-0.358,-0.3608,-0.3608,-0.3608,-0.3301,-0.3111,-0.3098,-0.2792,-0.2615,-0.2599,-0.2611,-0.2202,-0.1325,-0.1307,-0.086,0.0,0.0,0.0,0.0,0.0,0.0,0.0,0.0,0.0737,0.0792,0.0194,-0.0448,-0.0448,-0.0448,-0.0701,-0.1598,-0.1065,-0.0729,-0.1627,-0.1792,-0.1812,-0.1812,-0.1311,-0.0966,-0.098,-0.0489,-0.0345,-0.0889,-0.0975,-0.0726,-0.006,-0.1081,-0.1773,-0.1798,-0.1803,-0.1846,-0.1997,-0.2031,-0.2062,-0.2062,-0.2093,-0.2124,-0.2124,-0.2124,-0.2124,-0.2124,-0.2124,-0.2461,-0.3106,-0.3662,-0.3812,-0.3642,-0.3612,-0.3607,-0.3608,-0.3608,-0.3608,-0.3497,-0.2323,-0.1847,-0.1707,-0.0532,-0.084,-0.2015,-0.3189,-0.2071,-0.0308,-0.1484,-0.1064,-0.0112,-0.0112,0.0084,0.0336,0.0336,0.0589,0.0869,0.0869,0.0869,0.0869,0.0869,0.0897,0.0897,0.0897,0.0869,0.0925,0.1206,0.1234,0.1177,0.1234,0.1206,0.1093,0.0841,0.0504,-0.042,-0.2437,-0.2938,-0.3244,-0.3553,-0.3608,-0.3608,-0.3608,-0.2519,-0.1861,-0.1862,-0.0746,-0.0116,-0.0118,-0.012,-0.009,-0.006,-0.0062,-0.0032,0.0,0.0,0.0,0.0,0.0,0.0,0.0,0.0,0.0877,0.0887,0.067,0.0449,0.0449,0.0449,0.0364,0.0056,-0.0224,-0.0505,-0.0813,-0.1061,-0.1198,-0.1198,-0.0687,-0.0453,-0.0832,-0.0688,-0.0747,-0.1316,-0.0707,0.0,0.0,0.0,0.0,0.0672,0.0734,0.0705,0.0647,-0.0185,-0.0678,-0.0678,-0.1539,-0.2,-0.2,-0.2,-0.2,-0.2001,-0.2462,-0.2771,-0.2985,-0.2727,-0.2573,-0.2488,-0.1612,-0.1222,-0.1215,-0.1201,-0.1224,-0.1166,-0.076,-0.0616,-0.056,-0.014,-0.0252,-0.0672,-0.1064,-0.0672,-0.0028,-0.0252,-0.0056,0.0308,0.0533,0.0673,0.0729,0.0729,0.0813,0.0897,0.0897,0.0897,0.0953,0.1121,0.1177,0.1177,0.1177,0.1346,0.1402,0.1093,0.1177,0.1234,0.1065,0.0841,0.0619,0.0342,0.0367,0.0084,-0.0784,-0.0981,-0.1092,-0.1204,-0.1204,-0.121,-0.1223,-0.0826,-0.0602,-0.0612,-0.0236,0.0,0.0,0.0,0.0,0.0,0.0,0.0,0.0,0.0,0.0,0.0,0.0,0.0,0.2449,0.2221,0.1838,0.187,0.1625,0.1373,0.1373,0.1373,0.1289,0.0953,0.0701,0.042,0.0112,-0.0202,-0.0442,-0.0442,-0.0425,-0.034,-0.0244,-0.04,-0.0493,-0.0393,0.0304,0.0798,0.0,0.0,0.0,0.1946,0.1986,0.1987,0.2008,0.1173,0.0709,0.0709,-0.0123,-0.0585,-0.0585,-0.0585,-0.0585,-0.0585,-0.1263,-0.1571,-0.157,-0.1373,-0.1272,-0.1235,-0.0388,0.0,0.0,0.0,0.0,0.0,0.0,0.0,0.0,0.0,0.0056,0.014,0.0028,0.0056,0.0168,0.0336,0.0477,0.0617,0.0841,0.0953,0.1037,0.1037,0.1121,0.1234,0.1234,0.1234,0.1262,0.143,0.1486,0.1486,0.1486,0.1634,0.1698,0.1301,0.1358,0.136,0.097,0.0542,0.0201,0.0029,0.0144,0.02,0.0029,0.0,0.0,0.0,0.0,0.0,0.0,0.0,0.0,0.0,0.0,0.0,0.0,0.0,0.0,0.0,0.0,0.0,0.0,0.0,0.0,0.0,0.0,0.0,0.3466,0.3499,0.3515,0.3572,0.2941,0.2268,0.2268,0.2268,0.2045,0.1205,0.1653,0.1932,0.1093,0.0,0.0442,0.0442,-0.0337,-0.0471,0.0868,0.0438,0.0506,0.0,0.0,0.0,0.0,0.0,0.0,0.2017,0.0,0.2009,0.2013,0.2012,0.2012,0.2012,0.201,0.201,0.201,0.2008,0.2008,0.2008,0.1328,0.1019,0.0988,0.0309,0.0031,0.0,0.0,0.0,0.0,0.0,0.0,0.0,0.0,0.0,0.0028,0.0028,0.0197,0.0393,0.014,0.0224,0.0421,0.0449,0.0673,0.0925,0.0953,0.1121,0.1318,0.1318,0.1542,0.1795,0.1797,0.1797,0.1797,0.1799,0.18,0.18,0.18,0.1794,0.1814,0.1785,0.1756,0.1562,0.0969,0.0383,0.0,0.0,0.0,0.0,0.0,0.0,0.0,0.0,0.0,0.0,0.0,0.0,0.0,0.0,0.0,0.0,0.0,0.0,0.0,0.0,0.0,0.0,0.0,0.0,0.0,0.0,0.0,0.0,0.3477,0.3529,0.3568,0.3583,0.3418,0.325,0.325,0.325,0.3194,0.297,0.252,0.2073,0.1655,0.0,0.0,0.0868,0.1049,0.0,0.1752,0.1647,0.0,0.2023,0.0,0.208,0.2098,0.2084,0.0,0.0,0.208,0.2081,0.2074,0.2073,0.2073,0.2073,0.202,0.2007,0.2007,0.1987,0.2008,0.2008,0.1575,0.1235,0.0988,0.0556,0.0246,0.0,0.0,0.0,0.0,0.0,0.0,0.0,0.0,0.0146,0.0378,0.0378,0.0548,0.0771,0.0686,0.0708,0.0813,0.1009,0.1121,0.1234,0.1486,0.1627,0.1683,0.1683,0.1739,0.18,0.1794,0.18,0.1806,0.1857,0.1863,0.1863,0.1863,0.1868,0.1815,0.1552,0.1142,0.0792,0.0618,0.0268,0.0,0.0,0.0,0.0,0.0,0.0,0.0,0.0,0.0,0.0,0.0,0.0,0.0,0.0,0.0,0.0,0.0,0.0,0.0,0.0,0.0,0.0,0.0,0.0,0.0,0.0,0.0,0.0,0.3521,0.3561,0.3587,0.3587,0.3587,0.3587,0.3587,0.3587,0.3587,0.3587,0.3194,0.0,0.2438,0.2189,0.0,0.0,0.0,0.0,0.1997,0.1575,0.1425,0.0,0.2152,0.0,0.2138,0.2152,0.2155,0.0,0.2124,0.211,0.2097,0.2096,0.2096,0.2096,0.208,0.2032,0.1987,0.2003,0.1989,0.2008,0.1667,0.1328,0.0988,0.0648,0.0309,0.0,0.0,0.0,0.0,0.0153,0.0212,0.0241,0.0388,0.0563,0.0707,0.0707,0.0878,0.1133,0.1133,0.1207,0.1303,0.1293,0.1402,0.1542,0.1739,0.1795,0.1795,0.1795,0.1795,0.1802,0.1804,0.1812,0.1819,0.1879,0.1886,0.1886,0.1886,0.1896,0.1846,0.1667,0.1137,0.072,0.0686,0.0302,0.0,0.0,0.0,0.0,0.0,0.0,0.0,0.0,0.0,0.0,0.0,0.0,0.0,0.0,0.0,0.0,0.0,0.0,0.0,0.0,0.0,0.0,0.0,0.0,0.0,0.0,0.0,0.0,0.3571,0.3587,0.3587,0.3587,0.3587,0.3587,0.3587,0.3587,0.3587,0.3587,0.0,0.3446,0.311,0.2874,0.2616,0.2304,0.0,0.0642,0.1907,0.1056,0.0772,0.2053,0.2188,0.2188,0.2188,0.2188,0.2188,0.2188,0.213,0.2104,0.211,0.2109,0.2107,0.2102,0.2102,0.2053,0.1987,0.1987,0.2005,0.2008,0.1698,0.139,0.105,0.0772,0.0463,0.0123,0.0123,0.0123,0.0154,0.0432,0.0551,0.0605,0.0877,0.102,0.1067,0.1067,0.1243,0.1478,0.1478,0.1609,0.1755,0.1471,0.1573,0.1795,0.1795,0.1795,0.1795,0.18,0.1801,0.1809,0.1814,0.1824,0.1831,0.1891,0.1927,0.1927,0.1927,0.1919,0.1907,0.1907,0.1407,0.0984,0.091,0.0398,0.0,0.0,0.0,0.0,0.0,0.0,0.0,0.0,0.0,0.0,0.0,0.0,0.0,0.0,0.0,0.0,0.0,0.0,0.0,0.0,0.0,0.0,0.0,0.0,0.0,0.0,0.0,0.0,0.3571,0.3587,0.3587,0.3587,0.3587,0.3587,0.3587,0.3587,0.0,0.0,0.0,0.311,0.2833,0.2566,0.2302,0.2005,0.0,0.0,0.0,0.0,0.186,0.0,0.0,0.0,0.0,0.0,0.0,0.0,0.2183,0.2178,0.2173,0.2172,0.2161,0.2102,0.2101,0.2075,0.1987,0.1987,0.2005,0.2008,0.1946,0.1729,0.142,0.1359,0.1143,0.0833,0.0833,0.0,0.0833,0.0895,0.0925,0.0923,0.0984,0.1167,0.1409,0.1409,0.158,0.1803,0.1803,0.1844,0.1873,0.1756,0.1758,0.1795,0.1795,0.1795,0.18,0.1797,0.1804,0.1816,0.1871,0.1885,0.1893,0.1954,0.1992,0.1992,0.1992,0.1996,0.1969,0.1969,0.1449,0.0987,0.0984,0.0431,0.0,0.0,0.0,0.0,0.0,0.0,0.0,0.0,0.0,0.0,0.0,0.0,0.0,0.0,0.0,0.0,0.0,0.0,0.0,0.0,0.0,0.0,0.0,0.0,0.0,0.0,0.0,0.0,0.3579,0.3587,0.3587,0.3587,0.3587,0.3579,0.3548,0.0,0.0,0.0,0.0,0.2805,0.2496,0.0,0.0,0.0,0.0,0.0,0.0,0.0,0.0,0.0,0.0,0.0,0.0,0.0,0.0,0.2188,0.2188,0.2188,0.2188,0.2188,0.2181,0.2167,0.2118,0.2088,0.2043,0.2026,0.2011,0.1998,0.2015,0.1829,0.1498,0.1487,0.1328,0.0988,0.0988,0.0988,0.1019,0.1173,0.1266,0.1266,0.1451,0.1606,0.176,0.176,0.1844,0.1955,0.1955,0.1935,0.1904,0.1874,0.1814,0.1787,0.18,0.1806,0.1793,0.1808,0.1823,0.1845,0.1889,0.1901,0.1908,0.1969,0.2008,0.2008,0.2008,0.2008,0.2008,0.2008,0.1451,0.0988,0.0988,0.0432,0.0,0.0,0.0,0.0,0.0,0.0,0.0,0.0,0.0,0.0,0.0,0.0,0.0,0.0,0.0,0.0,0.0,0.0,0.0,0.0,0.0,0.0,0.0,0.0,0.0,0.0,0.0,0.0,0.3587,0.3587,0.3587,0.3587,0.3587,0.3572,0.3456,0.3238,0.0,0.0,0.2773,0.2525,0.2244,0.0,0.0,0.0,0.0,0.0,0.0,0.0,0.0,0.0,0.0,0.0,0.0,0.0,0.0,0.2188,0.2188,0.2188,0.2188,0.2188,0.2185,0.2179,0.2122,0.2091,0.2087,0.2031,0.2016,0.2009,0.1987,0.1863,0.16,0.1614,0.1451,0.1204,0.1204,0.1204,0.1235,0.1513,0.1606,0.1637,0.1884,0.2008,0.2008,0.2008,0.2008,0.2008,0.2008,0.1961,0.1906,0.1905,0.1841,0.1806,0.1804,0.1788,0.1813,0.182,0.1872,0.1902,0.1933,0.191,0.1947,0.2002,0.2008,0.2008,0.2008,0.2008,0.2008,0.2008,0.1451,0.0988,0.0988,0.0432,0.0,0.0,0.0,0.0,0.0,0.0,0.0,0.0,0.0,0.0,0.0,0.0,0.0,0.0,0.0,0.0,0.0,0.0,0.0,0.0,0.0,0.0,0.0,0.0,0.0,0.0,0.0,0.0,0.3587,0.3587,0.3587,0.3587,0.3587,0.3517,0.3213,0.0,0.0,0.2717,0.2439,0.2244,0.2216,0.1994,0.0,0.0,0.0,0.0,0.0,0.0,0.0,0.0,0.0,0.0,0.0,0.0,0.0,0.2188,0.2188,0.2188,0.2188,0.2188,0.2176,0.2114,0.211,0.2081,0.2023,0.1988,0.2005,0.2011,0.2009,0.1978,0.1949,0.1947,0.1946,0.1915,0.1915,0.1915,0.0,0.1946,0.1946,0.1946,0.1977,0.2008,0.2008,0.2008,0.2008,0.2008,0.2008,0.2006,0.1967,0.1906,0.1859,0.1806,0.1804,0.1788,0.1818,0.1874,0.1904,0.1904,0.1964,0.2003,0.2004,0.2007,0.2008,0.2008,0.2008,0.2008,0.2008,0.2008,0.1451,0.0988,0.0988,0.0432,0.0,0.0,0.0,0.0,0.0,0.0,0.0,0.0,0.0,0.0,0.0,0.0,0.0,0.0,0.0,0.0,0.0,0.0,0.0,0.0,0.0,0.0,0.0,0.0,0.0,0.0,0.0,0.0,0.3578,0.3587,0.3587,0.3587,0.3587,0.3507,0.3117,0.0,0.2754,0.2382,0.2119,0.1964,0.1964,0.1879,0.1814,0.0,0.1896,0.1929,0.2033,0.0,0.0,0.0,0.0,0.0,0.0,0.0,0.2188,0.2188,0.2188,0.218,0.2129,0.2127,0.2122,0.211,0.2074,0.2043,0.1987,0.2002,0.1996,0.2002,0.1984,0.1986,0.2001,0.2015,0.2008,0.2008,0.2008,0.2008,0.0,0.2008,0.2008,0.2008,0.2008,0.2008,0.2008,0.2008,0.2008,0.2008,0.2008,0.2008,0.2003,0.191,0.1885,0.186,0.1859,0.1858,0.1874,0.1904,0.1935,0.1961,0.2004,0.2008,0.2008,0.2008,0.2008,0.2008,0.2008,0.2008,0.1946,0.1729,0.1328,0.0929,0.0719,0.0313,0.0,0.0,0.0,0.0,0.0,0.0,0.0,0.0,0.0,0.0,0.0,0.0,0.0,0.0,0.0,0.0,0.0,0.0,0.0,0.0,0.0,0.0,0.0,0.0,0.0,0.0,0.0,0.0,0.3571,0.3587,0.3587,0.3587,0.3587,0.3478,0.0,0.0,0.256,0.2107,0.1897,0.1795,0.1795,0.1795,0.1812,0.0,0.188,0.1937,0.1999,0.0,0.0,0.0,0.0,0.0,0.0,0.2196,0.2188,0.2188,0.2188,0.2175,0.2111,0.2101,0.2092,0.2082,0.2041,0.2015,0.2006,0.1986,0.1986,0.2006,0.1986,0.1987,0.2005,0.1986,0.2008,0.2008,0.2008,0.2008,0.0,0.2008,0.2008,0.2008,0.2008,0.2008,0.2008,0.2008,0.2008,0.2008,0.2008,0.2008,0.2004,0.1952,0.1908,0.1898,0.1917,0.1907,0.1904,0.1895,0.1953,0.2008,0.2008,0.2008,0.2008,0.2008,0.2008,0.2008,0.2008,0.2008,0.1915,0.1575,0.1239,0.0904,0.0567,0.0222,0.0,0.0,0.0,0.0,0.0,0.0,0.0,0.0,0.0,0.0,0.0,0.0,0.0,0.0,0.0,0.0,0.0,0.0,0.0,0.0,0.0,0.0,0.0,0.0,0.0,0.0,0.0,0.0,0.3571,0.3587,0.3587,0.3587,0.3587,0.3433,0.0,0.2661,0.2541,0.192,0.1801,0.1795,0.1795,0.1795,0.1805,0.1807,0.1866,0.1937,0.1999,0.2059,0.0,0.0,0.0,0.0,0.211,0.217,0.2188,0.2188,0.2188,0.0,0.2111,0.2113,0.2082,0.1989,0.1987,0.2005,0.2008,0.2008,0.2008,0.2008,0.2008,0.2008,0.2008,0.2008,0.2008,0.2008,0.2008,0.2008,0.0,0.2008,0.2008,0.2008,0.2008,0.2008,0.2008,0.2008,0.2008,0.2008,0.2008,0.2008,0.2008,0.2007,0.1956,0.1906,0.1967,0.1954,0.1901,0.1901,0.1953,0.2008,0.2008,0.2008,0.2008,0.2008,0.2008,0.2008,0.2008,0.2008,0.1915,0.1575,0.1219,0.0884,0.0569,0.0224,0.0,0.0,0.0,0.0,0.0,0.0,0.0,0.0,0.0,0.0,0.0,0.0,0.0,0.0,0.0,0.0,0.0,0.0,0.0,0.0,0.0,0.0,0.0,0.0,0.0,0.0,0.0,0.0,0.3538,0.3557,0.3536,0.3576,0.3418,0.3153,0.269,0.2467,0.2261,0.1866,0.1801,0.1795,0.1795,0.1795,0.1812,0.1863,0.1879,0.0,0.0,0.0,0.0,0.0,0.0,0.0,0.0,0.0,0.2188,0.2188,0.2188,0.2165,0.2114,0.2102,0.2082,0.1988,0.2,0.1986,0.2008,0.2008,0.2008,0.2008,0.2008,0.2008,0.2008,0.2008,0.2008,0.2008,0.2008,0.2008,0.2008,0.2008,0.2008,0.2008,0.2008,0.2008,0.2008,0.2008,0.2008,0.2008,0.2008,0.2008,0.2008,0.2008,0.2001,0.1964,0.2005,0.1955,0.1905,0.1956,0.1969,0.2008,0.2008,0.2008,0.2008,0.2008,0.2008,0.2008,0.2008,0.2008,0.1822,0.1266,0.1085,0.0814,0.0256,0.0064,0.0,0.0,0.0,0.0,0.0,0.0,0.0,0.0,0.0,0.0,0.0,0.0,0.0,0.0,0.0,0.0,0.0,0.0,0.0,0.0,0.0,0.0,0.0,0.0,0.0,0.0,0.0,0.0,0.0,0.3542,0.3512,0.3437,0.325,0.299,0.2546,0.231,0.2125,0.1854,0.181,0.1795,0.1795,0.1804,0.1825,0.1862,0.1879,0.0,0.0,0.0,0.0,0.0,0.0,0.0,0.0,0.2181,0.2188,0.2188,0.2178,0.2149,0.2099,0.2085,0.2033,0.2003,0.1986,0.2008,0.2008,0.2008,0.2008,0.2008,0.2008,0.2008,0.2008,0.2008,0.2008,0.2008,0.2008,0.2008,0.0,0.2008,0.2008,0.2008,0.2008,0.2008,0.2008,0.2008,0.2008,0.2008,0.2008,0.2008,0.2008,0.2008,0.2008,0.2008,0.2008,0.1963,0.1952,0.2002,0.2008,0.2008,0.2008,0.2008,0.2008,0.2008,0.2008,0.2008,0.2008,0.1985,0.1803,0.1144,0.0997,0.079,0.0129,0.0,0.0,0.0,0.0,0.0,0.0,0.0,0.0,0.0,0.0,0.0,0.0,0.0,0.0,0.0,0.0,0.0,0.0,0.0,0.0,0.0,0.0,0.0,0.0,0.0,0.0,0.0,0.0,0.0,0.0,0.3501,0.3491,0.3159,0.3051,0.2886,0.2328,0.2188,0.0,0.1851,0.1795,0.1795,0.1797,0.1793,0.1812,0.1814,0.0,0.0,0.0,0.0,0.0,0.0,0.0,0.0,0.2112,0.217,0.2185,0.2185,0.2123,0.2093,0.2094,0.2034,0.2005,0.2008,0.2008,0.2008,0.2008,0.2008,0.2008,0.2008,0.2008,0.2008,0.2008,0.2008,0.2008,0.0,0.2008,0.2008,0.2008,0.2008,0.2008,0.2008,0.2008,0.2008,0.2008,0.2008,0.2008,0.2008,0.2008,0.2008,0.2008,0.2008,0.2008,0.2008,0.2008,0.2008,0.2008,0.2008,0.2008,0.2008,0.2008,0.2008,0.2008,0.2008,0.2008,0.2008,0.2008,0.1999,0.179,0.1115,0.1011,0.0773,0.0129,0.0,0.0,0.0,0.0,0.0,0.0,0.0,0.0,0.0,0.0,0.0,0.0,0.0,0.0,0.0,0.0,0.0,0.0,0.0,0.0,0.0,0.0,0.0,0.0,0.0,0.0,0.0,0.0,0.0,0.275,0.0,0.3085,0.2796,0.2555,0.2383,0.0,0.2048,0.1879,0.0,0.0,0.0,0.1797,0.1807,0.0,0.0,0.0,0.0,0.0,0.0,0.0,0.0,0.2173,0.2177,0.2177,0.2129,0.212,0.212,0.2125,0.2093,0.2031,0.2022,0.2005,0.2008,0.2008,0.2008,0.2008,0.2008,0.2008,0.2008,0.2008,0.2008,0.2008,0.2008,0.2008,0.2008,0.2008,0.2008,0.2008,0.2008,0.2008,0.2008,0.2008,0.2008,0.2008,0.2008,0.2008,0.2008,0.2008,0.2008,0.2008,0.2008,0.2008,0.2008,0.2008,0.2008,0.2008,0.2008,0.2008,0.2008,0.2008,0.2008,0.2008,0.2008,0.2008,0.2008,0.2008,0.1999,0.179,0.1115,0.1003,0.0794,0.0127,0.0,0.0,0.0,0.0,0.0,0.0,0.0,0.0,0.0,0.0,0.0,0.0,0.0,0.0,0.0,0.0,0.0,0.0,0.0,0.0,0.0,0.0,0.0,0.0,0.0,0.0,0.0,0.0,0.0,0.2339,0.255,0.2757,0.2483,0.23,0.216,0.2048,0.0,0.0,0.0,0.0,0.0,0.0,0.0,0.0,0.0,0.0,0.0,0.0,0.0,0.0,0.0,0.2167,0.2162,0.0,0.2131,0.2089,0.2089,0.2061,0.2036,0.1988,0.2006,0.1992,0.2008,0.2008,0.2008,0.2008,0.2008,0.2008,0.2008,0.2008,0.2008,0.2008,0.2008,0.2008,0.2008,0.199,0.1988,0.2008,0.199,0.1988,0.2008,0.2008,0.2008,0.2008,0.2008,0.2008,0.2008,0.2008,0.2008,0.2008,0.2008,0.2008,0.2008,0.2008,0.2008,0.2008,0.2008,0.2008,0.2008,0.2008,0.2008,0.2008,0.2008,0.2008,0.2008,0.2008,0.2009,0.1837,0.1147,0.1011,0.0836,0.0128,0.0,0.0,0.0,0.0,0.0,0.0,0.0,0.0,0.0,0.0,0.0,0.0,0.0,0.0,0.0,0.0,0.0,0.0,0.0,0.0,0.0,0.0,0.0,0.0,0.0,0.0,0.0,0.0,0.0,0.2059,0.2203,0.2395,0.2172,0.2121,0.2066,0.1837,0.0,0.0,0.0,0.0,0.0,0.0,0.0,0.0,0.0,0.0,0.0,0.0,0.0,0.0,0.0,0.2105,0.0,0.2098,0.2092,0.2089,0.2089,0.2029,0.2012,0.2012,0.199,0.2008,0.2008,0.2008,0.2008,0.2008,0.2008,0.2008,0.2008,0.2008,0.2008,0.2008,0.2008,0.2008,0.2009,0.2006,0.0,0.201,0.2007,0.2002,0.2008,0.2008,0.2008,0.2008,0.2008,0.2008,0.2008,0.2008,0.2008,0.2008,0.2008,0.2008,0.2008,0.2008,0.2008,0.2008,0.2008,0.2008,0.2008,0.2008,0.2008,0.2008,0.2008,0.2008,0.2008,0.2013,0.2053,0.1883,0.1214,0.1087,0.0883,0.0194,0.0033,0.0,0.0,0.0,0.0,0.0,0.0,0.0,0.0,0.0,0.0,0.0,0.0,0.0,0.0,0.0,0.0,0.0,0.0,0.0,0.0,0.0,0.0,0.0,0.0,0.0,0.0,0.0,0.0,0.1727,0.1741,0.1839,0.1787,0.1824,0.1832,0.1751,0.0,0.0,0.0,0.0,0.0,0.0,0.0,0.0,0.0,0.0,0.0,0.0,0.0,0.0,0.2106,0.0,0.2102,0.2096,0.204,0.2025,0.2025,0.1999,0.2014,0.2014,0.201,0.2008,0.2008,0.2008,0.2008,0.2008,0.2008,0.2008,0.2008,0.2008,0.2008,0.2008,0.2008,0.2008,0.2009,0.0,0.2003,0.201,0.2007,0.2002,0.2008,0.2008,0.2008,0.2008,0.2008,0.2008,0.2008,0.2008,0.2008,0.2008,0.2008,0.2008,0.2008,0.2008,0.2008,0.2008,0.2008,0.2008,0.2008,0.2008,0.2008,0.2008,0.2008,0.2008,0.2014,0.2007,0.2019,0.1896,0.151,0.1213,0.0902,0.0476,0.0194,0.0,0.0,0.0,0.0,0.0,0.0,0.0,0.0,0.0,0.0,0.0,0.0,0.0,0.0,0.0,0.0,0.0,0.0,0.0,0.0,0.0,0.0,0.0,0.0,0.0,0.0,0.0,0.0,0.1654,0.1661,0.1704,0.1691,0.1745,0.1798,0.1757,0.0,0.0,0.0,0.0,0.0,0.0,0.0,0.0,0.0,0.0,0.0,0.2033,0.2039,0.2045,0.0,0.0,0.2033,0.205,0.2004,0.1996,0.1996,0.2015,0.2008,0.2008,0.2008,0.2008,0.2008,0.2008,0.2008,0.2008,0.2008,0.2008,0.2008,0.2008,0.2008,0.2008,0.2008,0.1985,0.2,0.0,0.2011,0.2001,0.2013,0.2002,0.2008,0.2008,0.2008,0.2008,0.2008,0.2008,0.2008,0.2008,0.2008,0.2008,0.2008,0.2008,0.2008,0.2008,0.2008,0.2008,0.2008,0.2008,0.2008,0.2008,0.2008,0.2008,0.2008,0.2008,0.2015,0.2012,0.1987,0.1892,0.1576,0.122,0.0909,0.0545,0.0229,0.0,0.0,0.0,0.0,0.0,0.0,0.0,0.0,0.0,0.0,0.0,0.0,0.0,0.0,0.0,0.0,0.0,0.0,0.0,0.0,0.0,0.0,0.0,0.0,0.0,0.0,0.0,0.0,0.1635,0.1641,0.1691,0.1732,0.0,0.1776,0.1782,0.0,0.0,0.0,0.0,0.0,0.0,0.0,0.0,0.0,0.0,0.1994,0.2016,0.1987,0.1987,0.1987,0.2012,0.2001,0.201,0.2008,0.2008,0.2008,0.2008,0.2008,0.2008,0.2008,0.2008,0.2008,0.2008,0.2008,0.2008,0.2008,0.2008,0.2008,0.2008,0.2008,0.2008,0.2008,0.1988,0.2009,0.2016,0.2015,0.2009,0.2016,0.2002,0.2008,0.2008,0.2008,0.2008,0.2008,0.2008,0.2008,0.2008,0.2008,0.2008,0.2008,0.2008,0.2008,0.2008,0.2008,0.2008,0.2008,0.2008,0.2008,0.2008,0.2008,0.2008,0.2008,0.2008,0.2017,0.2022,0.2018,0.192,0.1686,0.1294,0.0916,0.065,0.0265,0.0,0.0,0.0,0.0,0.0,0.0,0.0,0.0,0.0,0.0,0.0,0.0,0.0,0.0,0.0,0.0,0.0,0.0,0.0,0.0,0.0,0.0,0.0,0.0,0.0,0.0,0.0,0.0,0.158,0.1641,0.1728,0.1784,0.0,0.0,0.1774,0.0,0.0,0.0,0.0,0.0,0.0,0.0,0.0,0.0,0.0,0.1985,0.1987,0.0,0.1987,0.1987,0.1995,0.201,0.2008,0.2008,0.2008,0.2008,0.2008,0.2008,0.2008,0.2008,0.2008,0.2008,0.2008,0.2008,0.2008,0.2008,0.2008,0.2008,0.2008,0.2008,0.2008,0.2008,0.2008,0.2012,0.2007,0.2004,0.2012,0.2007,0.2002,0.2008,0.2008,0.2008,0.2008,0.2008,0.2008,0.2008,0.2008,0.2008,0.2008,0.2008,0.2008,0.2008,0.2008,0.2008,0.2008,0.2008,0.2008,0.2008,0.2008,0.2008,0.2008,0.2008,0.2008,0.2023,0.208,0.2049,0.2004,0.2054,0.1497,0.1005,0.0952,0.0433,0.0,0.0,0.0,0.0,0.0,0.0,0.0,0.0,0.0,0.0,0.0,0.0,0.0,0.0,0.0,0.0,0.0,0.0,0.0,0.0,0.0,0.0,0.0,0.0,0.0,0.0,0.0,0.0,0.1532,0.1588,0.1643,0.1711,0.0,0.0,0.0,0.0,0.0,0.0,0.0,0.0,0.0,0.0,0.0,0.0,0.1966,0.1992,0.1992,0.1992,0.1992,0.1992,0.2014,0.2008,0.2008,0.2008,0.2008,0.2008,0.2008,0.2008,0.2008,0.2008,0.2008,0.2008,0.2008,0.2008,0.2008,0.2008,0.2008,0.2008,0.2008,0.2008,0.2008,0.2008,0.1986,0.2003,0.1995,0.1996,0.2002,0.1995,0.1986,0.2008,0.2008,0.2008,0.2008,0.2008,0.2008,0.2008,0.2008,0.2008,0.2008,0.2008,0.2008,0.2008,0.2008,0.2008,0.2008,0.2008,0.2008,0.2008,0.2008,0.2008,0.2008,0.2008,0.2008,0.2019,0.2027,0.2005,0.2028,0.21,0.1489,0.1004,0.0986,0.0433,0.0,0.0,0.0,0.0,0.0,0.0,0.0,0.0,0.0,0.0,0.0,0.0,0.0,0.0,0.0,0.0,0.0,0.0,0.0,0.0,0.0,0.0,0.0,0.0,0.0,0.0,0.0,0.0,0.1492,0.1546,0.1626,0.0,0.0,0.0,0.0,0.0,0.0,0.0,0.0,0.0,0.0,0.0,0.0,0.0,0.1956,0.2008,0.2008,0.2008,0.2008,0.2008,0.2008,0.2008,0.2008,0.2008,0.2008,0.2008,0.2008,0.2008,0.2008,0.2008,0.2008,0.2008,0.2008,0.2008,0.2008,0.2008,0.2008,0.2008,0.2008,0.2008,0.2008,0.2008,0.1987,0.2004,0.1985,0.1988,0.2004,0.1984,0.2008,0.2008,0.2008,0.2008,0.2008,0.2008,0.2008,0.2008,0.2008,0.2008,0.2008,0.2008,0.2008,0.2008,0.2008,0.2008,0.2008,0.2008,0.2008,0.2008,0.2008,0.2008,0.2008,0.2008,0.2008,0.2018,0.2024,0.2003,0.2031,0.211,0.1525,0.1006,0.1025,0.0468,0.0,0.0,0.0,0.0,0.0,0.0,0.0,0.0,0.0,0.0,0.0,0.0,0.0,0.0,0.0,0.0,0.0,0.0,0.0,0.0,0.0,0.0,0.0,0.0,0.0,0.0,0.0,0.0,0.1486,0.1546,0.1605,0.0,0.0,0.0,0.0,0.0,0.0,0.0,0.0,0.0,0.0,0.0,0.0,0.1896,0.1956,0.2008,0.2008,0.2008,0.2008,0.2008,0.2008,0.2008,0.2007,0.2007,0.2007,0.2007,0.2007,0.2007,0.2007,0.2007,0.2007,0.2008,0.2008,0.2008,0.2008,0.2008,0.2008,0.2008,0.2008,0.2008,0.2008,0.2008,0.2008,0.2008,0.2008,0.2008,0.2008,0.2008,0.2008,0.2008,0.2008,0.2008,0.2008,0.2008,0.2008,0.2008,0.2008,0.2008,0.2008,0.2008,0.2008,0.2008,0.2008,0.2008,0.2008,0.2008,0.2008,0.2008,0.2008,0.2008,0.2008,0.2008,0.2008,0.2024,0.2082,0.2049,0.2044,0.2164,0.1545,0.1009,0.1072,0.0505,0.0,0.0,0.0,0.0,0.0,0.0,0.0,0.0,0.0,0.0,0.0,0.0,0.0,0.0,0.0,0.0,0.0,0.0,0.0,0.0,0.0,0.0,0.0,0.0,0.0,0.0,0.0,0.0,0.1498,0.1555,0.0,0.0,0.0,0.0,0.0,0.0,0.0,0.0,0.0,0.0,0.0,0.0,0.0,0.1898,0.1943,0.2008,0.2008,0.2008,0.2008,0.2008,0.2008,0.1968,0.1947,0.1945,0.1936,0.1945,0.1943,0.1922,0.1943,0.1945,0.1954,0.2007,0.2008,0.2008,0.2008,0.2008,0.2008,0.2008,0.2008,0.2008,0.2008,0.2008,0.2008,0.2008,0.2008,0.2008,0.2008,0.2008,0.2008,0.2008,0.2008,0.2008,0.2008,0.2008,0.2008,0.2008,0.2008,0.2008,0.2008,0.2008,0.2008,0.2008,0.2008,0.2008,0.2008,0.2008,0.2008,0.2008,0.2008,0.2008,0.2008,0.2008,0.1992,0.2005,0.2035,0.2005,0.2023,0.2112,0.1524,0.1009,0.1072,0.0505,0.0,0.0,0.0,0.0,0.0,0.0,0.0,0.0,0.0,0.0,0.0,0.0,0.0,0.0,0.0,0.0,0.0,0.0,0.0,0.0,0.0,0.0,0.0,0.0,0.0,0.0,0.0,0.0,0.1538,0.0,0.0,0.0,0.0,0.0,0.0,0.0,0.0,0.0,0.0,0.0,0.0,0.0,0.0,0.1883,0.1947,0.1971,0.1971,0.1971,0.1945,0.1957,0.1958,0.1952,0.1903,0.1901,0.1889,0.1888,0.1886,0.1894,0.1912,0.1894,0.1909,0.1958,0.2001,0.2008,0.2008,0.2008,0.2008,0.2008,0.2008,0.2008,0.2008,0.2008,0.2008,0.2008,0.2008,0.2008,0.2008,0.2008,0.2008,0.2008,0.2008,0.2008,0.2008,0.2008,0.2008,0.2008,0.2008,0.2008,0.2008,0.2008,0.2008,0.2008,0.2008,0.2008,0.2008,0.2008,0.2008,0.2008,0.2008,0.2008,0.2008,0.2008,0.199,0.2003,0.2041,0.2015,0.2035,0.2122,0.1534,0.1016,0.1073,0.0505,0.0,0.0,0.0,0.0,0.0,0.0,0.0,0.0,0.0,0.0,0.0,0.0,0.0,0.0,0.0,0.0,0.0,0.0,0.0,0.0,0.0,0.0,0.0,0.0,0.0,0.0,0.0,0.0,0.158,0.0,0.0,0.0,0.0,0.0,0.0,0.0,0.0,0.0,0.0,0.0,0.0,0.181,0.182,0.1877,0.1884,0.1886,0.1886,0.1886,0.1896,0.1894,0.1897,0.1896,0.1893,0.1893,0.188,0.188,0.1877,0.1879,0.1881,0.1878,0.1896,0.1901,0.1958,0.2005,0.2008,0.2008,0.2008,0.2008,0.2008,0.2008,0.2008,0.2008,0.2008,0.2008,0.2008,0.2008,0.2008,0.2008,0.2008,0.2008,0.2008,0.2008,0.2008,0.2008,0.2008,0.2008,0.2008,0.2008,0.2008,0.2008,0.2008,0.2008,0.2008,0.2008,0.2008,0.2008,0.2008,0.2008,0.2008,0.2008,0.2008,0.2008,0.201,0.2026,0.2077,0.2036,0.2043,0.2159,0.1558,0.1057,0.1072,0.0504,0.0034,0.0,0.0,0.0,0.0,0.0,0.0,0.0,0.0,0.0,0.0,0.0,0.0,0.0,0.0,0.0,0.0,0.0,0.0,0.0,0.0,0.0,0.0,0.0,0.0,0.0,0.0,0.0,0.0,0.1623,0.0,0.0,0.0,0.0,0.0,0.0,0.0,0.0,0.0,0.0,0.0,0.1796,0.1814,0.182,0.187,0.1886,0.1886,0.1886,0.1888,0.1895,0.1896,0.1886,0.1833,0.1831,0.1818,0.1817,0.1814,0.1825,0.182,0.1827,0.1853,0.19,0.1907,0.1952,0.2007,0.2008,0.2008,0.2008,0.2008,0.2008,0.2008,0.2008,0.2008,0.2008,0.2008,0.2008,0.2008,0.2008,0.2008,0.2008,0.2008,0.2008,0.2008,0.2008,0.2008,0.2008,0.2008,0.2008,0.2008,0.2008,0.2008,0.2008,0.2008,0.2008,0.2008,0.2008,0.2008,0.2008,0.2008,0.2008,0.2008,0.2008,0.1993,0.2007,0.2028,0.2007,0.2024,0.2044,0.1675,0.1302,0.1057,0.0668,0.0303,0.0034,0.0,0.0,0.0,0.0,0.0,0.0,0.0,0.0,0.0,0.0,0.0,0.0,0.0,0.0,0.0,0.0,0.0,0.0,0.0,0.0,0.0,0.0,0.0,0.0,0.0,0.0,0.0,0.0,0.0,0.0,0.0,0.0,0.0,0.0,0.0,0.0,0.0,0.0,0.1795,0.1808,0.179,0.179,0.1832,0.1842,0.1842,0.1842,0.1848,0.1862,0.1864,0.1828,0.1813,0.1812,0.1799,0.1797,0.1795,0.1802,0.179,0.1804,0.1832,0.1908,0.1894,0.1946,0.2007,0.2008,0.2008,0.2008,0.2008,0.2008,0.2008,0.2008,0.2008,0.2008,0.2008,0.2008,0.2008,0.2008,0.2008,0.2008,0.2008,0.2008,0.2008,0.2008,0.2008,0.2008,0.2008,0.2008,0.2008,0.2008,0.2008,0.2008,0.2008,0.2008,0.2008,0.2008,0.2008,0.2008,0.2008,0.2008,0.2008,0.2008,0.1988,0.1998,0.1996,0.2008,0.1996,0.2056,0.1783,0.144,0.1096,0.0603,0.0202,0.0034,0.0,0.0,0.0,0.0,0.0,0.0,0.0,0.0,0.0,0.0,0.0,0.0,0.0,0.0,0.0,0.0,0.0,0.0,0.0,0.0,0.0,0.0,0.0,0.0,0.0,0.0401,0.0,0.0,0.0,0.0,0.0,0.0,0.0,0.0,0.0,0.0,0.0,0.1795,0.1795,0.1795,0.1795,0.1795,0.1795,0.1795,0.1795,0.1795,0.1804,0.1801,0.1804,0.1804,0.1804,0.1804,0.1794,0.1797,0.1795,0.1795,0.1795,0.179,0.1818,0.1877,0.1873,0.193,0.1991,0.1992,0.1992,0.1992,0.1997,0.2002,0.2008,0.2008,0.2008,0.2008,0.2008,0.2008,0.2008,0.2008,0.2008,0.2008,0.2008,0.2008,0.2008,0.2008,0.2008,0.2008,0.2008,0.2008,0.2008,0.2008,0.2008,0.2008,0.2008,0.2008,0.2008,0.2008,0.2008,0.2008,0.2008,0.2008,0.2008,0.2008,0.2008,0.2014,0.2006,0.2011,0.2027,0.2082,0.1773,0.1424,0.1142,0.0505,0.0,0.0,0.0,0.0,0.0,0.0,0.0,0.0,0.0,0.0,0.0,0.0,0.0,0.0,0.0,0.0,0.0,0.0,0.0,0.0,0.0,0.0146,0.0401,0.0401,0.0547,0.0802,0.0802,0.1494,0.0,0.0,0.0,0.0,0.0,0.0,0.0,0.0,0.0,0.0,0.1795,0.1795,0.1795,0.1795,0.1795,0.1795,0.1795,0.1795,0.1795,0.1795,0.1796,0.18,0.1801,0.1801,0.1801,0.1801,0.18,0.1795,0.1795,0.1795,0.1795,0.1799,0.1814,0.1817,0.1822,0.1838,0.1927,0.1927,0.1927,0.1898,0.1924,0.1951,0.2008,0.2008,0.2008,0.2008,0.2008,0.2008,0.2008,0.2008,0.2008,0.2008,0.2008,0.2008,0.2008,0.2008,0.2008,0.2008,0.2008,0.2008,0.2008,0.2008,0.2008,0.2008,0.2008,0.2008,0.2008,0.2008,0.2008,0.2008,0.2008,0.2008,0.2008,0.2008,0.2008,0.2008,0.2012,0.2013,0.1992,0.2024,0.1522,0.1092,0.1108,0.0505,0.0,0.0,0.0,0.0,0.0,0.0,0.0,0.0,0.0,0.0,0.0,0.0,0.0,0.0,0.0,0.0,0.0,0.0,0.0,0.0,0.0,0.0656,0.2002,0.2002,0.2694,0.4075,0.4075,0.4184,0.149,0.0,0.0,0.0,0.0,0.0,0.0,0.0,0.0,0.0,0.1795,0.1795,0.1795,0.1795,0.1795,0.1795,0.1795,0.1795,0.1795,0.1795,0.1795,0.1795,0.1795,0.1795,0.1795,0.1795,0.1795,0.1795,0.1795,0.1795,0.1795,0.1795,0.1809,0.181,0.1812,0.1826,0.1885,0.1886,0.1886,0.1886,0.1899,0.1922,0.1951,0.1951,0.196,0.2008,0.2008,0.2008,0.2008,0.2008,0.2008,0.2008,0.2008,0.2008,0.2008,0.2008,0.2008,0.2008,0.2008,0.2008,0.2008,0.2008,0.2008,0.2008,0.2008,0.2008,0.2008,0.2008,0.2008,0.2008,0.2008,0.2008,0.2008,0.2008,0.2008,0.2008,0.2008,0.1989,0.2014,0.2061,0.147,0.1026,0.1074,0.0505,0.0,0.0,0.0,0.0,0.0,0.0,0.0,0.0,0.0,0.0,0.0,0.0,0.0,0.0,0.0,0.0,0.0,0.0,0.0,0.0,0.0,0.076,0.2293,0.2312,0.3143,0.4693,0.4693,0.5165,0.0,0.0,0.0,0.0,0.0,0.0,0.0,0.0,0.0,0.0,0.1795,0.1795,0.1795,0.1795,0.1795,0.1795,0.1795,0.1795,0.1795,0.1795,0.1795,0.1795,0.1795,0.1795,0.1795,0.1795,0.1795,0.1795,0.1795,0.1795,0.1795,0.1795,0.1806,0.18,0.18,0.1811,0.1862,0.1863,0.1866,0.1874,0.1874,0.189,0.1889,0.1889,0.1932,0.1985,0.2001,0.2008,0.2008,0.2008,0.2008,0.2008,0.2008,0.2008,0.2008,0.2008,0.2008,0.2008,0.2008,0.2008,0.2008,0.2008,0.2008,0.2008,0.2008,0.2008,0.2008,0.2008,0.2008,0.2008,0.2008,0.2008,0.2008,0.2008,0.2008,0.2008,0.2008,0.1999,0.2,0.1948,0.1443,0.0992,0.0969,0.0436,0.0,0.0,0.0,0.0,0.0,0.0,0.0,0.0,0.0,0.0,0.0,0.0,0.0,0.0,0.0,0.0,0.0,0.0343,0.052,0.0531,0.0923,0.172,0.2911,0.3314,0.4323,0.5855,0.5855,0.6471,0.0,0.0,0.0,0.0,0.0,0.0,0.0,0.0,0.0,0.0,0.1795,0.1795,0.1795,0.1795,0.1795,0.1795,0.1795,0.1795,0.1795,0.1795,0.1795,0.1795,0.1795,0.1795,0.1795,0.1795,0.1795,0.1795,0.1795,0.1795,0.1795,0.1795,0.1795,0.1797,0.1797,0.1798,0.18,0.18,0.1814,0.1814,0.1814,0.1829,0.1888,0.1888,0.1889,0.1923,0.1982,0.2008,0.2008,0.2008,0.2008,0.2008,0.2008,0.2008,0.2008,0.2008,0.2008,0.2008,0.2008,0.2008,0.2008,0.2008,0.2008,0.2008,0.2008,0.2008,0.2008,0.2008,0.2008,0.2008,0.2008,0.2008,0.2008,0.2008,0.2008,0.2008,0.2008,0.1999,0.1893,0.158,0.1228,0.089,0.0594,0.0233,0.0,0.0,0.0,0.0,0.0,0.0,0.0,0.0,0.0,0.0,0.0,0.0,0.0,0.0,0.0,0.0,0.0,0.1296,0.1992,0.1995,0.348,0.4361,0.4584,0.6031,0.7553,0.9049,0.9049,0.9085,0.0,0.0,0.0,0.0,0.0,0.0,0.0,0.0,0.3909,0.3909,0.4024,0.4109,0.4109,0.2856,0.1795,0.1795,0.1795,0.1795,0.1795,0.1795,0.1795,0.1795,0.1795,0.1795,0.1795,0.1795,0.1795,0.1795,0.1795,0.1795,0.1795,0.1795,0.1795,0.1795,0.1795,0.1795,0.1795,0.1795,0.18,0.1811,0.1811,0.1827,0.1828,0.1828,0.1867,0.1887,0.1938,0.193,0.1947,0.1947,0.1959,0.2008,0.2008,0.2008,0.2008,0.2008,0.2008,0.2008,0.2008,0.2008,0.2008,0.2008,0.2008,0.2008,0.2008,0.2008,0.2008,0.2008,0.2008,0.2008,0.2008,0.2008,0.2008,0.2008,0.2008,0.2008,0.2008,0.1984,0.1909,0.1626,0.1249,0.0903,0.0558,0.0232,0.0,0.0,0.0,0.0,0.0,0.0,0.0,0.0,0.0,0.0,0.0,0.0,0.0,0.0,0.0,0.0,0.0,0.0473,0.1191,0.2093,0.3685,0.4979,0.5919,0.665,0.7755,0.916,0.9269,0.9304,0.4129,0.0,0.0,0.0,0.0,0.0,0.0,0.0,0.5034,0.5091,0.5171,0.5254,0.5285,0.3993,0.2811,0.2464,0.2074,0.1795,0.1795,0.1795,0.1795,0.1795,0.1795,0.1795,0.1795,0.1795,0.1795,0.1795,0.1795,0.0,0.1795,0.1795,0.1795,0.1795,0.1795,0.1795,0.1795,0.1795,0.1795,0.1795,0.1795,0.1806,0.1796,0.1796,0.1836,0.1855,0.1866,0.1888,0.1886,0.1886,0.1928,0.1976,0.1976,0.1952,0.1961,0.1961,0.1968,0.2008,0.2008,0.2008,0.2008,0.2008,0.2008,0.2008,0.2008,0.2008,0.2008,0.2008,0.2008,0.2008,0.2008,0.2008,0.2008,0.2008,0.2008,0.2008,0.2008,0.1915,0.1739,0.1457,0.1077,0.0732,0.0391,0.0131,0.0,0.0,0.0,0.0,0.0,0.0,0.0,0.0,0.0,0.0,0.0,0.0,0.0,0.0,0.0437,0.0505,0.0034,0.1378,0.2362,0.2827,0.4886,0.6383,0.7271,0.751,0.8131,0.91,0.9176,0.9029,0.0,0.0,0.0,0.0,0.0,0.0,0.0,0.0,0.5035,0.5183,0.5101,0.5041,0.5187,0.5176,0.482,0.3846,0.2688,0.1907,0.1907,0.1907,0.1907,0.1907,0.1879,0.1851,0.1851,0.1823,0.1795,0.1795,0.1795,0.1823,0.1823,0.1823,0.1823,0.1767,0.1767,0.1767,0.1767,0.1767,0.1767,0.1767,0.1795,0.1795,0.1795,0.1795,0.1795,0.1797,0.1798,0.1826,0.1883,0.1885,0.1887,0.1887,0.1886,0.1904,0.19,0.19,0.1949,0.2005,0.2005,0.2006,0.2006,0.2006,0.2007,0.2008,0.2008,0.2008,0.2008,0.2008,0.2008,0.2008,0.2008,0.2008,0.2008,0.2008,0.2008,0.2008,0.2008,0.1729,0.139,0.105,0.0719,0.0381,0.0064,0.0,0.0,0.0,0.0,0.0,0.0,0.0,0.0,0.0,0.0,0.0,0.0067,0.0067,0.0067,0.0067,0.1378,0.1546,0.0135,0.4128,0.5737,0.4427,0.7274,0.8673,0.8554,0.8797,0.8976,0.9087,0.9092,0.8485,0.5965,0.0,0.0,0.0,0.0,0.0,0.0,0.0,0.0,0.751,0.7456,0.7435,0.766,0.6923,0.6207,0.6016,0.5099,0.4416,0.4416,0.4416,0.4416,0.4416,0.3636,0.3107,0.3107,0.2325,0.1795,0.0,0.1795,0.2075,0.2718,0.2549,0.2045,0.1177,0.1149,0.1149,0.1149,0.1149,0.1149,0.1149,0.1346,0.143,0.1458,0.1683,0.1795,0.1795,0.1804,0.1812,0.1823,0.1868,0.1898,0.1887,0.1894,0.1891,0.1898,0.1898,0.1904,0.194,0.194,0.1925,0.1914,0.1914,0.1959,0.2008,0.2008,0.2008,0.2008,0.2008,0.2008,0.2008,0.2008,0.2008,0.2008,0.2008,0.2008,0.2008,0.2008,0.1544,0.1111,0.1019,0.0743,0.0406,0.0063,0.0,0.0,0.0,0.0,0.0,0.0,0.0,0.0,0.0,0.0,0.0404,0.1446,0.1513,0.1513,0.1513,0.312,0.3421,0.2015,0.4057,0.5663,0.66,0.7201,0.7608,0.7817,0.8829,0.9302,0.9214,0.8534,0.7487,0.0,0.0,0.0,0.0,0.0,0.0,0.7841,0.7902,0.0,0.0,0.8396,0.8386,0.8655,0.807,0.7559,0.7636,0.7207,0.6531,0.5528,0.5389,0.5389,0.5389,0.4777,0.436,0.436,0.372,0.3301,0.3301,0.3301,0.3526,0.4029,0.3301,0.2547,0.1848,0.1233,0.0897,0.0897,0.0897,0.0897,0.0897,0.1065,0.1121,0.1149,0.1346,0.1486,0.1599,0.161,0.17,0.1817,0.1852,0.187,0.1845,0.1868,0.1874,0.1886,0.1886,0.1894,0.1903,0.189,0.1897,0.1912,0.1912,0.1933,0.1958,0.1958,0.1967,0.2008,0.2008,0.2008,0.2008,0.2008,0.2008,0.2008,0.2008,0.2008,0.1977,0.1822,0.139,0.0988,0.0988,0.0617,0.0217,0.0031,0.0,0.0,0.0,0.0,0.0,0.0,0.0,0.0,0.0,0.0,0.0336,0.1143,0.1748,0.2184,0.2351,0.4459,0.5162,0.389,0.5763,0.7036,0.7503,0.791,0.8282,0.8617,0.9273,0.9265,0.863,0.8122,0.6829,0.0,0.0,0.0,0.0,0.7268,0.0,0.7858,0.7861,0.7929,0.0,0.8345,0.8335,0.8608,0.8645,0.8642,0.8659,0.8747,0.8124,0.6065,0.5772,0.5778,0.5778,0.5667,0.5584,0.5584,0.5472,0.5389,0.5389,0.5472,0.5417,0.525,0.4052,0.3299,0.3159,0.1764,0.1009,0.1009,0.0869,0.0813,0.0813,0.0841,0.0841,0.0841,0.0869,0.1037,0.1263,0.1311,0.1491,0.175,0.175,0.1764,0.1802,0.1798,0.1825,0.188,0.1877,0.1895,0.1887,0.1886,0.1878,0.1881,0.1881,0.1902,0.1896,0.1896,0.1947,0.2003,0.2006,0.2008,0.2008,0.2008,0.2008,0.2008,0.2008,0.1977,0.1853,0.1575,0.1204,0.0957,0.0957,0.0432,0.0,0.0,0.0,0.0,0.0,0.0,0.0,0.0,0.0,0.0,0.0,0.0,0.0067,0.0269,0.1446,0.2318,0.2719,0.5366,0.6437,0.5498,0.7912,0.8751,0.7636,0.8584,0.9322,0.9788,0.9455,0.8677,0.7555,0.7504,0.6153,0.6605,0.6964,0.7219,0.6992,0.0,0.0,0.7536,0.7662,0.7847,0.0,0.7979,0.7994,0.8325,0.8255,0.8186,0.8362,0.8406,0.8325,0.8092,0.8139,0.8211,0.8211,0.7374,0.676,0.676,0.5947,0.5389,0.5389,0.5838,0.559,0.4336,0.4698,0.4503,0.3525,0.2295,0.1624,0.1624,0.0672,0.0168,0.0168,0.0393,0.0505,0.0505,0.0785,0.0925,0.0982,0.0985,0.1155,0.1409,0.1409,0.1559,0.1801,0.1811,0.1794,0.1818,0.1822,0.1832,0.1824,0.1823,0.1829,0.182,0.182,0.187,0.1894,0.1894,0.1916,0.1945,0.2,0.2008,0.2008,0.2008,0.2008,0.2008,0.2008,0.1791,0.1575,0.1513,0.1019,0.0587,0.0587,0.0278,0.0,0.0,0.0,0.0,0.0,0.0,0.0,0.0,0.0,0.0,0.0,0.0,0.0606,0.2051,0.2421,0.2723,0.3093,0.5001,0.6036,0.5802,0.6337,0.7205,0.8371,0.6372,0.5938,0.7136,0.6804,0.6646,0.6629,0.5507,0.4126,0.6706,0.698,0.7149,0.7149,0.0,0.0,0.0,0.7563,0.7678,0.7952,0.7895,0.7926,0.8332,0.8191,0.8067,0.827,0.8355,0.843,0.8479,0.8682,0.8825,0.8902,0.8353,0.7989,0.7989,0.7485,0.7091,0.6949,0.7232,0.6982,0.6035,0.5757,0.5312,0.4723,0.3384,0.2407,0.1819,0.1204,0.0588,0.0,0.014,0.0196,0.0196,0.0364,0.0533,0.0645,0.0645,0.0813,0.1093,0.1093,0.1268,0.1563,0.1777,0.184,0.1812,0.184,0.184,0.1808,0.1806,0.1805,0.179,0.179,0.181,0.1863,0.1863,0.1865,0.1904,0.1949,0.1964,0.2008,0.2008,0.2008,0.2008,0.2008,0.1884,0.1667,0.1328,0.0988,0.071,0.0525,0.037,0.0185,0.0031,0.0,0.0062,0.0216,0.0252,0.032,0.0484,0.0493,0.0501,0.0538,0.0538,0.0909,0.1816,0.2556,0.3093,0.3461,0.5001,0.5969,0.6134,0.6134,0.6566,0.7469,0.5402,0.5001,0.64,0.4832,0.45,0.5334,0.4634,0.353,0.0,0.0,0.0,0.0,0.0,0.729,0.0,0.0,0.0,0.7817,0.781,0.0,0.0,0.0,0.0,0.0,0.0,0.0,0.0,0.8476,0.0,0.8845,0.8892,0.8912,0.8912,0.8854,0.8712,0.8429,0.8346,0.818,0.7851,0.6705,0.6063,0.6063,0.4697,0.3469,0.2491,0.2043,0.1316,0.0336,0.0112,0.0,0.0,0.0,0.0112,0.0336,0.0336,0.0505,0.0813,0.0813,0.0981,0.1265,0.1646,0.1802,0.1822,0.187,0.1865,0.1816,0.1814,0.18,0.1795,0.1795,0.1812,0.1804,0.181,0.1845,0.1885,0.1891,0.1945,0.1968,0.1968,0.2003,0.2008,0.2008,0.1946,0.176,0.1204,0.105,0.0926,0.0648,0.0587,0.0525,0.0247,0.0185,0.0278,0.0556,0.0594,0.0697,0.0962,0.1008,0.1023,0.1071,0.107,0.1103,0.1206,0.2245,0.3047,0.3447,0.4558,0.5434,0.5965,0.6001,0.5865,0.56,0.4466,0.4466,0.56,0.3294,0.2927,0.43,0.4033,0.3295,0.0,0.0,0.0,0.0,0.7428,0.0,0.0,0.0,0.755,0.7488,0.0,0.0,0.0,0.0,0.0,0.0,0.0,0.0,0.826,0.8325,0.8451,0.8703,0.8828,0.8912,0.8912,0.8685,0.8401,0.8072,0.7826,0.7576,0.7293,0.7127,0.7041,0.7041,0.5843,0.5118,0.4979,0.2882,0.1735,0.1595,0.0504,0.0,0.0,0.0,0.0028,0.0056,0.0056,0.0196,0.0449,0.0449,0.0645,0.0982,0.1267,0.1578,0.1878,0.1825,0.1831,0.1877,0.1817,0.179,0.1795,0.1795,0.1797,0.1805,0.1804,0.1816,0.1827,0.1883,0.1913,0.1906,0.1906,0.1956,0.2008,0.2008,0.176,0.1544,0.1451,0.1204,0.0988,0.0957,0.0957,0.0926,0.0895,0.0895,0.0895,0.0926,0.0938,0.0948,0.0981,0.0993,0.1007,0.1022,0.1012,0.114,0.1518,0.1685,0.1916,0.2279,0.2506,0.3194,0.4501,0.4535,0.3964,0.2691,0.2524,0.2524,0.2691,0.2356,0.2927,0.4266,0.3027,0.2357,0.0,0.0,0.0,0.0,0.0,0.0,0.6445,0.0,0.7317,0.0,0.0,0.0,0.0,0.0,0.0,0.0,0.7861,0.0,0.0,0.0,0.8464,0.0,0.0,0.0,0.8556,0.8525,0.8291,0.7798,0.766,0.7493,0.721,0.721,0.721,0.721,0.6707,0.6096,0.5399,0.4392,0.3189,0.1791,0.1288,0.0672,0.0,0.0,0.0,0.0,0.0,0.0056,0.0168,0.0168,0.0336,0.0617,0.0729,0.1103,0.1576,0.1752,0.1808,0.1832,0.1819,0.1806,0.1795,0.1795,0.1795,0.1797,0.181,0.1798,0.1814,0.1826,0.1881,0.1909,0.1896,0.191,0.1954,0.2003,0.1884,0.1729,0.1544,0.139,0.1297,0.1297,0.1297,0.1359,0.1544,0.1266,0.108,0.1266,0.1304,0.1376,0.1544,0.1586,0.1601,0.1624,0.165,0.1713,0.1887,0.1888,0.1953,0.2083,0.2111,0.2436,0.306,0.3095,0.2792,0.2222,0.2188,0.2188,0.2188,0.2188,0.249,0.3061,0.249,0.2188,0.3806,0.0,0.0,0.0,0.0,0.0,0.0,0.0,0.0,0.0,0.0,0.0,0.0,0.0,0.0,0.0,0.0,0.7908,0.0,0.0,0.0,0.0,0.0,0.0,0.0,0.8175,0.7974,0.758,0.7472,0.7376,0.721,0.721,0.721,0.721,0.721,0.6793,0.5901,0.5566,0.4364,0.2295,0.1959,0.1176,0.0,0.0,0.0,0.0,0.0,0.0,0.0,0.0,0.0112,0.0308,0.0364,0.0673,0.1096,0.1543,0.1741,0.1808,0.1808,0.1802,0.1795,0.1795,0.1795,0.1795,0.1795,0.181,0.1799,0.1799,0.1821,0.1879,0.1871,0.1882,0.1926,0.1957,0.1964,0.1905,0.1697,0.1637,0.1637,0.1637,0.1637,0.1729,0.1946,0.1606,0.1359,0.1606,0.1637,0.1736,0.1973,0.2007,0.2018,0.208,0.2077,0.2075,0.2082,0.2083,0.2087,0.2096,0.2084,0.2107,0.2162,0.2171,0.2176,0.2176,0.2184,0.2188,0.2188,0.2188,0.2188,0.2188,0.2188,0.2188,0.0,0.0,0.0,0.4111,0.0,0.0,0.0,0.0,0.7345,0.0,0.0,0.0,0.0,0.0,0.0,0.0,0.0,0.0,0.0,0.0,0.0,0.0,0.0,0.0,0.0,0.7572,0.7284,0.0,0.7178,0.7068,0.7204,0.721,0.721,0.721,0.721,0.7182,0.7154,0.5984,0.4782,0.3525,0.2351,0.1176,0.0,0.0,0.0,0.0,0.0,0.0,0.0,0.0,0.0,0.0028,0.0308,0.0421,0.0506,0.1172,0.1581,0.181,0.181,0.1792,0.1795,0.1795,0.1795,0.1795,0.1795,0.1795,0.1796,0.1796,0.179,0.1813,0.1814,0.1865,0.1895,0.1895,0.1902,0.191,0.197,0.1977,0.1977,0.1977,0.1977,0.1977,0.2008,0.1977,0.1977,0.1977,0.1977,0.1977,0.2009,0.2009,0.1989,0.2017,0.1995,0.199,0.2018,0.1988,0.2033,0.2094,0.2097,0.2098,0.2099,0.2095,0.211,0.211,0.2173,0.2188,0.2188,0.2188,0.2188,0.2188,0.2188,0.2188,0.0,0.0,0.2087,0.2323,0.0,0.0,0.0,0.0,0.0,0.0,0.0,0.0,0.0,0.0,0.0,0.0,0.0,0.0,0.0,0.0,0.0,0.0,0.0,0.0,0.0,0.0,0.0,0.7143,0.7136,0.0,0.721,0.721,0.721,0.721,0.721,0.721,0.721,0.6791,0.559,0.3608,0.3189,0.1931,0.0,0.0,0.0,0.0,0.0,0.0,0.0,0.0,0.0,0.0,0.0112,0.0252,0.0477,0.11,0.1386,0.1499,0.1726,0.1804,0.1795,0.1795,0.1795,0.1795,0.1795,0.1795,0.1795,0.1795,0.1802,0.1786,0.1806,0.1819,0.1834,0.1894,0.1901,0.1909,0.194,0.1947,0.1952,0.2003,0.2008,0.2008,0.2008,0.2008,0.2008,0.2008,0.2008,0.2008,0.2008,0.2008,0.2011,0.199,0.2013,0.2011,0.199,0.1991,0.2003,0.2032,0.2034,0.2043,0.2096,0.2106,0.2089,0.2109,0.2119,0.2168,0.2188,0.2188,0.2188,0.2188,0.2188,0.2188,0.1551,0.1457,0.0,0.142,0.2152,0.0,0.3564,0.0,0.5517,0.0,0.0,0.0,0.0,0.0,0.0,0.0,0.0,0.0,0.0,0.6848,0.0,0.0,0.0,0.0,0.0,0.0,0.7008,0.6939,0.7016,0.0,0.0,0.721,0.721,0.721,0.721,0.721,0.721,0.6765,0.5562,0.3608,0.316,0.1931,0.0,0.0,0.0,0.0,0.0,0.0,0.0,0.0,0.0,0.0,0.0,0.0112,0.0336,0.0925,0.129,0.1514,0.1739,0.1795,0.1795,0.1795,0.1795,0.1795,0.1795,0.1795,0.1795,0.1795,0.1795,0.18,0.1791,0.1796,0.1804,0.1862,0.187,0.1878,0.1909,0.1894,0.1907,0.1956,0.1969,0.2008,0.2008,0.2008,0.2008,0.2008,0.2008,0.2008,0.2008,0.2008,0.2008,0.2008,0.2008,0.2008,0.2008,0.2008,0.2015,0.2003,0.2003,0.2012,0.2064,0.2075,0.2057,0.2076,0.2088,0.2108,0.2172,0.2172,0.2178,0.2188,0.2188,0.2188]},{"header":{"parameterUnit":"m.s-1","parameterCategory":1,"la1":30.6,"la2":29.2853,"lo1":-89.7004,"lo2":-87.6739,"dy":0.0162,"dx":0.0183,"nx":112,"ny":82,"refTime":"2024-08-18T06:00:00:Z","depth":0,"parameterNumber":3,"parameterNumberName":"V-component_of_WINDS"},"data":[0.0,0.0,0.0,0.0,0.0,0.0,0.0,0.0,0.0,0.0,0.0,0.0,0.0,0.0,0.0,0.0,0.0,0.0,0.0,0.0,0.0,0.0,0.0,0.0,0.0,0.0,0.0,0.0,0.0,0.0,0.0,0.0,0.0,0.0,0.0,0.0,0.0,0.0,0.0,0.0,0.0,0.0,0.0,0.0,0.0,0.0,0.0,0.0,0.0,0.0,0.0,0.0,0.0,0.0,0.0,0.0,0.0,0.0,0.0,0.0,0.0,0.0,0.0,0.0,0.0,0.0,0.0,0.0,0.0,0.0,0.0,0.0,0.0,0.0,0.0,0.0,0.0,0.0,0.0,0.0,0.0,0.0,0.0,0.0,0.0,0.0,0.0,0.0,0.0,0.0,4.1873,4.216,4.2744,4.3053,4.2918,4.2241,4.1103,3.9404,0.0,0.0,0.0,0.0,0.0,0.0,0.0,0.0,0.0,0.0,0.0,0.0,0.0,0.0,0.0,0.0,0.0,0.0,0.0,0.0,0.0,0.0,0.0,0.0,0.0,0.0,0.0,0.0,0.0,0.0,0.0,0.0,0.0,0.0,0.0,0.0,0.0,0.0,0.0,0.0,0.0,0.0,0.0,0.0,0.0,0.0,0.0,0.0,0.0,0.0,0.0,0.0,0.0,0.0,0.0,0.0,0.0,0.0,0.0,0.0,0.0,0.0,0.0,0.0,0.0,0.0,0.0,0.0,0.0,0.0,0.0,0.0,0.0,0.0,0.0,0.0,0.0,0.0,0.0,0.0,0.0,0.0,0.0,0.0,0.0,0.0,0.0,0.0,0.0,0.0,0.0,0.0,0.0,0.0,0.0,0.0,0.0,0.0,0.0,0.0,0.0,0.0,0.0,0.0,4.1345,4.2924,4.257,4.1912,4.1238,4.1064,4.0233,3.8505,0.0,0.0,0.0,0.0,0.0,0.0,0.0,0.0,0.0,0.0,0.0,0.0,0.0,0.0,0.0,0.0,0.0,0.0,0.0,0.0,0.0,0.0,0.0,0.0,0.0,0.0,0.0,0.0,0.0,0.0,0.0,0.0,0.0,0.0,0.0,0.0,0.0,0.0,0.0,0.0,0.0,0.0,0.0,0.0,0.0,0.0,0.0,0.0,0.0,0.0,0.0,0.0,0.0,0.0,0.0,0.0,0.0,0.0,0.0,0.0,0.0,0.0,0.0,0.0,0.0,0.0,0.0,0.0,0.0,0.0,0.0,0.0,0.0,0.0,0.0,0.0,0.0,0.0,0.0,0.0,0.0,0.0,0.0,0.0,0.0,0.0,0.0,0.0,0.0,0.0,0.0,0.0,0.0,0.0,0.0,0.0,0.0,0.0,0.0,0.0,0.0,0.0,0.0,4.0535,4.1107,4.3088,4.2425,4.1561,4.0865,4.0797,4.0059,3.8312,3.7345,0.0,0.0,0.0,0.0,0.0,0.0,0.0,0.0,0.0,0.0,0.0,0.0,0.0,0.0,0.0,0.0,0.0,0.0,0.0,0.0,0.0,0.0,0.0,0.0,0.0,0.0,0.0,0.0,0.0,0.0,0.0,0.0,0.0,0.0,0.0,0.0,0.0,0.0,0.0,0.0,0.0,0.0,0.0,0.0,0.0,0.0,0.0,0.0,0.0,0.0,0.0,0.0,0.0,0.0,0.0,0.0,0.0,0.0,0.0,0.0,0.0,0.0,0.0,0.0,0.0,0.0,0.0,0.0,0.0,0.0,0.0,0.0,0.0,0.0,0.0,0.0,0.0,0.0,0.0,0.0,0.0,0.0,0.0,0.0,0.0,0.0,0.0,0.0,0.0,0.0,0.0,0.0,0.0,0.0,0.0,0.0,0.0,0.0,0.0,0.0,0.0,0.0,4.1406,4.1399,4.3,4.2071,4.1178,4.0755,4.0359,3.948,3.798,3.6129,0.0,0.0,0.0,0.0,0.0,0.0,0.0,0.0,0.0,0.0,0.0,0.0,0.0,0.0,0.0,0.0,0.0,0.0,0.0,0.0,0.0,0.0,0.0,0.0,0.0,0.0,0.0,0.0,0.0,0.0,0.0,0.0,0.0,0.0,0.0,0.0,0.0,0.0,0.0,0.0,0.0,0.0,0.0,0.0,0.0,0.0,0.0,0.0,0.0,0.0,0.0,0.0,0.0,0.0,0.0,0.0,0.0,0.0,0.0,0.0,0.0,0.0,0.0,0.0,0.0,0.0,0.0,0.0,0.0,0.0,0.0,0.0,0.0,0.0,0.0,0.0,0.0,0.0,0.0,0.0,0.0,0.0,0.0,0.0,0.0,0.0,0.0,0.0,0.0,0.0,0.0,0.0,0.0,0.0,0.0,0.0,0.0,0.0,0.0,0.0,0.0,0.0,4.1535,4.2574,4.2733,4.128,4.0362,4.0519,3.9034,3.7782,3.7046,3.4654,0.0,0.0,0.0,0.0,0.0,0.0,0.0,0.0,0.0,0.0,0.0,0.0,0.0,0.0,0.0,0.0,0.0,0.0,0.0,0.0,0.0,0.0,0.0,0.0,0.0,0.0,0.0,0.0,0.0,0.0,0.0,0.0,0.0,0.0,0.0,0.0,0.0,0.0,0.0,0.0,0.0,0.0,0.0,0.0,0.0,0.0,0.0,0.0,0.0,0.0,0.0,0.0,0.0,0.0,0.0,0.0,0.0,0.0,0.0,0.0,0.0,0.0,0.0,0.0,0.0,0.0,0.0,0.0,0.0,0.0,0.0,0.0,0.0,0.0,0.0,0.0,0.0,0.0,0.0,0.0,0.0,0.0,0.0,0.0,0.0,0.0,0.0,0.0,0.0,0.0,0.0,0.0,0.0,0.0,0.0,0.0,0.0,0.0,0.0,0.0,0.0,0.0,4.053,4.1404,0.0,4.1095,4.0148,4.0473,3.9404,3.8192,3.6988,0.0,0.0,0.0,0.0,0.0,0.0,0.0,0.0,0.0,0.0,0.0,0.0,0.0,0.0,0.0,0.0,0.0,0.0,0.0,0.0,0.0,0.0,0.0,0.0,0.0,0.0,0.0,0.0,0.0,0.0,0.0,0.0,0.0,0.0,0.0,0.0,0.0,0.0,0.0,0.0,0.0,0.0,0.0,0.0,0.0,0.0,0.0,0.0,0.0,0.0,0.0,0.0,0.0,0.0,0.0,0.0,0.0,0.0,0.0,0.0,0.0,0.0,0.0,0.0,0.0,0.0,0.0,0.0,0.0,0.0,0.0,0.0,0.0,0.0,0.0,0.0,0.0,0.0,0.0,0.0,0.0,0.0,0.0,0.0,0.0,0.0,0.0,0.0,0.0,0.0,0.0,0.0,0.0,0.0,0.0,0.0,0.0,0.0,0.0,0.0,0.0,0.0,3.9582,4.0257,4.1065,0.0,4.0866,3.9932,4.0282,3.9012,3.7678,3.6402,0.0,0.0,0.0,0.0,0.0,0.0,0.0,0.0,0.0,0.0,0.0,0.0,0.0,0.0,0.0,0.0,0.0,0.0,0.0,0.0,0.0,0.0,0.0,0.0,0.0,0.0,0.0,0.0,0.0,0.0,0.0,0.0,0.0,0.0,0.0,0.0,0.0,0.0,0.0,0.0,0.0,0.0,0.0,0.0,0.0,0.0,0.0,0.0,0.0,0.0,0.0,0.0,0.0,0.0,0.0,0.0,0.0,0.0,0.0,0.0,0.0,0.0,0.0,0.0,0.0,0.0,0.0,0.0,0.0,0.0,0.0,0.0,0.0,0.0,0.0,0.0,0.0,0.0,0.0,0.0,0.0,0.0,0.0,0.0,0.0,0.0,0.0,0.0,0.0,0.0,0.0,0.0,0.0,0.0,0.0,0.0,0.0,0.0,0.0,0.0,0.0,0.0,3.9589,4.1004,4.2004,4.2004,4.0553,3.9679,3.9881,3.7573,3.5809,0.0,0.0,0.0,0.0,0.0,0.0,0.0,0.0,0.0,0.0,0.0,0.0,0.0,0.0,0.0,0.0,0.0,0.0,0.0,0.0,0.0,0.0,0.0,0.0,0.0,0.0,0.0,0.0,0.0,0.0,0.0,0.0,0.0,0.0,0.0,0.0,0.0,0.0,0.0,0.0,0.0,0.0,0.0,0.0,0.0,0.0,0.0,0.0,0.0,0.0,0.0,0.0,0.0,0.0,0.0,0.0,0.0,0.0,0.0,0.0,0.0,0.0,0.0,0.0,0.0,0.0,0.0,0.0,0.0,0.0,0.0,0.0,0.0,0.0,0.0,0.0,0.0,0.0,0.0,0.0,0.0,0.0,0.0,0.0,0.0,0.0,0.0,0.0,0.0,0.0,0.0,0.0,0.0,0.0,0.0,0.0,0.0,0.0,0.0,0.0,0.0,0.0,0.0,3.9614,4.1166,4.2215,4.2024,4.0553,3.9679,3.9881,3.8076,3.643,3.5189,0.0,0.0,0.0,0.0,0.0,0.0,0.0,0.0,0.0,0.0,0.0,0.0,0.0,0.0,0.0,0.0,0.0,0.0,0.0,0.0,0.0,0.0,0.0,0.0,0.0,0.0,0.0,0.0,0.0,0.0,0.0,0.0,0.0,0.0,0.0,0.0,0.0,0.0,0.0,0.0,0.0,0.0,0.0,0.0,0.0,0.0,0.0,0.0,0.0,0.0,0.0,0.0,0.0,0.0,0.0,0.0,0.0,0.0,0.0,0.0,0.0,0.0,0.0,0.0,0.0,0.0,0.0,0.0,0.0,0.0,0.0,0.0,0.0,0.0,0.0,0.0,0.0,0.0,0.0,0.0,0.0,0.0,0.0,0.0,0.0,0.0,0.0,0.0,0.0,0.0,0.0,0.0,0.0,0.0,0.0,0.0,0.0,0.0,0.0,0.0,0.0,0.0,4.0059,4.165,4.2561,4.2043,4.0854,4.0008,3.9804,3.8495,3.7064,3.5587,0.0,0.0,0.0,0.0,0.0,0.0,0.0,0.0,0.0,0.0,0.0,0.0,0.0,0.0,0.0,0.0,0.0,0.0,0.0,0.0,0.0,0.0,0.0,0.0,0.0,0.0,0.0,0.0,0.0,0.0,0.0,0.0,0.0,0.0,0.0,0.0,0.0,0.0,0.0,0.0,0.0,0.0,0.0,0.0,0.0,0.0,0.0,0.0,0.0,0.0,0.0,0.0,0.0,0.0,0.0,0.0,0.0,0.0,0.0,0.0,0.0,0.0,0.0,0.0,0.0,0.0,0.0,0.0,0.0,0.0,0.0,0.0,0.0,0.0,0.0,0.0,0.0,0.0,0.0,0.0,0.0,0.0,0.0,0.0,0.0,0.0,0.0,0.0,0.0,0.0,0.0,0.0,0.0,0.0,0.0,0.0,0.0,0.0,0.0,0.0,0.0,0.0,4.0703,4.2262,4.2975,4.2098,4.1279,4.0466,3.9664,3.8807,3.7706,3.6283,0.0,0.0,0.0,0.0,0.0,0.0,0.0,0.0,0.0,0.0,0.0,0.0,0.0,0.0,0.0,0.0,0.0,0.0,0.0,0.0,0.0,0.0,0.0,0.0,0.0,0.0,0.0,0.0,0.0,0.0,0.0,0.0,0.0,0.0,0.0,0.0,0.0,0.0,0.0,0.0,0.0,0.0,0.0,0.0,0.0,0.0,0.0,0.0,0.0,0.0,0.0,0.0,0.0,0.0,0.0,0.0,0.0,0.0,0.0,0.0,3.8798,0.0,0.0,0.0,0.0,0.0,0.0,0.0,0.0,0.0,0.0,0.0,0.0,0.0,0.0,0.0,0.0,0.0,0.0,0.0,0.0,0.0,0.0,0.0,0.0,0.0,0.0,0.0,0.0,0.0,0.0,0.0,0.0,0.0,0.0,0.0,0.0,0.0,0.0,0.0,0.0,0.0,4.0778,4.2262,4.2975,4.2098,4.1279,4.0466,3.9664,3.8807,3.7905,3.6947,3.5442,0.0,0.0,0.0,0.0,0.0,0.0,0.0,0.0,0.0,0.0,0.0,0.0,0.0,0.0,0.0,0.0,0.0,0.0,0.0,0.0,0.0,0.0,0.0,0.0,0.0,0.0,0.0,0.0,0.0,0.0,0.0,0.0,0.0,0.0,0.0,0.0,0.0,0.0,0.0,0.0,0.0,0.0,0.0,0.0,0.0,0.0,0.0,0.0,0.0,0.0,0.0,0.0,0.0,0.0,0.0,0.0,0.0,0.0,0.0,4.2243,4.1229,0.0,0.0,0.0,0.0,0.0,0.0,0.0,0.0,0.0,0.0,0.0,0.0,0.0,0.0,0.0,0.0,0.0,0.0,0.0,0.0,0.0,0.0,0.0,0.0,0.0,0.0,0.0,0.0,0.0,0.0,0.0,0.0,0.0,0.0,0.0,0.0,0.0,0.0,0.0,0.0,4.1905,4.3106,4.3381,4.2136,4.1629,4.0891,3.9702,3.9176,3.8645,3.8004,3.6687,0.0,0.0,0.0,0.0,0.0,0.0,0.0,0.0,0.0,0.0,0.0,0.0,0.0,0.0,0.0,0.0,0.0,0.0,0.0,0.0,0.0,0.0,0.0,0.0,0.0,0.0,0.0,0.0,0.0,0.0,0.0,0.0,0.0,0.0,0.0,0.0,0.0,0.0,0.0,0.0,0.0,0.0,0.0,0.0,0.0,0.0,0.0,0.0,0.0,0.0,0.0,0.0,0.0,4.4354,4.487,4.5512,4.5735,4.6238,4.6833,4.5457,4.4693,4.4331,4.2947,0.0,0.0,0.0,0.0,0.0,0.0,0.0,0.0,0.0,0.0,0.0,0.0,0.0,0.0,0.0,0.0,0.0,0.0,0.0,0.0,0.0,0.0,4.5545,4.5966,4.6818,4.6913,4.4682,0.0,0.0,0.0,0.0,0.0,0.0,0.0,0.0,0.0,0.0,0.0,4.3168,4.4038,4.3905,4.218,4.2004,4.1354,3.9739,3.9589,3.9437,3.9051,3.8278,3.8028,0.0,0.0,0.0,0.0,0.0,0.0,0.0,0.0,0.0,0.0,0.0,0.0,0.0,0.0,0.0,0.0,0.0,0.0,0.0,0.0,0.0,0.0,0.0,0.0,0.0,0.0,0.0,0.0,0.0,0.0,0.0,0.0,3.6152,3.7075,0.0,0.0,0.0,0.0,0.0,0.0,0.0,0.0,0.0,0.0,0.0,0.0,0.0,4.3885,4.4528,4.6205,4.6985,4.6879,4.8577,4.9424,4.9532,4.9581,4.965,4.9745,4.9541,0.0,4.6151,4.5922,0.0,0.0,0.0,0.0,0.0,0.0,0.0,0.0,0.0,0.0,0.0,0.0,0.0,0.0,0.0,0.0,0.0,0.0,0.0,0.0,0.0,0.0,4.9884,4.9269,4.9761,5.0252,4.9907,4.7278,4.4694,4.3799,4.2934,4.2224,0.0,0.0,0.0,0.0,0.0,0.0,4.3533,4.4259,4.4046,4.22,4.2004,4.1354,3.9739,3.9589,3.9564,3.9511,3.9556,3.9894,4.0649,4.0076,0.0,0.0,0.0,0.0,0.0,0.0,0.0,0.0,0.0,0.0,0.0,0.0,0.0,0.0,0.0,0.0,0.0,0.0,0.0,0.0,0.0,0.0,0.0,0.0,0.0,0.0,0.0,0.0,0.0,3.6084,3.8032,3.84,3.9519,4.0129,0.0,0.0,0.0,0.0,0.0,0.0,0.0,0.0,0.0,4.5953,4.6088,4.6718,4.7916,4.8785,4.9148,4.9046,4.9898,5.0302,5.0302,5.0302,5.0302,5.0302,5.0302,4.9671,4.8558,4.7535,4.6881,4.6461,0.0,0.0,0.0,0.0,4.6405,4.6377,4.6831,4.6738,4.6335,4.5916,0.0,0.0,0.0,0.0,0.0,0.0,0.0,4.6373,4.7407,4.8957,5.0244,5.0341,5.0651,5.0898,5.0898,4.9603,4.8166,4.716,4.6306,4.5362,4.4175,0.0,0.0,0.0,0.0,4.3947,4.4432,4.4801,4.452,4.3208,4.2667,4.1908,4.0715,4.0198,3.9979,4.01,4.0606,4.1123,4.1588,4.1813,4.1713,0.0,0.0,0.0,0.0,0.0,0.0,0.0,0.0,0.0,0.0,0.0,0.0,0.0,0.0,0.0,0.0,0.0,0.0,0.0,0.0,0.0,0.0,0.0,0.0,0.0,0.0,0.0,0.0,3.8228,4.0043,4.0248,4.1762,4.245,0.0,0.0,0.0,0.0,0.0,0.0,4.6219,4.6276,4.694,4.8386,4.8443,4.9035,5.0283,5.0302,5.0302,5.0302,5.0302,5.0302,5.0302,5.0302,5.0302,5.0302,5.0329,5.0352,5.025,4.8905,4.8326,4.824,4.7608,4.7591,4.8015,4.8323,4.8359,4.8357,4.9365,4.9578,4.9347,4.8941,4.8094,4.6987,4.5731,0.0,0.0,0.0,0.0,4.7785,4.9319,4.9866,5.0167,5.0767,5.0898,5.0898,5.0898,5.0898,5.0653,4.9855,4.9052,4.8021,4.6512,0.0,0.0,0.0,0.0,4.4887,4.5523,4.5403,4.4929,4.4009,4.3358,4.267,4.1805,4.1189,4.0905,4.1058,4.1881,4.2437,4.259,4.3459,4.3496,4.2533,0.0,0.0,0.0,0.0,0.0,0.0,0.0,0.0,0.0,0.0,0.0,0.0,0.0,0.0,0.0,0.0,0.0,0.0,0.0,0.0,0.0,0.0,0.0,0.0,0.0,0.0,0.0,0.0,0.0,4.3663,4.5234,0.0,0.0,0.0,0.0,4.6246,4.6342,4.7111,4.8817,4.8913,4.9295,5.0149,5.0168,5.0206,5.0302,5.0302,5.0302,5.0302,5.0302,5.0302,5.0302,5.0302,5.0302,5.0314,5.0437,5.0486,5.0481,5.0396,5.0284,5.0168,5.0191,5.0139,5.0073,5.0357,5.0457,5.0476,5.0728,5.0329,4.9807,5.0523,4.9525,4.8166,4.8831,4.7779,0.0,0.0,4.9173,4.9431,5.0521,5.0836,5.084,5.0898,5.0898,5.0898,5.0898,5.0898,5.0879,5.0832,5.0175,4.9509,4.9143,0.0,4.7894,4.7894,4.7182,4.6678,4.6716,4.6,4.5087,4.4005,4.3851,4.3512,4.2694,4.2599,4.2585,4.2594,4.3589,4.4164,4.4173,4.5132,4.5297,4.4471,4.3639,0.0,0.0,0.0,0.0,0.0,0.0,0.0,0.0,0.0,0.0,0.0,0.0,0.0,0.0,0.0,0.0,0.0,0.0,0.0,0.0,0.0,0.0,0.0,0.0,0.0,0.0,0.0,0.0,4.5064,4.6576,0.0,4.6473,4.6781,4.7424,4.8365,4.883,4.9372,5.0096,5.012,5.0255,5.0558,5.0558,5.0558,5.0558,5.0558,5.0558,5.0558,5.0558,5.0558,5.0558,5.0558,5.0558,5.0563,5.0615,5.0639,5.0619,5.0672,5.0596,5.0442,5.0499,5.0387,5.0252,5.0653,5.0718,5.064,5.0822,5.0709,5.0515,5.0801,5.0441,4.9956,5.0237,4.9852,4.9474,5.0143,5.0334,5.0423,5.0809,5.0898,5.0898,5.0898,5.0898,5.0898,5.0898,5.0898,5.0898,5.0898,5.067,5.0283,4.9666,4.931,4.8944,4.8384,4.7553,4.6994,4.6994,4.6221,4.5546,4.5167,4.4653,4.4225,4.396,4.342,4.2861,4.2279,4.3662,4.4233,4.3673,4.504,4.5668,4.5378,4.4559,4.3282,0.0,0.0,0.0,0.0,0.0,0.0,0.0,0.0,0.0,0.0,0.0,0.0,0.0,0.0,0.0,0.0,0.0,0.0,0.0,0.0,0.0,0.0,0.0,0.0,0.0,0.0,4.6534,4.6542,4.8016,4.8726,4.7923,4.849,4.92,4.9847,5.0317,5.0611,5.0696,5.07,5.07,5.07,5.07,5.07,5.07,5.07,5.07,5.07,5.07,5.07,5.07,5.07,5.07,5.0705,5.0767,5.0807,5.0811,5.0867,5.0811,5.0705,5.0698,5.0591,5.0474,5.0797,5.0829,5.0723,5.0843,5.0898,5.0898,5.0898,5.0898,5.0898,5.0898,5.0898,5.0898,5.0898,5.0898,5.0898,5.0898,5.0898,5.0898,5.0898,5.0898,5.0898,5.0898,5.0898,5.0898,5.0898,5.0898,5.0724,5.0206,5.0109,4.9916,4.9335,4.8527,4.7869,4.7583,4.679,4.6132,4.5823,4.5316,4.5007,4.5007,4.4485,4.3904,4.3327,4.4369,4.4755,4.4175,4.5204,4.5803,4.5803,4.5278,4.4581,4.3711,0.0,0.0,0.0,0.0,0.0,0.0,0.0,0.0,0.0,0.0,0.0,0.0,0.0,0.0,0.0,0.0,0.0,0.0,0.0,0.0,0.0,0.0,0.0,4.5829,4.721,4.8268,4.8283,4.9723,5.0409,4.9633,5.0246,5.0709,5.0713,5.0709,5.0709,5.0713,5.0713,5.0713,5.0713,5.0713,5.0713,5.0713,5.0713,5.0713,5.0713,5.0713,5.0713,5.0713,5.0713,5.0713,5.0718,5.0921,5.0989,5.1016,5.1066,5.1092,5.1087,5.0952,5.0902,5.0898,5.0898,5.0898,5.0898,5.0898,5.0898,5.0898,5.0898,5.0898,5.0898,5.0898,5.0898,5.0898,5.0898,5.0898,5.0898,5.0898,5.0898,5.0898,5.0898,5.0898,5.0898,5.0898,5.0898,5.0898,5.0898,5.0898,5.0898,5.0898,5.0898,5.0898,5.0898,5.0225,0.0,4.8546,4.7676,4.6828,4.5977,4.5881,4.5881,4.5881,4.5881,4.5861,4.5803,4.5823,4.5823,4.5803,4.5823,4.5842,4.5881,4.5842,4.6268,4.7099,0.0,0.0,0.0,0.0,0.0,0.0,0.0,0.0,0.0,0.0,0.0,0.0,0.0,0.0,0.0,0.0,0.0,0.0,0.0,0.0,0.0,4.6678,4.7921,4.7828,4.8787,4.9711,5.0312,5.0788,5.0981,5.0756,5.0834,5.0955,5.1056,5.0966,5.0955,5.1056,5.1059,5.1059,5.1059,5.1059,5.1059,5.1059,5.1059,5.1059,5.1059,5.1059,5.1059,5.1059,5.1059,5.1049,5.0986,5.1056,5.1072,5.1064,5.1041,5.103,5.102,5.0998,5.0948,5.0898,5.0898,5.0898,5.0898,5.0898,5.0898,5.0898,5.0898,5.0898,5.0898,5.0898,5.0898,5.0898,5.0898,5.0898,5.0898,5.0898,5.0898,5.0898,5.0898,5.0898,5.0898,5.0898,5.0898,5.0898,5.0898,5.0898,5.0898,5.0898,5.0898,5.0898,5.0898,5.0225,0.0,4.9378,4.8585,4.7947,4.7715,4.7695,4.7695,4.7695,4.7695,4.7157,4.5881,4.6384,4.6461,4.5823,4.6403,4.7041,4.7676,4.7061,4.6867,0.0,0.0,0.0,0.0,0.0,0.0,0.0,0.0,0.0,0.0,0.0,0.0,0.0,0.0,0.0,0.0,0.0,0.0,0.0,0.0,0.0,0.0,4.8716,4.9812,4.9773,5.019,5.0685,5.1139,5.1194,5.12,5.1205,5.1131,5.1121,5.1196,5.1128,5.1121,5.1196,5.1199,5.1199,5.1199,5.1199,5.1199,5.1199,5.1199,5.1199,5.1199,5.1199,5.1199,5.1199,5.1199,5.1165,5.1098,5.1098,5.1095,5.1094,5.1023,5.1009,5.1005,0.0,0.0,0.0,0.0,5.0898,5.0898,5.0898,5.0898,5.0898,5.0898,5.0898,5.0898,5.0898,5.0898,5.0898,5.0898,5.0898,5.0898,5.0898,5.0898,5.0898,5.0898,5.0898,5.0898,5.0898,5.0898,5.0898,5.0898,5.0898,0.0,5.0898,5.0898,5.0898,5.0898,5.0496,5.007,4.9742,4.9262,4.8798,4.843,4.8392,4.8392,4.8392,4.8392,0.0,0.0,0.0,4.7428,4.6906,4.7389,0.0,0.0,0.0,0.0,0.0,0.0,0.0,0.0,5.0674,5.1563,0.0,0.0,0.0,0.0,0.0,0.0,0.0,0.0,0.0,0.0,0.0,0.0,0.0,0.0,0.0,0.0,5.0338,5.1403,5.1397,5.1273,5.1192,5.1192,5.1192,5.1208,5.1202,5.1199,5.1199,5.1199,5.1199,5.1199,5.1199,0.0,0.0,0.0,0.0,5.1199,5.1199,5.1199,5.1199,5.1199,5.1199,5.1199,5.1199,5.1196,5.1159,5.1092,5.1089,5.1082,5.1064,5.1012,5.0998,5.0975,5.0917,5.0898,5.0898,5.0898,5.0898,5.0898,5.0898,0.0,0.0,5.0898,5.0898,5.0898,5.0898,5.0898,5.0898,5.0898,5.0898,5.0898,5.0898,5.0898,5.0898,5.0898,5.0898,5.0898,5.0898,5.0898,5.0898,5.0898,5.0898,5.0898,5.0898,5.0898,5.0898,5.0898,5.0898,5.0651,4.9935,4.9838,4.9529,4.8759,0.0,0.0,4.8682,4.8682,4.8643,4.8546,4.8546,4.8546,4.8546,4.8624,4.9088,4.9958,5.0689,5.1486,5.2341,5.3212,5.3645,5.3646,5.2852,5.3749,0.0,0.0,0.0,0.0,0.0,0.0,0.0,0.0,0.0,0.0,0.0,0.0,0.0,0.0,0.0,4.9673,5.0714,5.1401,5.1394,5.1282,5.1193,5.1193,5.1193,5.1194,5.1205,5.1199,5.1199,5.1199,5.1199,5.1199,5.1199,5.1199,5.1199,5.1199,5.1199,5.1199,5.1199,5.1199,5.1199,5.1199,5.1199,0.0,5.1199,5.1136,5.1105,5.1107,5.1041,5.0986,5.0945,5.0917,5.0914,5.0914,5.0902,5.0898,5.0898,5.0898,5.0898,5.0898,5.0898,5.0898,5.0898,5.0898,5.0898,5.0898,5.0898,5.0898,0.0,5.0898,5.0898,5.0898,5.0898,5.0898,5.0898,5.0898,5.0898,5.0898,5.0898,5.0898,5.0898,5.0898,5.0898,5.0898,5.0898,5.0898,5.0898,5.0898,5.0898,5.084,5.0689,5.067,5.0593,5.0438,5.0418,5.0418,5.0418,5.0418,5.0148,4.9494,4.9455,4.9455,4.9455,5.007,5.0825,5.1703,5.1877,5.238,5.325,5.4116,5.458,5.4624,5.4398,5.4909,0.0,0.0,0.0,0.0,0.0,0.0,0.0,0.0,0.0,0.0,0.0,4.6659,4.7957,0.0,4.9743,5.0612,5.1119,5.1388,5.1351,5.1256,5.1208,5.1208,5.1205,5.1195,5.1202,5.1199,5.1199,5.1199,5.1571,5.1804,5.1804,5.2212,5.2445,5.2445,5.2445,5.2445,5.2445,5.2445,5.2445,5.2445,5.2445,5.2212,5.1801,5.1771,5.1503,5.1097,5.1023,5.0963,5.0898,5.0898,5.0898,5.0898,5.0898,5.0898,5.0898,5.0898,5.0898,5.0898,5.0898,5.0898,5.0898,5.0898,5.0898,5.0898,5.0898,5.0959,5.1,5.1,5.1011,5.1044,5.1044,5.1044,5.1044,5.1044,5.1044,5.1044,5.1044,5.1011,5.1001,5.1032,5.097,5.0925,5.0986,5.0974,5.0945,5.0902,5.0898,5.091,5.0952,5.0914,5.091,5.0952,5.0914,5.0898,5.0898,5.0898,5.0728,5.0322,5.0302,5.0302,5.0302,5.0689,5.1331,5.2271,5.2701,5.3359,5.4258,5.5129,5.5788,5.6258,5.6218,5.6651,0.0,0.0,0.0,0.0,0.0,0.0,0.0,0.0,4.6026,4.7081,4.7842,4.8758,5.0105,5.0358,5.0574,5.1297,5.1397,5.1375,5.1326,5.1267,5.1234,5.1225,5.1206,5.1199,5.1199,5.1199,5.1258,5.1416,5.2037,5.2465,5.264,5.3323,5.3692,5.3692,5.3692,5.3692,5.3692,5.3692,5.3692,5.3692,5.3692,5.3339,5.265,5.2457,5.1993,5.1316,5.1086,5.0952,5.0898,5.0898,5.0898,5.0902,5.0937,5.0948,5.0944,5.091,5.0921,5.0944,5.091,5.0921,5.0969,5.094,5.0951,5.0953,5.0953,5.1037,5.1117,5.1117,5.1162,5.1201,5.1201,5.1201,5.1201,5.1201,5.1201,5.1201,5.1201,5.1162,5.1146,5.1195,5.1075,5.0985,5.1098,5.1077,5.1014,5.0929,5.0937,5.0956,5.1012,5.096,5.0948,5.0982,5.0948,5.0898,5.0898,5.0929,5.0948,5.0948,5.0958,5.0953,5.0953,5.1111,5.1677,5.2644,5.3464,5.4326,5.5258,5.6137,5.6926,5.7627,5.7977,5.8494,4.062,4.2572,4.4815,4.6455,4.6436,4.6789,0.0,0.0,4.8837,5.0496,5.0906,5.1023,5.1219,5.1258,5.1297,5.1375,5.1392,5.1409,5.1387,5.1383,5.1351,5.1296,5.1249,5.1199,5.1199,5.1199,5.1494,5.2212,5.2348,5.274,5.3517,5.3653,5.3692,5.3692,5.3692,5.3692,5.3692,5.3692,5.3692,5.3692,5.3692,5.3657,5.3527,5.2695,5.2269,5.2113,5.1273,5.0906,5.0898,5.0898,5.0898,5.0914,5.1034,5.1081,5.1066,5.0936,5.0972,5.1063,5.0932,5.1021,5.1159,5.1097,5.1116,5.1172,5.1172,5.1178,5.1187,5.1187,5.1195,5.1201,5.1201,5.1201,5.1201,5.1201,5.1201,5.1201,5.1201,5.1193,5.1197,5.1206,5.1177,5.1174,5.1197,5.1177,5.1135,5.1006,5.1046,5.1087,5.109,5.1023,5.0982,5.1005,5.0948,5.0898,5.0898,5.101,5.1081,5.1081,5.1123,5.1172,5.1172,5.1916,5.2739,5.3622,5.4425,5.5288,5.6154,5.7035,5.754,5.7731,5.9275,6.0028,4.3432,4.5257,0.0,0.0,4.8798,4.9501,5.0437,5.0476,5.0516,5.1258,5.1394,5.1394,5.1394,5.1804,5.2157,0.0,5.2555,5.2675,5.2171,5.206,5.1841,5.13,5.1211,5.14,5.1913,5.1952,5.2327,5.3215,5.3706,5.4133,5.4504,5.4959,5.5217,5.5217,5.5207,5.5207,5.5207,5.5207,5.5207,5.5207,5.5207,5.4935,5.4391,5.3987,5.327,5.225,5.1438,5.1073,5.1073,5.1073,5.1073,5.1078,5.1145,5.1162,5.1157,5.1092,5.1105,5.1157,5.1092,5.1135,5.1195,5.1176,5.1172,5.1201,5.1201,5.1234,5.1265,5.1265,5.1287,5.1325,5.1325,5.1325,5.1327,5.1311,5.1313,5.1313,5.1313,5.1281,5.1275,5.1315,5.1248,5.1203,5.1258,5.1221,5.1177,5.1117,5.1138,5.1159,5.1154,5.112,5.1114,5.1114,5.1081,5.1073,5.1073,5.1137,5.1162,5.1162,5.1652,5.1965,5.1965,5.2787,5.3689,5.4603,5.4956,5.5558,5.648,5.736,5.805,5.8607,5.9799,6.0614,4.5527,0.0,0.0,4.9013,5.0298,5.123,5.0605,5.0957,5.1404,5.1396,5.1401,5.1404,5.1396,5.2118,5.2703,5.2703,5.3397,5.3618,5.2758,5.2584,5.2306,5.1657,5.1588,5.2017,5.3143,5.2817,5.2999,5.415,5.4776,5.5205,5.5457,5.6004,5.6324,5.6324,5.6339,5.6336,5.6336,5.6336,5.6336,5.6336,5.6336,5.5967,5.5302,5.5051,5.3992,5.2327,5.1799,5.1417,5.1201,5.1201,5.1201,5.1203,5.1225,5.1234,5.1237,5.1255,5.1231,5.1211,5.1209,5.1211,5.1259,5.1221,5.1247,5.1262,5.1262,5.1292,5.1333,5.1333,5.1365,5.1406,5.1406,5.1406,5.1405,5.1404,5.1403,5.1403,5.1403,5.1367,5.1347,5.1384,5.1325,5.1272,5.1326,5.1299,5.1263,5.1261,5.1252,5.1258,5.122,5.1213,5.1209,5.1203,5.1201,5.1201,5.1201,5.1222,5.1331,5.1567,5.2191,5.265,5.2905,5.3745,5.4526,5.5218,5.5707,5.6282,5.6953,5.8066,5.8906,5.9551,6.0371,6.1094,0.0,0.0,5.0034,5.0052,5.0742,5.1385,5.1365,5.1385,5.1401,5.1401,5.1395,5.1401,5.14,5.2118,5.2703,5.2703,5.3421,5.3683,5.2823,5.2693,5.2655,5.257,5.2569,5.3237,5.4941,5.3583,5.3271,5.4931,5.5088,5.5477,5.6312,5.6389,5.6407,5.6407,5.6406,5.6405,5.6405,5.6405,5.6405,5.6405,5.6405,5.6372,5.6321,5.5406,5.4084,5.2491,5.2473,5.1984,5.1201,5.1201,5.1201,5.1209,5.1275,5.1295,5.13,5.1364,5.1341,5.1288,5.1229,5.1286,5.1386,5.1326,5.1337,5.1386,5.1386,5.1406,5.1405,5.1405,5.1403,5.1399,5.1399,5.1399,5.1399,5.1399,5.1398,5.1398,5.1398,5.1399,5.1398,5.1392,5.1391,5.1393,5.1391,5.1392,5.1395,5.1399,5.1384,5.1365,5.1309,5.1244,5.1206,5.1205,5.1201,5.1201,5.1201,5.1266,5.1666,5.2506,5.2631,5.3066,5.3926,5.4785,5.5273,5.5293,5.6953,5.7832,5.7851,5.9512,6.0332,6.0371,6.1269,6.168,0.0,0.0,5.0246,5.0812,5.1187,5.1404,5.1404,5.1404,5.1405,5.1406,5.1406,5.1404,5.14,5.2587,5.3561,5.3561,5.4781,5.5408,5.4486,5.4859,5.478,5.3597,5.398,0.0,0.0,0.0,0.0,5.6011,5.6108,5.6226,5.652,5.6484,5.6461,5.6461,5.6424,5.639,5.639,5.639,5.639,5.641,5.6391,5.6397,5.6366,5.5519,5.4822,5.4259,5.3726,5.3326,5.3013,5.2428,5.2193,5.2135,5.1576,5.1363,5.1364,5.1386,5.1386,5.1363,5.1337,5.1363,5.1406,5.1366,5.1387,5.1405,5.1403,5.1402,5.1401,5.1401,5.14,5.1398,5.1398,5.1398,5.1397,5.1394,5.1393,5.1393,5.1393,5.1408,5.1407,5.1395,5.1393,5.1391,5.1395,5.1399,5.1598,5.2186,5.1776,5.1387,5.1361,5.1358,5.1336,5.1333,5.1333,5.1568,5.2154,5.222,5.2594,5.3473,5.4081,5.4551,5.4844,5.5703,5.6426,5.7012,5.7598,5.8183,5.8769,5.9863,6.039,6.043,6.1289,6.1699,4.8767,4.9638,5.0279,5.1157,5.1361,5.1368,5.1368,5.1368,5.137,5.1397,5.1382,5.1365,5.1406,5.2812,5.4002,5.4002,5.5701,5.6718,5.5839,5.6424,5.6541,5.5428,5.578,5.6244,0.0,0.0,0.0,5.6607,5.6879,5.6899,5.6624,5.657,5.6538,5.6538,5.6484,5.6462,5.6462,5.6462,5.6462,5.6462,5.647,5.6462,5.6443,5.594,5.5532,5.5201,5.4686,5.4297,5.3965,5.3398,5.2988,5.2637,5.207,5.168,5.1406,5.1406,5.1406,5.1406,5.1406,5.1406,5.1406,5.1405,5.1404,5.1402,5.1399,5.1397,5.1396,5.1396,5.1394,5.1391,5.1391,5.1391,5.1391,5.1406,5.1404,5.1404,5.1404,5.1634,5.1867,5.1859,5.1857,5.1955,5.2276,5.2321,5.2519,5.3086,5.2695,5.2324,5.2324,5.2324,5.2324,5.2324,5.2324,5.2558,5.3125,5.3164,5.3535,5.4414,5.498,5.5449,5.5742,5.6601,5.7324,5.789,5.8496,5.9062,5.9629,6.0469,6.0859,6.0879,6.1445,6.1875,4.9566,5.0034,5.0268,5.1086,5.1302,5.1297,5.1297,5.1297,5.1326,5.1372,5.134,5.1311,5.1395,0.0,5.4002,5.4061,5.6171,5.7557,5.6829,5.742,5.7927,0.0,0.0,0.0,0.0,0.0,0.0,5.6859,0.0,5.7523,5.6761,5.6722,5.6722,5.6722,5.6683,5.6663,5.6663,5.6624,5.6605,5.6605,5.6605,5.6592,5.6593,5.6601,5.6152,5.5371,5.5371,5.4902,5.4121,5.4082,5.3574,5.2832,5.2773,5.2266,5.1523,5.1523,5.1503,5.1463,5.1465,5.1445,5.1404,5.1404,5.1402,5.1398,5.1397,5.1394,5.1409,5.1409,5.1403,5.1414,5.1453,5.1472,5.1472,5.1511,5.1531,5.1531,5.1531,5.2176,5.2762,5.2763,5.2764,5.3024,5.3858,5.4041,5.4062,5.4062,5.4101,5.4101,5.4004,5.4004,5.4004,5.4004,5.4004,5.4023,5.4062,5.4062,5.4433,5.5312,5.5371,5.5742,5.6562,5.7441,5.793,5.7969,5.957,6.043,6.0469,6.1308,6.1699,6.1699,6.1699,6.2168,4.9722,5.0463,5.1028,5.1242,5.1292,5.1303,5.1303,5.1303,5.1307,5.132,5.1305,5.1325,5.1399,0.0,0.0,5.4856,5.6553,0.0,5.8392,5.9196,0.0,5.8852,0.0,5.9573,5.9142,5.969,0.0,0.0,5.8654,5.8674,5.8479,5.8459,5.8459,5.8459,5.7836,5.7484,5.7484,5.6899,5.6605,5.6605,5.6599,5.6607,5.6593,5.6599,5.6484,5.6269,5.6269,5.6133,5.5898,5.5234,5.4844,5.457,5.3926,5.3535,5.3338,5.3338,5.2927,5.2377,5.2378,5.1948,5.14,5.1396,5.1394,5.1391,5.1404,5.14,5.1398,5.1398,5.1396,5.155,5.2196,5.2371,5.2527,5.3171,5.3346,5.3346,5.3346,5.3502,5.3661,5.3669,5.3679,5.3744,5.3961,5.453,5.4961,5.4961,5.5527,5.5469,5.418,5.4004,5.4004,5.4004,5.4004,5.4258,5.4902,5.4961,5.5332,5.6211,5.6269,5.6367,5.6582,5.7441,5.8203,5.8867,5.9883,6.0723,6.1367,6.1582,6.1699,6.1699,6.1699,6.2168,5.0346,5.093,5.13,5.13,5.13,5.13,5.13,5.13,5.13,5.13,5.1307,0.0,5.1348,5.2787,0.0,0.0,0.0,0.0,5.9029,6.0155,6.0764,0.0,6.0665,0.0,6.0294,6.0684,6.0762,0.0,5.9884,5.9494,5.9123,5.9103,5.9103,5.9103,5.8635,5.8187,5.7798,5.7348,5.6957,5.6605,5.6596,5.6605,5.6593,5.6598,5.6601,5.6601,5.6601,5.6601,5.6562,5.6074,5.5644,5.5253,5.4764,5.4333,5.3999,5.3999,5.3684,5.3269,5.3269,5.2701,5.1917,5.1527,5.1407,5.1403,5.1396,5.1394,5.1394,5.1394,5.1394,5.1609,5.2469,5.2703,5.2918,5.3795,5.401,5.401,5.401,5.4303,5.4578,5.4564,5.4871,5.5015,5.4644,5.5292,5.5879,5.5879,5.6289,5.625,5.5273,5.5137,5.5137,5.5137,5.5137,5.5332,5.582,5.5879,5.6074,5.6562,5.6601,5.6777,5.7148,5.8008,5.8867,5.9707,6.0547,6.1211,6.1699,6.1699,6.1699,6.1699,6.1699,6.2363,5.1067,5.13,5.13,5.13,5.13,5.13,5.13,5.13,5.13,5.13,0.0,5.129,5.1312,5.2636,5.3843,5.4131,0.0,5.8883,5.9227,6.0518,6.1518,6.1684,6.1699,6.1699,6.1699,6.1699,6.1699,6.1699,6.0998,6.0237,5.9494,5.9455,5.9396,5.9279,5.9279,5.8792,5.7817,5.7798,5.7406,5.6605,5.6595,5.6604,5.6592,5.6596,5.66,5.6601,5.6601,5.6601,5.6601,5.66,5.615,5.5465,5.5462,5.501,5.4345,5.4345,5.4263,5.4179,5.4179,5.3609,5.2725,5.1854,5.1499,5.1394,5.1394,5.1394,5.1414,5.1531,5.157,5.1804,5.2781,5.3054,5.3269,5.4147,5.4341,5.4341,5.4341,5.4947,5.5475,5.5475,5.6076,5.6358,5.5598,5.6092,5.6601,5.6601,5.6601,5.6601,5.6601,5.6601,5.6601,5.6601,5.6601,5.6601,5.6601,5.6601,5.664,5.6777,5.6777,5.7168,5.8047,5.8906,5.9687,6.039,6.1269,6.1699,6.1699,6.1699,6.1758,6.1875,6.1875,6.2812,5.1067,5.13,5.13,5.13,5.13,5.13,5.13,5.13,0.0,0.0,0.0,5.1312,5.1367,5.2222,5.3388,5.4846,0.0,0.0,0.0,0.0,6.087,0.0,0.0,0.0,0.0,0.0,0.0,0.0,6.1563,6.1407,6.127,6.125,6.0919,6.0198,6.0178,5.9417,5.7817,5.7798,5.7406,5.6605,5.6607,5.6595,5.6603,5.6605,5.6609,5.6595,5.6595,0.0,5.6595,5.6594,5.6516,5.6379,5.6378,5.6277,5.6154,5.6154,5.5681,5.5068,5.5068,5.45,5.3639,5.2764,5.1982,5.1394,5.1394,5.1394,5.155,5.2274,5.2469,5.284,5.444,5.485,5.5065,5.5942,5.6156,5.6156,5.6156,5.6273,5.6372,5.6372,5.6505,5.6554,5.6398,5.6502,5.6601,5.6601,5.6601,5.6601,5.6601,5.6601,5.6601,5.6601,5.6601,5.6601,5.6601,5.6601,5.6914,5.7637,5.7676,5.8066,5.8945,5.9765,6.0254,6.039,6.1269,6.1699,6.1699,6.1699,6.207,6.2773,6.2773,6.3711,5.1183,5.13,5.13,5.13,5.13,5.1183,5.0735,0.0,0.0,0.0,0.0,5.1369,5.1385,0.0,0.0,0.0,0.0,0.0,0.0,0.0,0.0,0.0,0.0,0.0,0.0,0.0,0.0,6.1699,6.1699,6.1699,6.1699,6.1699,6.1504,6.1094,6.0646,5.9788,5.8499,5.8031,5.7601,5.7211,5.68,5.6826,5.7207,5.6797,5.6605,5.6593,5.6593,5.6593,5.6592,5.6609,5.6607,5.6607,5.6602,5.6598,5.6594,5.6594,5.6337,5.5981,5.5981,5.5415,5.4537,5.3659,5.2781,5.1981,5.1531,5.1726,5.2157,5.2586,5.3035,5.3679,5.4967,5.5299,5.5514,5.6391,5.6605,5.6605,5.6605,5.6605,5.6605,5.6605,5.6602,5.6593,5.6593,5.66,5.6601,5.6601,5.6601,5.6601,5.6601,5.6601,5.6601,5.6601,5.6601,5.6601,5.6601,5.7012,5.7441,5.7871,5.832,5.8945,5.9785,6.0195,6.0605,6.1074,6.1484,6.1699,6.1699,6.2168,6.2598,6.3008,6.3476,6.4375,5.13,5.13,5.13,5.13,5.13,5.1086,5.0213,5.0678,0.0,0.0,5.0784,5.1403,5.1396,0.0,0.0,0.0,0.0,0.0,0.0,0.0,0.0,0.0,0.0,0.0,0.0,0.0,0.0,6.1699,6.1699,6.1699,6.1699,6.1699,6.1602,6.1426,6.0764,5.9885,5.883,5.8148,5.7719,5.7543,5.6899,5.6922,5.7517,5.6891,5.6602,5.6608,5.6608,5.6608,5.6607,5.6601,5.6598,5.6597,5.6609,5.6605,5.6605,5.6605,5.6605,5.6605,5.6605,5.6157,5.5436,5.4556,5.3562,5.2547,5.1668,5.202,5.2742,5.2937,5.36,5.4478,5.5357,5.5573,5.5747,5.6449,5.6605,5.6605,5.6605,5.6605,5.6605,5.6605,5.6602,5.6593,5.6593,5.66,5.666,5.6855,5.6719,5.668,5.6855,5.6875,5.6875,5.6875,5.6719,5.668,5.6855,5.7519,5.8047,5.8418,5.9082,5.9824,6.0644,6.0683,6.0996,6.1699,6.1875,6.1973,6.1973,6.2851,6.3379,6.3574,6.4258,6.5058,5.13,5.13,5.13,5.13,5.13,5.109,5.0288,0.0,0.0,5.0278,5.0781,5.1396,5.1397,5.1465,0.0,0.0,0.0,0.0,0.0,0.0,0.0,0.0,0.0,0.0,0.0,0.0,0.0,6.1699,6.1699,6.1699,6.1699,6.1699,6.1348,6.0549,6.0432,5.9592,5.7933,5.7837,5.7426,5.6702,5.6644,5.6645,5.6705,5.6627,5.6607,5.6608,5.6608,5.6608,0.0,5.6607,5.6607,5.6607,5.6606,5.6605,5.6605,5.6605,5.6605,5.6605,5.6605,5.6546,5.6333,5.5455,5.407,5.2547,5.1668,5.202,5.2879,5.3659,5.4517,5.5377,5.6255,5.6488,5.6507,5.6585,5.6605,5.6605,5.6605,5.6605,5.6605,5.6605,5.6602,5.6593,5.6593,5.66,5.6875,5.7656,5.7109,5.6894,5.7676,5.7773,5.7773,5.7773,5.707,5.6914,5.7715,5.7851,5.8555,6.0078,6.0254,6.0683,6.1543,6.1582,6.1621,6.1699,6.248,6.2871,6.2871,6.3769,6.459,6.5351,6.5449,6.5957,5.1164,5.13,5.13,5.13,5.13,5.0954,4.9629,0.0,5.0961,4.9591,5.0424,5.1408,5.1408,5.1391,5.196,0.0,5.4283,5.524,5.7308,0.0,0.0,0.0,0.0,0.0,0.0,0.0,6.1699,6.1699,6.1699,6.1465,6.0959,6.092,6.0764,6.0412,5.9378,5.8499,5.7817,5.7328,5.7153,5.7328,5.6821,5.686,5.7309,5.682,5.6605,5.6605,5.6605,5.6605,0.0,5.6605,5.6605,5.6605,5.6605,5.6605,5.6605,5.6605,5.6605,5.6605,5.6605,5.6605,5.6468,5.5573,5.4831,5.4109,5.3229,5.321,5.3659,5.4537,5.5415,5.6157,5.6507,5.6605,5.6605,5.6605,5.6605,5.6605,5.6605,5.6605,5.6607,5.6595,5.6605,5.677,5.7281,5.7382,5.7676,5.8555,5.8398,5.8281,5.8633,5.8672,5.8672,5.8672,5.8379,5.8301,5.8652,5.9121,5.9687,6.0351,6.0898,6.1348,6.1699,6.1699,6.1699,6.1699,6.2558,6.3008,6.3008,6.4394,6.5254,6.5605,6.6133,6.6562,5.1067,5.13,5.13,5.13,5.13,5.0936,0.0,0.0,5.0971,4.9486,5.0374,5.1394,5.1394,5.1394,5.1882,0.0,5.3834,5.4614,5.6351,0.0,0.0,0.0,0.0,0.0,0.0,6.1914,6.1699,6.1699,6.1699,6.1328,6.0451,6.0159,5.9905,5.9631,5.8441,5.7699,5.7445,5.6879,5.6879,5.7445,5.6879,5.6899,5.7426,5.686,5.6605,5.6605,5.6605,5.6605,0.0,5.6605,5.6605,5.6605,5.6605,5.6605,5.6605,5.6605,5.6605,5.6605,5.6605,5.6605,5.6507,5.5884,5.5514,5.5221,5.4888,5.4596,5.4517,5.5124,5.5923,5.6605,5.6605,5.6605,5.6605,5.6605,5.6605,5.6605,5.6605,5.6605,5.6608,5.6599,5.6803,5.718,5.779,5.8105,5.8574,5.9433,5.9355,5.9297,5.9512,5.9551,5.9551,5.9551,5.9785,5.9844,5.957,6.0078,6.0508,6.0762,6.1367,6.1699,6.1699,6.1953,6.207,6.207,6.3183,6.3769,6.3769,6.5254,6.5976,6.5996,6.6601,6.6894,5.1067,5.13,5.13,5.13,5.13,5.1096,0.0,5.077,5.1148,5.0276,5.0788,5.1394,5.1394,5.1394,5.1687,5.2566,5.3444,5.4614,5.6351,5.8049,0.0,0.0,0.0,0.0,6.0432,6.1192,6.1699,6.1699,6.1699,0.0,6.0451,5.9572,5.8713,5.7856,5.7817,5.7426,5.6624,5.6605,5.6605,5.6605,5.6605,5.6605,5.6605,5.6605,5.6605,5.6605,5.6605,5.6605,0.0,5.6605,5.6605,5.6605,5.6605,5.6605,5.6605,5.6605,5.6605,5.6605,5.6605,5.6605,5.6605,5.6585,5.6001,5.5455,5.6313,5.5962,5.5299,5.5299,5.5923,5.6605,5.6605,5.6605,5.6605,5.6605,5.6605,5.6605,5.6605,5.6605,5.6608,5.6599,5.7292,5.7884,5.7907,5.8613,5.9453,6.0273,5.9707,5.9492,6.0293,6.039,6.039,6.039,6.1152,6.1328,6.0469,6.039,6.0762,6.1621,6.1699,6.1699,6.1699,6.2539,6.2988,6.2988,6.4687,6.5566,6.5566,6.6465,6.6894,6.6894,6.6894,6.6894,5.0599,5.0872,5.056,5.1145,5.1292,5.1094,5.028,5.078,5.1141,5.0278,5.0788,5.1394,5.1394,5.1394,5.1882,5.3346,5.3815,0.0,0.0,0.0,0.0,0.0,0.0,0.0,0.0,0.0,6.1699,6.1699,6.1699,6.1055,5.9591,5.9259,5.8693,5.7837,5.727,5.686,5.6605,5.6605,5.6605,5.6605,5.6605,5.6605,5.6605,5.6605,5.6605,5.6605,5.6605,5.6605,5.6605,5.6605,5.6605,5.6605,5.6605,5.6605,5.6605,5.6605,5.6605,5.6605,5.6605,5.6605,5.6605,5.6605,5.641,5.6235,5.6527,5.5981,5.5416,5.602,5.6391,5.6605,5.6605,5.6605,5.6605,5.6605,5.6605,5.6605,5.6605,5.6605,5.6592,5.6607,5.6825,5.7396,5.8574,5.9023,5.9687,6.1074,6.1074,6.0996,6.1269,6.1289,6.1289,6.1289,6.1543,6.1582,6.1308,6.1289,6.1406,6.168,6.1699,6.1973,6.2558,6.2851,6.3281,6.3887,6.5019,6.5605,6.5605,6.6465,6.6894,6.6894,6.6894,6.6894,0.0,5.0657,5.062,5.1154,5.1303,5.1182,5.0698,5.1002,5.1245,5.0708,5.1022,5.1394,5.1394,5.1668,5.2253,5.3327,5.3795,0.0,0.0,0.0,0.0,0.0,0.0,0.0,0.0,6.1504,6.1699,6.1699,6.1407,6.0587,5.9181,5.8791,5.8226,5.7367,5.686,5.6605,5.6605,5.6605,5.6605,5.6605,5.6605,5.6605,5.6605,5.6605,5.6605,5.6605,5.6605,5.6605,0.0,5.6605,5.6605,5.6605,5.6605,5.6605,5.6605,5.6605,5.6605,5.6605,5.6605,5.6605,5.6605,5.6605,5.6605,5.6605,5.6605,5.6216,5.5903,5.6449,5.6605,5.6605,5.6605,5.6605,5.6605,5.6605,5.6605,5.6605,5.6605,5.684,5.6964,5.6668,5.7101,5.7905,5.9004,5.9453,6.0117,6.1484,6.1699,6.1699,6.1699,6.1699,6.1699,6.1699,6.1699,6.1699,6.1699,6.1699,6.1699,6.1699,6.1699,6.209,6.2969,6.332,6.3906,6.4765,6.5644,6.6094,6.6094,6.664,6.6894,6.6894,6.6894,6.6894,0.0,5.0465,5.1131,5.1192,5.1257,5.1325,5.1392,5.1399,0.0,5.1392,5.1394,5.1414,5.1472,5.2157,5.2723,5.2781,0.0,0.0,0.0,0.0,0.0,0.0,0.0,0.0,6.049,6.1172,6.1602,6.1602,6.0803,5.9924,5.9045,5.8246,5.7426,5.6624,5.6605,5.6605,5.6605,5.6605,5.6605,5.6605,5.6605,5.6605,5.6605,5.6605,5.6605,0.0,5.6605,5.6605,5.6605,5.6605,5.6605,5.6605,5.6605,5.6605,5.6605,5.6605,5.6605,5.6605,5.6605,5.6605,5.6605,5.6605,5.6605,5.6605,5.6605,5.6605,5.6605,5.6605,5.6605,5.6605,5.6605,5.6605,5.6605,5.6605,5.6605,5.6605,5.6605,5.7231,5.757,5.6766,5.7901,5.9038,5.9101,5.9785,6.0605,6.1484,6.166,6.1699,6.1699,6.1699,6.1699,6.1699,6.1699,6.1699,6.1699,6.1699,6.1699,6.1699,6.1699,6.2129,6.3047,6.3867,6.4746,6.5664,6.6484,6.6894,6.6894,6.6894,6.6894,6.6894,6.6894,6.6894,4.7518,0.0,4.9552,5.0215,5.0873,5.137,0.0,5.1404,5.1391,0.0,0.0,0.0,5.2274,5.2566,0.0,0.0,0.0,0.0,0.0,0.0,0.0,0.0,6.127,6.1387,6.1387,6.0978,6.0705,6.0705,5.9904,5.9025,5.8148,5.7914,5.7426,5.6624,5.6605,5.6605,5.6605,5.6605,5.6605,5.6605,5.6605,5.6605,5.6605,5.6605,5.6605,5.6605,5.6605,5.6605,5.6605,5.6605,5.6605,5.6605,5.6605,5.6605,5.6605,5.6605,5.6605,5.6605,5.6605,5.6605,5.6605,5.6605,5.6605,5.6605,5.6605,5.6605,5.6605,5.6605,5.6605,5.6605,5.6605,5.6605,5.6605,5.6605,5.6605,5.6605,5.6605,5.7231,5.757,5.6766,5.7452,5.8198,5.8203,5.8926,5.9765,6.0586,6.1269,6.1699,6.1699,6.1699,6.1699,6.1699,6.1699,6.1699,6.1699,6.1699,6.1699,6.1699,6.1699,6.2383,6.3926,6.4199,6.5019,6.6562,6.6797,6.6894,6.6894,6.6894,6.6894,6.6894,6.6894,6.6894,4.6582,4.8155,4.9513,4.9977,5.0768,5.14,5.1404,0.0,0.0,0.0,0.0,0.0,0.0,0.0,0.0,0.0,0.0,0.0,0.0,0.0,0.0,0.0,6.1094,6.0958,0.0,6.0079,5.9807,5.9807,5.9007,5.8304,5.7837,5.7445,5.7055,5.6605,5.6605,5.6605,5.6605,5.6605,5.6605,5.6605,5.6605,5.6605,5.6605,5.6605,5.6605,5.6624,5.6996,5.6938,5.6624,5.6996,5.6938,5.6605,5.6605,5.6605,5.6605,5.6605,5.6605,5.6605,5.6605,5.6605,5.6605,5.6605,5.6605,5.6605,5.6605,5.6605,5.6605,5.6605,5.6605,5.6605,5.6605,5.6605,5.6605,5.6605,5.6605,5.6605,5.6605,5.7543,5.8037,5.6824,5.7921,5.8939,5.8554,5.9199,6.0039,6.0879,6.1406,6.1699,6.1699,6.1699,6.1699,6.1699,6.1699,6.1699,6.1699,6.1699,6.1699,6.1699,6.1699,6.248,6.4238,6.4297,6.5117,6.6875,6.6894,6.6894,6.6894,6.6894,6.6894,6.6894,6.6894,6.6894,4.6009,4.8055,4.9864,4.9757,5.0463,5.1169,5.1021,0.0,0.0,0.0,0.0,0.0,0.0,0.0,0.0,0.0,0.0,0.0,0.0,0.0,0.0,0.0,6.0276,0.0,5.9162,5.8986,5.8908,5.8908,5.8109,5.7621,5.7621,5.6977,5.6605,5.6605,5.6605,5.6605,5.6605,5.6605,5.6605,5.6605,5.6605,5.6605,5.6605,5.6605,5.6605,5.6644,5.7445,0.0,5.6663,5.7465,5.7328,5.6605,5.6605,5.6605,5.6605,5.6605,5.6605,5.6605,5.6605,5.6605,5.6605,5.6605,5.6605,5.6605,5.6605,5.6605,5.6605,5.6605,5.6605,5.6605,5.6605,5.6605,5.6605,5.6605,5.6605,5.6624,5.6761,5.7893,5.8485,5.7057,5.8623,5.9954,5.914,5.9785,6.0644,6.1387,6.1601,6.1699,6.1699,6.1699,6.1699,6.1699,6.1699,6.1699,6.1699,6.1699,6.1699,6.1699,6.1699,6.248,6.4238,6.4433,6.5254,6.6875,6.6894,6.6894,6.6894,6.6894,6.6894,6.6894,6.6894,6.6894,4.5866,4.7624,4.8832,4.815,4.9146,5.0103,4.9363,0.0,0.0,0.0,0.0,0.0,0.0,0.0,0.0,0.0,0.0,0.0,0.0,0.0,0.0,6.0295,0.0,5.9259,5.9103,5.8421,5.7992,5.7992,5.7231,5.6781,5.6781,5.6663,5.6605,5.6605,5.6605,5.6605,5.6605,5.6605,5.6605,5.6605,5.6605,5.6605,5.6605,5.6605,5.6605,5.6644,0.0,5.7348,5.6663,5.7465,5.7328,5.6605,5.6605,5.6605,5.6605,5.6605,5.6605,5.6605,5.6605,5.6605,5.6605,5.6605,5.6605,5.6605,5.6605,5.6605,5.6605,5.6605,5.6605,5.6605,5.6605,5.6605,5.6605,5.6605,5.6605,5.6781,5.7465,5.7816,5.7918,5.7675,5.8522,5.9036,5.824,5.9375,6.0449,6.0586,6.123,6.1699,6.1699,6.1699,6.1699,6.1699,6.1699,6.1699,6.1699,6.1699,6.1699,6.1699,6.1699,6.248,6.4238,6.5019,6.5879,6.6875,6.6894,6.6894,6.6894,6.6894,6.6894,6.6894,6.6894,6.6894,4.5243,4.6845,4.8056,4.7685,4.9207,5.0691,5.0301,0.0,0.0,0.0,0.0,0.0,0.0,0.0,0.0,0.0,0.0,0.0,5.8226,5.8402,5.8558,0.0,0.0,5.8226,5.7796,5.7387,5.7153,5.7153,5.68,5.6605,5.6605,5.6605,5.6605,5.6605,5.6605,5.6605,5.6605,5.6605,5.6605,5.6605,5.6605,5.6605,5.6605,5.6605,5.684,5.727,0.0,5.7582,5.7289,5.7641,5.7328,5.6605,5.6605,5.6605,5.6605,5.6605,5.6605,5.6605,5.6605,5.6605,5.6605,5.6605,5.6605,5.6605,5.6605,5.6605,5.6605,5.6605,5.6605,5.6605,5.6605,5.6605,5.6605,5.6605,5.6605,5.682,5.7621,5.7798,5.7801,5.7791,5.8874,5.9544,5.8747,5.9999,6.1094,6.1094,6.1445,6.1699,6.1699,6.1699,6.1699,6.1699,6.1699,6.1699,6.1699,6.1699,6.1699,6.1699,6.2148,6.2754,6.3555,6.4883,6.5781,6.6191,6.666,6.6894,6.6894,6.6894,6.6894,6.6894,6.6894,6.6894,4.4716,4.6279,4.7685,4.8094,0.0,5.0848,5.1043,0.0,0.0,0.0,0.0,0.0,0.0,0.0,0.0,0.0,0.0,5.7094,5.7719,5.7798,5.7798,5.7798,5.7621,5.7289,5.6663,5.6605,5.6605,5.6605,5.6605,5.6605,5.6605,5.6605,5.6605,5.6605,5.6605,5.6605,5.6605,5.6605,5.6605,5.6605,5.6605,5.6605,5.6605,5.6605,5.6938,5.7523,5.7719,5.7699,5.7523,5.7719,5.7328,5.6605,5.6605,5.6605,5.6605,5.6605,5.6605,5.6605,5.6605,5.6605,5.6605,5.6605,5.6605,5.6605,5.6605,5.6605,5.6605,5.6605,5.6605,5.6605,5.6605,5.6605,5.6605,5.6605,5.6605,5.6878,5.7894,5.7797,5.7702,5.8296,5.9322,5.9954,5.9547,6.0702,6.1699,6.1699,6.1699,6.1699,6.1699,6.1699,6.1699,6.1699,6.1699,6.1699,6.1699,6.1699,6.1699,6.1699,6.2324,6.2793,6.2988,6.4473,6.539,6.5605,6.6465,6.6894,6.6894,6.6894,6.6894,6.6894,6.6894,6.6894,4.4542,4.6279,4.7977,4.9538,0.0,0.0,5.0008,0.0,0.0,0.0,0.0,0.0,0.0,0.0,0.0,0.0,0.0,5.7739,5.7798,0.0,5.7798,5.7798,5.7133,5.6663,5.6605,5.6605,5.6605,5.6605,5.6605,5.6605,5.6605,5.6605,5.6605,5.6605,5.6605,5.6605,5.6605,5.6605,5.6605,5.6605,5.6605,5.6605,5.6605,5.6605,5.6624,5.6722,5.7484,5.7387,5.6742,5.7484,5.7328,5.6605,5.6605,5.6605,5.6605,5.6605,5.6605,5.6605,5.6605,5.6605,5.6605,5.6605,5.6605,5.6605,5.6605,5.6605,5.6605,5.6605,5.6605,5.6605,5.6605,5.6605,5.6605,5.6605,5.6605,5.7034,5.8654,5.7776,5.7387,5.975,5.9669,5.9425,6.0188,6.1073,6.1699,6.1699,6.1699,6.1699,6.1699,6.1699,6.1699,6.1699,6.1699,6.1699,6.1699,6.1699,6.1699,6.1699,6.1758,6.2168,6.2969,6.3906,6.4765,6.5586,6.6465,6.6894,6.6894,6.6894,6.6894,6.6894,6.6894,6.6894,4.3879,4.546,4.7061,4.8251,0.0,0.0,0.0,0.0,0.0,0.0,0.0,0.0,0.0,0.0,0.0,0.0,5.6294,5.7055,5.7055,5.7055,5.7055,5.7055,5.6781,5.6605,5.6605,5.6605,5.6605,5.6605,5.6605,5.6605,5.6605,5.6605,5.6605,5.6605,5.6605,5.6605,5.6605,5.6605,5.6605,5.6605,5.6605,5.6605,5.6605,5.6605,5.6879,5.7348,5.7133,5.7172,5.7328,5.7133,5.6879,5.6605,5.6605,5.6605,5.6605,5.6605,5.6605,5.6605,5.6605,5.6605,5.6605,5.6605,5.6605,5.6605,5.6605,5.6605,5.6605,5.6605,5.6605,5.6605,5.6605,5.6605,5.6605,5.6605,5.6605,5.6917,5.805,5.7406,5.719,5.9201,5.9337,5.9386,6.0246,6.1112,6.1699,6.1699,6.1699,6.1699,6.1699,6.1699,6.1699,6.1699,6.1699,6.1699,6.1699,6.1699,6.1699,6.1699,6.1699,6.209,6.2969,6.3848,6.4707,6.5586,6.6465,6.6894,6.6894,6.6894,6.6894,6.6894,6.6894,6.6894,4.3392,4.4973,4.6573,0.0,0.0,0.0,0.0,0.0,0.0,0.0,0.0,0.0,0.0,0.0,0.0,0.0,5.602,5.6605,5.6605,5.6605,5.6605,5.6605,5.6605,5.6605,5.6605,5.6605,5.6605,5.6605,5.6605,5.6605,5.6605,5.6605,5.6605,5.6605,5.6605,5.6605,5.6605,5.6605,5.6605,5.6605,5.6605,5.6605,5.6605,5.6605,5.6899,5.7387,5.684,5.6918,5.7387,5.6821,5.6605,5.6605,5.6605,5.6605,5.6605,5.6605,5.6605,5.6605,5.6605,5.6605,5.6605,5.6605,5.6605,5.6605,5.6605,5.6605,5.6605,5.6605,5.6605,5.6605,5.6605,5.6605,5.6605,5.6605,5.6605,5.6898,5.7972,5.7367,5.7269,5.9494,5.9473,5.9464,6.0616,6.1307,6.1699,6.1699,6.1699,6.1699,6.1699,6.1699,6.1699,6.1699,6.1699,6.1699,6.1699,6.1699,6.1816,6.209,6.2109,6.2383,6.2988,6.4101,6.498,6.5586,6.6465,6.6894,6.6894,6.6894,6.6894,6.6894,6.6894,6.6894,4.3236,4.4973,4.6691,0.0,0.0,0.0,0.0,0.0,0.0,0.0,0.0,0.0,0.0,0.0,0.0,5.5143,5.602,5.6605,5.6605,5.6605,5.6605,5.6605,5.6605,5.6605,5.6585,5.6585,5.6585,5.6585,5.6585,5.6585,5.6585,5.6585,5.6585,5.6605,5.6605,5.6605,5.6605,5.6605,5.6605,5.6605,5.6605,5.6605,5.6605,5.6605,5.6605,5.6605,5.6605,5.6605,5.6605,5.6605,5.6605,5.6605,5.6605,5.6605,5.6605,5.6605,5.6605,5.6605,5.6605,5.6605,5.6605,5.6605,5.6605,5.6605,5.6605,5.6605,5.6605,5.6605,5.6605,5.6605,5.6605,5.6605,5.6605,5.6605,5.6605,5.7054,5.8713,5.7776,5.762,6.1016,6.0273,5.9659,6.1397,6.1697,6.1699,6.1699,6.1699,6.1699,6.1699,6.1699,6.1699,6.1699,6.1699,6.1699,6.1699,6.1699,6.207,6.2949,6.3008,6.3027,6.3027,6.4687,6.5605,6.5605,6.6465,6.6894,6.6894,6.6894,6.6894,6.6894,6.6894,6.6894,4.3568,4.4524,0.0,0.0,0.0,0.0,0.0,0.0,0.0,0.0,0.0,0.0,0.0,0.0,0.0,5.4342,5.563,5.6605,5.6605,5.6605,5.6605,5.6605,5.6605,5.6352,5.5747,5.5689,5.5435,5.4829,5.477,5.5044,5.565,5.5689,5.5962,5.6585,5.6605,5.6605,5.6605,5.6605,5.6605,5.6605,5.6605,5.6605,5.6605,5.6605,5.6605,5.6605,5.6605,5.6605,5.6605,5.6605,5.6605,5.6605,5.6605,5.6605,5.6605,5.6605,5.6605,5.6605,5.6605,5.6605,5.6605,5.6605,5.6605,5.6605,5.6605,5.6605,5.6605,5.6605,5.6605,5.6605,5.6605,5.6605,5.6605,5.6605,5.7035,5.7426,5.7366,5.7406,5.7933,5.9552,5.9453,5.9659,6.1397,6.1697,6.1699,6.1699,6.1699,6.1699,6.1699,6.1699,6.1699,6.1699,6.1699,6.1699,6.1699,6.1699,6.207,6.2949,6.3574,6.4199,6.4805,6.5332,6.5898,6.6504,6.6777,6.6894,6.6894,6.6894,6.6894,6.6894,6.6894,6.6894,4.4036,0.0,0.0,0.0,0.0,0.0,0.0,0.0,0.0,0.0,0.0,0.0,0.0,0.0,0.0,5.3932,5.4887,5.557,5.557,5.557,5.5708,5.604,5.6079,5.5884,5.5358,5.5299,5.4948,5.4068,5.401,5.4225,5.4752,5.5104,5.5533,5.6079,5.641,5.6605,5.6605,5.6605,5.6605,5.6605,5.6605,5.6605,5.6605,5.6605,5.6605,5.6605,5.6605,5.6605,5.6605,5.6605,5.6605,5.6605,5.6605,5.6605,5.6605,5.6605,5.6605,5.6605,5.6605,5.6605,5.6605,5.6605,5.6605,5.6605,5.6605,5.6605,5.6605,5.6605,5.6605,5.6605,5.6605,5.6605,5.6605,5.6605,5.6977,5.7367,5.7542,5.7699,5.8265,5.9826,5.9843,6.0069,6.1455,6.1697,6.1699,6.1699,6.1699,6.1699,6.1699,6.1699,6.1699,6.1699,6.1699,6.1699,6.1699,6.1699,6.207,6.2949,6.3496,6.4336,6.5547,6.5937,6.6367,6.6894,6.6894,6.6894,6.6894,6.6894,6.6894,6.6894,6.6894,6.6894,4.4562,0.0,0.0,0.0,0.0,0.0,0.0,0.0,0.0,0.0,0.0,0.0,0.0,5.2645,5.2957,5.3756,5.3951,5.401,5.401,5.401,5.4283,5.5085,5.5182,5.5143,5.5065,5.5065,5.4694,5.3834,5.3756,5.3795,5.3873,5.4636,5.5143,5.5299,5.6079,5.6527,5.6605,5.6605,5.6605,5.6605,5.6605,5.6605,5.6605,5.6605,5.6605,5.6605,5.6605,5.6605,5.6605,5.6605,5.6605,5.6605,5.6605,5.6605,5.6605,5.6605,5.6605,5.6605,5.6605,5.6605,5.6605,5.6605,5.6605,5.6605,5.6605,5.6605,5.6605,5.6605,5.6605,5.6605,5.6605,5.6605,5.6605,5.6605,5.6663,5.7112,5.8557,5.8304,5.8499,6.088,6.0761,6.0557,6.1436,6.1658,6.1699,6.1699,6.1699,6.1699,6.1699,6.1699,6.1699,6.1699,6.1699,6.1699,6.1699,6.1699,6.207,6.2949,6.3008,6.3789,6.5527,6.6367,6.6816,6.6894,6.6894,6.6894,6.6894,6.6894,6.6894,6.6894,6.6894,6.6894,0.0,4.5772,0.0,0.0,0.0,0.0,0.0,0.0,0.0,0.0,0.0,0.0,0.0,5.2235,5.2762,5.2957,5.3541,5.401,5.401,5.401,5.4068,5.4264,5.4283,5.401,5.3328,5.3269,5.2898,5.2019,5.196,5.2253,5.2937,5.3152,5.3894,5.526,5.5475,5.5903,5.6585,5.6605,5.6605,5.6605,5.6605,5.6605,5.6605,5.6605,5.6605,5.6605,5.6605,5.6605,5.6605,5.6605,5.6605,5.6605,5.6605,5.6605,5.6605,5.6605,5.6605,5.6605,5.6605,5.6605,5.6605,5.6605,5.6605,5.6605,5.6605,5.6605,5.6605,5.6605,5.6605,5.6605,5.6605,5.6605,5.6605,5.6605,5.7074,5.7465,5.719,5.7484,5.7972,5.8538,5.9039,5.9654,6.0538,6.1246,6.1698,6.1699,6.1699,6.1699,6.1699,6.1699,6.1699,6.1699,6.1699,6.1699,6.1699,6.1699,6.207,6.2949,6.3008,6.3789,6.5527,6.5781,6.6191,6.6894,6.6894,6.6894,6.6894,6.6894,6.6894,6.6894,6.6894,6.6894,0.0,0.0,0.0,0.0,0.0,0.0,0.0,0.0,0.0,0.0,0.0,0.0,5.1394,5.1765,5.2078,5.2078,5.2468,5.2761,5.2761,5.2761,5.2917,5.3327,5.3385,5.3191,5.2742,5.2703,5.2332,5.1472,5.1394,5.1609,5.2059,5.2469,5.3308,5.4635,5.5085,5.5728,5.6585,5.6605,5.6605,5.6605,5.6605,5.6605,5.6605,5.6605,5.6605,5.6605,5.6605,5.6605,5.6605,5.6605,5.6605,5.6605,5.6605,5.6605,5.6605,5.6605,5.6605,5.6605,5.6605,5.6605,5.6605,5.6605,5.6605,5.6605,5.6605,5.6605,5.6605,5.6605,5.6605,5.6605,5.6605,5.6605,5.6605,5.6605,5.6918,5.7211,5.7172,5.7504,5.8052,5.887,5.9407,6.0002,6.0869,6.1403,6.1699,6.1699,6.1699,6.1699,6.1699,6.1699,6.1699,6.1699,6.1699,6.1699,6.1699,6.1699,6.1894,6.2344,6.2383,6.3164,6.4902,6.498,6.5586,6.6875,6.6894,6.6894,6.6894,6.6894,6.6894,6.6894,6.6894,6.6874,0.0,0.0,0.0,0.0,0.0,0.0,0.0,0.0,0.0,0.0,0.0,5.1394,5.1394,5.1394,5.1394,5.1394,5.1394,5.1394,5.1394,5.1394,5.1668,5.2391,5.2488,5.2488,5.2488,5.2488,5.2176,5.1453,5.1394,5.1394,5.1394,5.2078,5.2879,5.3756,5.4479,5.5279,5.6136,5.6156,5.6156,5.6156,5.6293,5.6449,5.6605,5.6605,5.6605,5.6605,5.6605,5.6605,5.6605,5.6605,5.6605,5.6605,5.6605,5.6605,5.6605,5.6605,5.6605,5.6605,5.6605,5.6605,5.6605,5.6605,5.6605,5.6605,5.6605,5.6605,5.6605,5.6605,5.6605,5.6605,5.6605,5.6605,5.6605,5.6605,5.6605,5.6781,5.7445,5.7582,5.805,5.9631,6.0189,6.0686,6.1552,6.1697,6.1699,6.1699,6.1699,6.1699,6.1699,6.1699,6.1699,6.1699,6.1699,6.1699,6.1699,6.1699,6.1699,6.1699,6.1699,6.2402,6.4004,6.4219,6.5058,6.664,6.6816,6.6894,6.6874,6.6874,6.6853,6.685,6.685,6.68,0.0,0.0,0.0,0.0,0.0,0.0,0.0,0.0,0.0,0.0,5.1394,5.1394,5.1394,5.1394,5.1394,5.1394,5.1394,5.1394,5.1394,5.1394,5.1433,5.155,5.157,5.157,5.157,5.157,5.1531,5.1414,5.1394,5.1394,5.1394,5.1511,5.196,5.2859,5.2996,5.3464,5.4341,5.4341,5.4341,5.4361,5.5103,5.5864,5.6605,5.6605,5.6605,5.6605,5.6605,5.6605,5.6605,5.6605,5.6605,5.6605,5.6605,5.6605,5.6605,5.6605,5.6605,5.6605,5.6605,5.6605,5.6605,5.6605,5.6605,5.6605,5.6605,5.6605,5.6605,5.6605,5.6605,5.6605,5.6605,5.6605,5.6605,5.6605,5.6605,5.6624,5.6742,5.6761,5.7035,5.7972,5.9375,6.0674,6.1552,6.1697,6.1699,6.1699,6.1699,6.1699,6.1699,6.1699,6.1699,6.1699,6.1699,6.1699,6.1699,6.1699,6.1699,6.1699,6.1699,6.2148,6.3125,6.3906,6.4765,6.5742,6.6523,6.6833,6.6728,6.6728,6.6703,6.6633,6.6633,6.6626,4.3334,0.0,0.0,0.0,0.0,0.0,0.0,0.0,0.0,0.0,5.1394,5.1394,5.1394,5.1394,5.1394,5.1394,5.1394,5.1394,5.1394,5.1394,5.1394,5.1394,5.1394,5.1394,5.1394,5.1394,5.1394,5.1394,5.1394,5.1394,5.1394,5.1394,5.1804,5.2664,5.2703,5.3113,5.399,5.401,5.401,5.401,5.4381,5.5025,5.5864,5.5864,5.6138,5.6605,5.6605,5.6605,5.6605,5.6605,5.6605,5.6605,5.6605,5.6605,5.6605,5.6605,5.6605,5.6605,5.6605,5.6605,5.6605,5.6605,5.6605,5.6605,5.6605,5.6605,5.6605,5.6605,5.6605,5.6605,5.6605,5.6605,5.6605,5.6605,5.6605,5.6605,5.6605,5.6957,5.766,5.9007,5.9884,6.0675,6.1553,6.1697,6.1699,6.1699,6.1699,6.1699,6.1699,6.1699,6.1699,6.1699,6.1699,6.1699,6.1699,6.1699,6.1699,6.1699,6.1699,6.209,6.2969,6.3379,6.4219,6.5566,6.5976,6.6343,6.6699,6.6209,6.6195,6.6592,6.6592,6.6558,0.0,0.0,0.0,0.0,0.0,0.0,0.0,0.0,0.0,0.0,5.1394,5.1394,5.1394,5.1394,5.1394,5.1394,5.1394,5.1394,5.1394,5.1394,5.1394,5.1394,5.1394,5.1394,5.1394,5.1394,5.1394,5.1394,5.1394,5.1394,5.1394,5.1394,5.1707,5.2352,5.2371,5.2684,5.3327,5.3346,5.3444,5.3678,5.3678,5.4127,5.4967,5.4967,5.5318,5.5961,5.641,5.6605,5.6605,5.6605,5.6605,5.6605,5.6605,5.6605,5.6605,5.6605,5.6605,5.6605,5.6605,5.6605,5.6605,5.6605,5.6605,5.6605,5.6605,5.6605,5.6605,5.6605,5.6605,5.6605,5.6605,5.6605,5.6605,5.6605,5.6605,5.6605,5.6605,5.7231,5.8188,5.9499,6.01,6.0617,6.1262,6.1541,6.1699,6.1699,6.1699,6.1699,6.1699,6.1699,6.1699,6.1699,6.1699,6.1699,6.1699,6.1699,6.1699,6.1699,6.1699,6.1992,6.2637,6.287,6.3591,6.488,6.5091,6.568,6.6675,6.5991,6.5952,6.65,6.65,6.6443,0.0,0.0,0.0,0.0,0.0,0.0,0.0,0.0,0.0,0.0,5.1394,5.1394,5.1394,5.1394,5.1394,5.1394,5.1394,5.1394,5.1394,5.1394,5.1394,5.1394,5.1394,5.1394,5.1394,5.1394,5.1394,5.1394,5.1394,5.1394,5.1394,5.1394,5.1414,5.1472,5.1472,5.1492,5.1531,5.1531,5.1941,5.2762,5.2762,5.3211,5.4068,5.4068,5.4088,5.4224,5.5883,5.6605,5.6605,5.6605,5.6605,5.6605,5.6605,5.6605,5.6605,5.6605,5.6605,5.6605,5.6605,5.6605,5.6605,5.6605,5.6605,5.6605,5.6605,5.6605,5.6605,5.6605,5.6605,5.6605,5.6605,5.6605,5.6605,5.6605,5.6605,5.6605,5.6605,5.7231,5.784,5.7928,5.9264,6.0403,6.0466,6.1152,6.1699,6.1699,6.1699,6.1699,6.1699,6.1699,6.1699,6.1699,6.1699,6.1699,6.1699,6.1699,6.1699,6.1699,6.1699,6.1719,6.1777,6.2506,6.2957,6.3035,6.3733,6.4912,6.66,6.6426,6.629,6.622,6.622,6.6215,0.0,0.0,0.0,0.0,0.0,0.0,0.0,0.0,5.0376,5.0376,5.0778,5.1144,5.1144,5.1288,5.1394,5.1394,5.1394,5.1394,5.1394,5.1394,5.1394,5.1394,5.1394,5.1394,5.1394,5.1394,5.1394,5.1394,5.1394,5.1394,5.1394,5.1394,5.1394,5.1394,5.1394,5.1394,5.1394,5.1394,5.155,5.1863,5.1863,5.2312,5.3172,5.3172,5.3463,5.4029,5.4653,5.5259,5.5767,5.5767,5.6098,5.6605,5.6605,5.6605,5.6605,5.6605,5.6605,5.6605,5.6605,5.6605,5.6605,5.6605,5.6605,5.6605,5.6605,5.6605,5.6605,5.6605,5.6605,5.6605,5.6605,5.6605,5.6605,5.6605,5.6605,5.6605,5.6605,5.6821,5.7351,5.8434,5.8717,5.9134,6.0212,6.0663,6.1055,6.1621,6.1699,6.1699,6.1699,6.1699,6.1699,6.1699,6.1699,6.1699,6.1699,6.1699,6.1699,6.1699,6.1699,6.1699,6.1699,6.1971,6.2371,6.2895,6.3076,6.3712,6.4808,6.5326,6.5519,6.5436,6.5953,6.6205,3.9492,0.0,0.0,0.0,0.0,0.0,0.0,0.0,4.9451,4.974,4.9987,5.0253,5.0545,5.0741,5.0977,5.1288,5.1364,5.1394,5.1394,5.1394,5.1394,5.1394,5.1394,5.1394,5.1394,5.1394,5.1394,5.1394,5.1394,0.0,5.1394,5.1394,5.1394,5.1394,5.1394,5.1394,5.1394,5.1394,5.1394,5.1394,5.1394,5.1707,5.2254,5.2254,5.2585,5.3132,5.3444,5.4068,5.487,5.487,5.5201,5.5727,5.5727,5.5903,5.6157,5.6157,5.6352,5.6605,5.6605,5.6605,5.6605,5.6605,5.6605,5.6605,5.6605,5.6605,5.6605,5.6605,5.6605,5.6605,5.6605,5.6605,5.6605,5.6605,5.6605,5.6605,5.6605,5.6608,5.6926,5.8048,5.8076,5.8355,5.9745,6.0215,6.0703,6.1562,6.1699,6.1699,6.1699,6.1699,6.1699,6.1699,6.1699,6.1699,6.1699,6.1699,6.1699,6.1699,6.1678,6.1677,6.1699,6.1606,6.183,6.2397,6.2524,6.2703,6.2901,6.4053,6.4765,6.5011,6.5552,6.5809,0.0,0.0,0.0,0.0,0.0,0.0,0.0,0.0,4.8666,4.9573,4.9052,4.8724,4.9612,4.9771,5.0061,5.1007,5.1297,5.139,5.139,5.139,5.139,5.139,5.1391,5.1392,5.1392,5.1393,5.1394,5.1394,5.1394,5.1393,5.1393,5.1393,5.1393,5.1395,5.1395,5.1395,5.1395,5.1395,5.1395,5.1395,5.1394,5.1394,5.1394,5.1394,5.1394,5.1453,5.2293,5.3133,5.3932,5.3971,5.4029,5.4049,5.401,5.4517,5.526,5.526,5.5806,5.6527,5.6527,5.6546,5.6566,5.6566,5.6585,5.6605,5.6605,5.6605,5.6605,5.6605,5.6605,5.6605,5.6605,5.6605,5.6605,5.6605,5.6605,5.6605,5.6605,5.6595,5.6604,5.6592,5.7281,5.8143,5.9004,5.9805,6.0625,6.1504,6.164,6.166,6.166,6.168,6.1699,6.1699,6.1699,6.1699,6.1699,6.1699,6.1699,6.1699,6.1625,6.1621,6.1699,6.1443,6.1334,6.1383,6.2036,6.1954,6.1103,6.2844,6.4121,6.4914,6.4952,6.4995,3.7932,0.0,0.0,0.0,0.0,0.0,0.0,0.0,0.0,4.8267,4.7919,4.7784,4.9232,4.9065,4.9003,4.9892,5.0642,5.1118,5.1118,5.1118,5.1118,5.1118,5.1199,5.1253,5.1253,5.1334,5.1394,0.0,5.1394,5.1384,5.1334,5.1323,5.1346,5.1393,5.1393,5.1393,5.1393,5.1393,5.1393,5.1393,5.1408,5.1406,5.1405,5.1398,5.1394,5.1414,5.1648,5.1902,5.2214,5.3483,5.4361,5.4889,5.4244,5.4147,5.4361,5.4361,5.4517,5.4712,5.4712,5.5123,5.567,5.567,5.6098,5.6605,5.6605,5.6605,5.6605,5.6605,5.6605,5.6605,5.6605,5.6605,5.6605,5.6605,5.6605,5.6605,5.6605,5.66,5.6591,5.6592,5.6792,5.7245,5.8105,5.8437,5.8887,5.9765,6.039,6.0762,6.0762,6.1308,6.1699,6.1699,6.1699,6.1678,6.1624,6.1622,6.1622,6.1622,6.1464,6.1428,6.1549,6.1389,6.1262,6.1188,6.1415,6.1405,6.1182,6.282,6.3423,6.3061,6.3748,6.4154,0.0,0.0,0.0,0.0,0.0,0.0,4.4609,4.4955,0.0,0.0,4.7466,4.7408,4.9086,4.9047,4.8931,4.9433,5.0287,5.0891,5.099,5.1005,5.1005,5.1005,5.1066,5.1123,5.1123,5.1193,5.1222,5.1222,5.1222,5.1226,5.1189,5.1222,5.1284,5.1314,5.1372,5.1398,5.1398,5.1398,5.1398,5.1398,5.1395,5.1394,5.1393,5.1408,5.1404,5.142,5.1772,5.1945,5.2019,5.3034,5.3541,5.366,5.3502,5.3678,5.401,5.401,5.4225,5.4498,5.4127,5.4322,5.4752,5.4752,5.5357,5.6059,5.6059,5.6313,5.6605,5.6605,5.6605,5.6605,5.6605,5.6605,5.6605,5.6605,5.6605,5.6606,5.6592,5.6604,5.6593,5.6593,5.6598,5.6874,5.7754,5.789,5.8203,5.9062,5.9883,6.039,6.039,6.1152,6.1699,6.1699,6.1699,6.1679,6.1649,6.1616,6.1582,6.1557,6.1361,6.1306,6.14,6.1253,6.1159,6.1103,6.1111,6.1101,6.1075,6.2045,6.2461,6.2394,6.3289,6.3638,0.0,0.0,0.0,0.0,4.1219,0.0,4.4705,4.4724,4.497,0.0,4.7178,4.712,4.8817,4.9029,4.9009,4.9106,4.9764,5.0404,5.0772,5.0904,5.0962,5.0962,5.0975,5.0984,5.0984,5.0996,5.1005,5.1005,5.0996,5.1002,5.102,5.1129,5.1183,5.1192,5.1317,5.1396,5.1396,5.1399,5.14,5.14,5.1399,5.1399,5.1399,5.1399,5.1396,5.1449,5.223,5.2557,5.2568,5.2568,5.2158,5.1609,5.2293,5.3094,5.3834,5.3756,5.4264,5.4889,5.401,5.3776,5.3854,5.3854,5.4459,5.5163,5.5163,5.5767,5.6488,5.6566,5.6605,5.6605,5.6605,5.6605,5.6605,5.6605,5.6606,5.6591,5.6599,5.6608,5.6593,5.6593,5.66,5.6855,5.7617,5.7754,5.8027,5.8789,5.9687,6.0273,6.0273,6.1113,6.1699,6.1699,6.1699,6.1699,6.1698,6.1624,6.1577,6.1502,6.1328,6.1245,6.1297,6.1131,6.1056,6.1087,6.1079,6.101,6.0938,6.099,6.15,6.2376,6.311,6.3178,3.7945,3.9369,4.0812,3.9781,0.0,0.0,4.2739,4.3451,4.4648,0.0,4.5398,4.5336,4.7062,4.6817,4.6571,4.7274,4.7524,4.8133,4.9519,5.0322,5.0766,5.0766,5.0855,5.092,5.092,5.0963,5.1005,5.1005,5.0995,5.1042,5.1164,5.1132,5.115,5.1207,5.1277,5.1322,5.1322,5.1363,5.1406,5.1406,5.1405,5.1404,5.1404,5.14,5.1398,5.1416,5.1573,5.1647,5.1641,5.1641,5.1969,5.2391,5.1863,5.2196,5.2879,5.2175,5.2468,5.3074,5.2214,5.237,5.2957,5.2957,5.3541,5.4244,5.4244,5.4869,5.5708,5.639,5.6605,5.6605,5.6605,5.6605,5.6605,5.6605,5.6593,5.6599,5.6601,5.6592,5.6598,5.6598,5.6601,5.664,5.6816,5.6855,5.6914,5.707,5.8437,5.9433,5.9433,6.0762,6.1699,6.1699,6.1699,6.1677,6.1626,6.1612,6.16,6.1582,6.1398,6.1285,6.1308,6.1255,6.1159,6.101,6.1271,6.1315,6.1147,6.1205,6.1301,6.146,6.1786,6.1913,3.8899,3.9585,4.0546,4.0546,0.0,0.0,0.0,4.2754,4.3547,4.5244,4.4917,4.4951,4.7101,4.6451,4.5898,4.6755,4.7235,4.7658,4.8086,4.924,5.0207,5.0649,5.0763,5.0801,5.0801,5.0839,5.0856,5.0855,5.0855,5.089,5.0992,5.1024,5.1072,5.1091,5.1197,5.1272,5.1296,5.1333,5.1364,5.1406,5.1406,5.1406,5.1406,5.1405,5.1403,5.1402,5.1402,5.14,5.1395,5.1395,5.1664,5.2086,5.2528,5.2702,5.2703,5.2702,5.2702,5.2586,5.1707,5.1687,5.2059,5.2059,5.2645,5.3346,5.3346,5.4265,5.5397,5.5825,5.6255,5.6605,5.6605,5.6605,5.6605,5.6605,5.6609,5.6596,5.6605,5.6593,5.6597,5.6599,5.66,5.6601,5.6601,5.6601,5.6601,5.6601,5.7714,5.869,5.9099,6.0252,6.1228,6.1658,6.1697,6.1692,6.1653,6.1627,6.1582,6.1543,6.1398,6.1292,6.1256,6.1256,6.1192,6.1108,6.1364,6.1398,6.1209,6.1392,6.1456,6.135,6.1446,6.1578,0.0,0.0,0.0,0.0,0.0,4.1474,0.0,0.0,0.0,4.4474,4.4436,0.0,0.0,0.0,0.0,0.0,0.0,0.0,0.0,4.8067,0.0,5.0322,5.0592,5.0707,5.0707,5.0697,5.0702,5.071,5.0724,5.0751,5.0823,5.0928,5.0988,5.0988,5.1113,5.1211,5.1268,5.1287,5.1331,5.1386,5.1386,5.1406,5.1406,5.1406,5.1406,5.1405,5.1405,5.1404,5.14,5.14,5.1397,5.1547,5.2943,5.327,5.3015,5.3541,5.3405,5.282,5.1941,5.1531,5.1394,5.1394,5.1882,5.2488,5.2645,5.3679,5.4831,5.5006,5.5689,5.6352,5.6352,5.6468,5.6605,5.6605,5.6607,5.6594,5.6608,5.6592,5.6594,5.6598,5.6598,5.6599,5.6601,5.6601,5.6601,5.6599,5.7341,5.8121,5.8781,5.962,6.0479,6.1358,6.1299,6.1279,6.1433,6.1404,6.135,6.129,6.1335,6.1342,6.1253,6.1269,6.1263,6.1307,6.1459,6.1459,6.1307,6.1572,6.163,6.149,6.1528,6.1591,0.0,0.0,0.0,0.0,4.2262,0.0,0.0,0.0,4.2816,4.2331,0.0,0.0,0.0,0.0,0.0,0.0,0.0,0.0,4.6697,4.7062,4.7774,4.9356,5.0226,5.0707,5.0707,5.0707,5.0715,5.0788,5.0846,5.0884,5.0886,5.091,5.0902,5.0902,5.1034,5.1111,5.1125,5.1247,5.1299,5.1303,5.1365,5.1406,5.1406,5.1406,5.1406,5.1406,5.1406,5.1406,5.1404,5.1404,5.1402,5.1416,5.1625,5.2574,5.3776,5.3094,5.3269,5.3737,5.2859,5.2059,5.1394,5.1394,5.1472,5.1687,5.2469,5.284,5.3152,5.3932,5.4771,5.5455,5.5455,5.602,5.6605,5.6605,5.6594,5.66,5.6602,5.6608,5.6593,5.6593,5.6593,5.6594,5.6594,5.6594,5.6594,5.6594,5.7336,5.7922,5.8019,5.8741,5.9581,6.044,5.9855,5.9716,6.0489,6.0543,6.0536,6.0523,6.1238,6.1597,6.1476,6.1473,6.1513,6.164,6.1667,6.1667,6.164,6.1674,6.163,6.1493,6.1625,6.1693,0.0,0.0,0.0,0.0,0.0,0.0,4.1574,0.0,4.1627,0.0,0.0,0.0,0.0,0.0,0.0,0.0,4.4724,0.0,0.0,0.0,4.7851,0.0,0.0,0.0,4.9956,5.0437,5.0733,5.0851,5.0872,5.0897,5.0898,5.0898,5.0898,5.0898,5.0947,5.1024,5.1102,5.1159,5.1229,5.1297,5.1331,5.1363,5.1406,5.1406,5.1406,5.1406,5.1406,5.1406,5.1406,5.1406,5.1405,5.1402,5.1401,5.1844,5.2515,5.2647,5.2606,5.2448,5.2078,5.1707,5.1394,5.1394,5.1394,5.1472,5.1824,5.2293,5.2781,5.3133,5.3873,5.4654,5.5163,5.5573,5.5962,5.6488,5.6609,5.6595,5.66,5.6604,5.6606,5.6606,5.6606,5.6605,5.66,5.6607,5.6591,5.6607,5.6919,5.7308,5.7772,5.8142,5.8689,5.9548,5.9313,5.9252,5.9618,5.9657,5.9655,5.9651,6.0451,6.1143,6.1604,6.1621,6.1636,6.1698,6.1699,6.1699,6.1699,6.1699,6.1668,6.1623,6.1668,6.1699,4.1172,0.0,0.0,0.0,0.0,0.0,0.0,0.0,0.0,0.0,0.0,0.0,0.0,0.0,0.0,0.0,0.0,4.4994,0.0,0.0,0.0,0.0,0.0,0.0,0.0,4.9683,5.0171,5.0528,5.0564,5.0677,5.0898,5.0898,5.0898,5.0898,5.0898,5.0955,5.1047,5.1084,5.1162,5.1277,5.1291,5.1334,5.1406,5.1406,5.1406,5.1406,5.1406,5.1406,5.1406,5.1406,5.1406,5.1405,5.1405,5.1402,5.1512,5.2379,5.2295,5.1765,5.1765,5.1609,5.1394,5.1394,5.1394,5.1394,5.1394,5.1843,5.2332,5.2332,5.2976,5.3795,5.4421,5.4753,5.5162,5.604,5.6235,5.6315,5.6556,5.6597,5.6597,5.6597,5.6597,5.6595,5.6607,5.6598,5.6605,5.6598,5.6597,5.6809,5.7407,5.7465,5.7797,5.8654,5.8557,5.8498,5.8713,5.8732,5.885,5.9084,5.969,6.0334,6.0958,6.1211,6.1348,6.1348,6.1582,6.1699,6.1699,6.1699,6.1699,6.1699,6.1699,6.1699,0.0,0.0,0.0,4.128,0.0,0.0,0.0,0.0,4.1523,0.0,0.0,0.0,0.0,0.0,0.0,0.0,0.0,0.0,0.0,0.0,0.0,0.0,0.0,0.0,0.0,4.8316,4.8736,0.0,4.9699,5.009,5.0859,5.0898,5.0898,5.0898,5.0898,5.0902,5.0906,5.1037,5.1124,5.1207,5.1274,5.1334,5.1406,5.1406,5.1406,5.1406,5.1406,5.1406,5.1406,5.1406,5.1406,5.1406,5.1405,5.1404,5.1501,5.2389,5.2671,5.2664,5.2664,5.2118,5.1394,5.1394,5.1394,5.1394,5.1394,5.1414,5.1433,5.1433,5.2078,5.2742,5.2781,5.3405,5.4264,5.5124,5.5338,5.5573,5.6411,5.6606,5.6606,5.6606,5.6606,5.6606,5.6605,5.6606,5.6606,5.6606,5.6606,5.6606,5.6644,5.6644,5.6957,5.7758,5.7133,5.6996,5.7777,5.7837,5.8207,5.9045,5.9123,5.9142,5.9181,5.9983,6.0432,6.0432,6.127,6.1699,6.1699,6.1699,6.1699,6.1699,6.1699,6.1699,0.0,0.0,4.2488,4.1302,0.0,0.0,0.0,0.0,0.0,0.0,0.0,0.0,0.0,0.0,0.0,0.0,0.0,0.0,0.0,0.0,0.0,0.0,0.0,0.0,0.0,0.0,0.0,4.9645,5.0179,0.0,5.0898,5.0898,5.0898,5.0898,5.0898,5.0898,5.0898,5.0936,5.1042,5.1201,5.1229,5.1292,5.1406,5.1406,5.1406,5.1406,5.1406,5.1406,5.1406,5.1406,5.1406,5.1406,5.1406,5.1406,5.1443,5.1726,5.1837,5.1834,5.1846,5.1648,5.1394,5.1394,5.1394,5.1394,5.1394,5.1394,5.1394,5.1394,5.1609,5.1961,5.2547,5.2918,5.3367,5.4225,5.4439,5.4674,5.5552,5.5747,5.5903,5.6488,5.6605,5.6605,5.6605,5.6605,5.6605,5.6605,5.6605,5.6605,5.6605,5.6605,5.6702,5.6977,5.6761,5.6702,5.6977,5.7016,5.7367,5.8187,5.8246,5.8499,5.9084,5.9377,5.9807,6.0393,6.0686,6.1114,6.1699,6.1699,6.1699,6.1699,6.1699,6.1699,4.1182,4.1732,0.0,4.1323,4.1057,0.0,4.0233,0.0,4.1037,0.0,0.0,0.0,0.0,0.0,0.0,0.0,0.0,0.0,0.0,4.2934,0.0,0.0,0.0,0.0,0.0,0.0,4.852,4.9181,4.9722,0.0,0.0,5.0898,5.0898,5.0898,5.0898,5.0898,5.0898,5.0959,5.1045,5.1201,5.1211,5.1292,5.1406,5.1406,5.1406,5.1406,5.1406,5.1406,5.1406,5.1406,5.1406,5.1406,5.1406,5.1406,5.1405,5.1398,5.1409,5.1403,5.1396,5.1394,5.1394,5.1394,5.1394,5.1394,5.1394,5.1394,5.1394,5.1394,5.1394,5.1531,5.2098,5.2235,5.2469,5.3327,5.3541,5.3776,5.4654,5.5085,5.5475,5.602,5.6391,5.6605,5.6605,5.6605,5.6605,5.6605,5.6605,5.6605,5.6605,5.6605,5.6605,5.6605,5.6605,5.6605,5.6605,5.6605,5.682,5.7348,5.7367,5.7621,5.8186,5.8498,5.8909,5.9456,5.9788,6.0373,6.1231,6.1231,6.1407,6.1699,6.1699,6.1699]}]]